[[{"header":{"parameterUnit":"m.s-1","parameterCategory":1,"la1":30.6,"la2":28.766,"lo1":-90.7593,"lo2":-88.6598,"dy":0.0162,"dx":0.0183,"nx":116,"ny":114,"refTime":"2024-02-16T06:00:00:Z","depth":0,"parameterNumber":2,"parameterNumberName":"U-component_of_WINDS"},"data":[0.0,0.0,0.0,0.0,0.0,0.0,0.0,0.0,0.0,0.0,0.0,0.0,0.0,0.0,0.0,0.0,0.0,0.0,0.0,0.0,0.0,0.0,0.0,0.0,0.0,0.0,0.0,0.0,0.0,0.0,0.0,0.0,0.0,0.0,0.0,0.0,0.0,0.0,0.0,0.0,0.0,0.0,0.0,0.0,0.0,0.0,0.0,0.0,0.0,0.0,0.0,0.0,0.0,0.0,0.0,0.0,0.0,0.0,0.0,0.0,0.0,0.0,0.0,0.0,0.0,0.0,0.0,0.0,0.0,0.0,0.0,0.0,0.0,0.0,0.0,0.0,0.0,0.0,0.0,0.0,0.0,0.0,0.0,0.0,0.0,0.0,0.0,0.0,0.0,0.0,0.0,0.0,0.0,0.0,0.0,0.0,0.0,0.0,0.0,0.0,0.0,0.0,0.0,0.0,0.0,0.0,0.0,0.0,0.0,0.0,0.0,0.0,0.0,0.0,0.0,0.0,0.0,0.0,0.0,0.0,0.0,0.0,0.0,0.0,0.0,0.0,0.0,0.0,0.0,0.0,0.0,0.0,0.0,0.0,0.0,0.0,0.0,0.0,0.0,0.0,0.0,0.0,0.0,0.0,0.0,0.0,0.0,0.0,0.0,0.0,0.0,0.0,0.0,0.0,0.0,0.0,0.0,0.0,0.0,0.0,0.0,0.0,0.0,0.0,0.0,0.0,0.0,0.0,0.0,0.0,0.0,0.0,0.0,0.0,0.0,0.0,0.0,0.0,0.0,0.0,0.0,0.0,0.0,0.0,0.0,0.0,0.0,0.0,0.0,0.0,0.0,0.0,0.0,0.0,0.0,0.0,0.0,0.0,0.0,0.0,0.0,0.0,0.0,0.0,0.0,0.0,0.0,0.0,0.0,0.0,0.0,0.0,0.0,0.0,0.0,0.0,0.0,0.0,0.0,0.0,0.0,0.0,0.0,0.0,0.0,0.0,0.0,0.0,0.0,0.0,0.0,0.0,0.0,0.0,0.0,0.0,0.0,0.0,0.0,0.0,0.0,0.0,0.0,0.0,0.0,0.0,0.0,0.0,0.0,0.0,0.0,0.0,0.0,0.0,0.0,0.0,0.0,0.0,0.0,0.0,0.0,0.0,0.0,0.0,0.0,0.0,0.0,0.0,0.0,0.0,0.0,0.0,0.0,0.0,0.0,0.0,0.0,0.0,0.0,0.0,0.0,0.0,0.0,0.0,0.0,0.0,0.0,0.0,0.0,0.0,0.0,0.0,0.0,0.0,0.0,0.0,0.0,0.0,0.0,0.0,0.0,0.0,0.0,0.0,0.0,0.0,0.0,0.0,0.0,0.0,0.0,0.0,0.0,0.0,0.0,0.0,0.0,0.0,0.0,0.0,0.0,0.0,0.0,0.0,0.0,0.0,0.0,0.0,0.0,0.0,0.0,0.0,0.0,0.0,0.0,0.0,0.0,0.0,0.0,0.0,0.0,0.0,0.0,0.0,0.0,0.0,0.0,0.0,0.0,0.0,0.0,0.0,0.0,0.0,0.0,0.0,0.0,0.0,0.0,0.0,0.0,0.0,0.0,0.0,0.0,0.0,0.0,0.0,0.0,0.0,0.0,0.0,0.0,0.0,0.0,0.0,0.0,0.0,0.0,0.0,0.0,0.0,0.0,0.0,0.0,0.0,0.0,0.0,0.0,0.0,0.0,0.0,0.0,0.0,0.0,0.0,0.0,0.0,0.0,0.0,0.0,0.0,0.0,0.0,0.0,0.0,0.0,0.0,0.0,0.0,0.0,0.0,0.0,0.0,0.0,0.0,0.0,0.0,0.0,0.0,0.0,0.0,0.0,0.0,0.0,0.0,0.0,0.0,0.0,0.0,0.0,0.0,0.0,0.0,0.0,0.0,0.0,0.0,0.0,0.0,0.0,0.0,0.0,0.0,0.0,0.0,0.0,0.0,0.0,0.0,0.0,0.0,0.0,0.0,0.0,0.0,0.0,0.0,0.0,0.0,0.0,0.0,0.0,0.0,0.0,0.0,0.0,0.0,0.0,0.0,0.0,0.0,0.0,0.0,0.0,0.0,0.0,0.0,0.0,0.0,0.0,0.0,0.0,0.0,0.0,0.0,0.0,0.0,0.0,0.0,0.0,0.0,0.0,0.0,0.0,0.0,0.0,0.0,0.0,0.0,0.0,0.0,0.0,0.0,0.0,0.0,0.0,0.0,0.0,0.0,0.0,0.0,0.0,0.0,0.0,0.0,0.0,0.0,0.0,0.0,0.0,0.0,0.0,0.0,0.0,0.0,0.0,0.0,0.0,0.0,0.0,0.0,0.0,0.0,0.0,0.0,0.0,0.0,0.0,0.0,0.0,0.0,0.0,0.0,0.0,0.0,0.0,0.0,0.0,0.0,0.0,0.0,0.0,0.0,0.0,0.0,0.0,0.0,0.0,0.0,0.0,0.0,0.0,0.0,0.0,0.0,0.0,0.0,0.0,0.0,0.0,0.0,0.0,0.0,0.0,0.0,0.0,0.0,0.0,0.0,0.0,0.0,0.0,0.0,0.0,0.0,0.0,0.0,0.0,0.0,0.0,0.0,0.0,0.0,0.0,0.0,0.0,0.0,0.0,0.0,0.0,0.0,0.0,0.0,0.0,0.0,0.0,0.0,0.0,0.0,0.0,0.0,0.0,0.0,0.0,0.0,0.0,0.0,0.0,0.0,0.0,0.0,0.0,0.0,0.0,0.0,0.0,0.0,0.0,0.0,0.0,0.0,0.0,0.0,0.0,0.0,0.0,0.0,0.0,0.0,0.0,0.0,0.0,0.0,0.0,0.0,0.0,0.0,0.0,0.0,0.0,0.0,0.0,0.0,0.0,0.0,0.0,0.0,0.0,0.0,0.0,0.0,0.0,0.0,0.0,0.0,0.0,0.0,0.0,0.0,0.0,0.0,0.0,0.0,0.0,0.0,0.0,0.0,0.0,0.0,0.0,0.0,0.0,0.0,0.0,0.0,0.0,0.0,0.0,0.0,0.0,0.0,0.0,0.0,0.0,0.0,0.0,0.0,0.0,0.0,0.0,0.0,0.0,0.0,0.0,0.0,0.0,0.0,0.0,0.0,0.0,0.0,0.0,0.0,0.0,0.0,0.0,0.0,0.0,0.0,0.0,0.0,0.0,0.0,0.0,0.0,0.0,0.0,0.0,0.0,0.0,0.0,0.0,0.0,0.0,0.0,0.0,0.0,0.0,0.0,0.0,0.0,0.0,0.0,0.0,0.0,0.0,0.0,0.0,0.0,0.0,0.0,0.0,0.0,0.0,0.0,0.0,0.0,0.0,0.0,0.0,0.0,0.0,0.0,0.0,0.0,0.0,0.0,0.0,0.0,0.0,0.0,0.0,0.0,0.0,0.0,0.0,0.0,0.0,0.0,0.0,0.0,0.0,0.0,0.0,0.0,0.0,0.0,0.0,0.0,0.0,0.0,0.0,0.0,0.0,0.0,0.0,0.0,0.0,0.0,0.0,0.0,0.0,0.0,0.0,0.0,0.0,0.0,0.0,0.0,0.0,0.0,0.0,0.0,0.0,0.0,0.0,0.0,0.0,0.0,0.0,0.0,0.0,0.0,0.0,0.0,0.0,0.0,0.0,0.0,0.0,0.0,0.0,0.0,0.0,0.0,0.0,0.0,0.0,0.0,0.0,0.0,0.0,0.0,0.0,0.0,0.0,0.0,0.0,0.0,0.0,0.0,0.0,0.0,0.0,0.0,0.0,0.0,0.0,0.0,0.0,0.0,0.0,0.0,0.0,0.0,0.0,0.0,0.0,0.0,0.0,0.0,0.0,0.0,0.0,0.0,0.0,0.0,0.0,0.0,0.0,0.0,0.0,0.0,0.0,0.0,0.0,0.0,0.0,0.0,0.0,0.0,0.0,0.0,0.0,0.0,0.0,0.0,0.0,0.0,0.0,0.0,0.0,0.0,0.0,0.0,0.0,0.0,0.0,0.0,0.0,0.0,0.0,0.0,0.0,0.0,0.0,0.0,0.0,0.0,0.0,0.0,0.0,0.0,0.0,0.0,0.0,0.0,0.0,0.0,0.0,0.0,0.0,0.0,0.0,0.0,0.0,0.0,0.0,0.0,0.0,0.0,0.0,0.0,0.0,0.0,0.0,0.0,0.0,0.0,0.0,0.0,0.0,0.0,0.0,0.0,0.0,0.0,0.0,0.0,0.0,0.0,0.0,0.0,0.0,0.0,0.0,0.0,0.0,0.0,0.0,0.0,0.0,0.0,0.0,0.0,0.0,0.0,0.0,0.0,0.0,0.0,0.0,0.0,0.0,0.0,0.0,0.0,0.0,0.0,0.0,0.0,0.0,0.0,0.0,0.0,0.0,0.0,0.0,0.0,0.0,0.0,0.0,0.0,0.0,0.0,0.0,0.0,0.0,0.0,0.0,0.0,0.0,0.0,0.0,0.0,0.0,0.0,0.0,0.0,0.0,0.0,0.0,0.0,0.0,0.0,0.0,0.0,0.0,0.0,0.0,0.0,0.0,0.0,0.0,0.0,0.0,0.0,0.0,0.0,0.0,0.0,0.0,0.0,0.0,0.0,0.0,0.0,0.0,0.0,0.0,0.0,0.0,0.0,0.0,0.0,0.0,0.0,0.0,0.0,0.0,0.0,0.0,0.0,0.0,0.0,0.0,0.0,0.0,0.0,0.0,0.0,0.0,0.0,0.0,0.0,0.0,0.0,0.0,0.0,0.0,0.0,0.0,0.0,0.0,0.0,0.0,0.0,0.0,0.0,0.0,0.0,0.0,0.0,0.0,0.0,0.0,0.0,0.0,0.0,0.0,0.0,0.0,0.0,0.0,0.0,0.0,0.0,0.0,0.0,0.0,0.0,0.0,0.0,0.0,0.0,0.0,0.0,0.0,0.0,0.0,0.0,0.0,0.0,0.0,0.0,0.0,0.0,0.0,0.0,0.0,0.0,0.0,0.0,0.0,0.0,0.0,0.0,0.0,0.0,0.0,0.0,0.0,0.0,0.0,0.0,0.0,0.0,0.0,0.0,0.0,0.0,0.0,0.0,0.0,0.0,0.0,0.0,0.0,0.0,0.0,0.0,0.0,0.0,0.0,0.0,0.0,0.0,0.0,0.0,0.0,0.0,0.0,0.0,0.0,0.0,0.0,0.0,0.0,0.0,0.0,0.0,0.0,0.0,0.0,0.0,0.0,0.0,0.0,0.0,0.0,0.0,0.0,0.0,0.0,0.0,0.0,0.0,0.0,0.0,0.0,0.0,0.0,0.0,0.0,0.0,0.0,0.0,0.0,0.0,0.0,0.0,0.0,0.0,0.0,0.0,0.0,0.0,0.0,0.0,0.0,0.0,0.0,0.0,0.0,0.0,0.0,0.0,0.0,0.0,0.0,0.0,0.0,0.0,0.0,0.0,0.0,0.0,0.0,0.0,0.0,0.0,0.0,0.0,0.0,0.0,0.0,0.0,0.0,0.0,0.0,0.0,0.0,0.0,0.0,0.0,0.0,0.0,0.0,0.0,0.0,0.0,0.0,0.0,0.0,0.0,0.0,0.0,0.0,0.0,0.0,0.0,0.0,0.0,0.0,0.0,0.0,0.0,0.0,0.0,0.0,0.0,0.0,0.0,0.0,0.0,0.0,0.0,0.0,0.0,0.0,0.0,0.0,0.0,0.0,0.0,0.0,0.0,0.0,0.0,0.0,0.0,0.0,0.0,0.0,0.0,0.0,0.0,0.0,0.0,0.0,0.0,0.0,0.0,0.0,0.0,0.0,0.0,0.0,0.0,0.0,0.0,0.0,0.0,0.0,0.0,0.0,0.0,0.0,0.0,0.0,0.0,0.0,0.0,0.0,0.0,0.0,0.0,0.0,0.0,0.0,0.0,0.0,0.0,0.0,0.0,0.0,0.0,0.0,0.0,0.0,0.0,0.0,0.0,0.0,0.0,0.0,0.0,0.0,0.0,0.0,0.0,0.0,0.0,0.0,0.0,0.0,0.0,0.0,0.0,0.0,0.0,0.0,0.0,0.0,0.0,0.0,0.0,0.0,0.0,-4.0776,-4.007,0.0,0.0,0.0,0.0,0.0,0.0,0.0,0.0,0.0,0.0,0.0,0.0,0.0,0.0,0.0,0.0,0.0,0.0,0.0,0.0,0.0,0.0,0.0,0.0,0.0,0.0,-4.5594,-4.5594,-4.5594,-4.5594,-4.5594,-4.5594,-4.5568,-4.5522,-4.5504,-4.5495,-4.5485,-4.5438,-4.5513,-4.5522,-4.5495,-4.5419,-4.538,-4.5338,0.0,0.0,0.0,0.0,0.0,0.0,0.0,0.0,0.0,0.0,0.0,0.0,0.0,0.0,0.0,0.0,0.0,0.0,0.0,0.0,0.0,0.0,0.0,0.0,0.0,0.0,0.0,0.0,0.0,0.0,0.0,0.0,0.0,0.0,0.0,0.0,0.0,0.0,0.0,0.0,0.0,0.0,0.0,0.0,0.0,0.0,0.0,0.0,0.0,0.0,0.0,0.0,0.0,0.0,0.0,0.0,0.0,0.0,0.0,0.0,0.0,0.0,0.0,0.0,0.0,0.0,0.0,0.0,0.0,0.0,-4.1756,-4.1119,0.0,0.0,0.0,0.0,0.0,0.0,0.0,0.0,0.0,0.0,0.0,0.0,0.0,0.0,0.0,0.0,0.0,0.0,0.0,0.0,0.0,0.0,0.0,-4.5594,-4.5594,-4.5594,-4.5594,-4.5594,-4.5594,-4.5594,-4.5594,-4.5594,-4.5594,-4.5577,-4.5513,-4.5568,-4.5577,-4.5513,-4.5577,-4.5568,-4.5513,-4.5448,-4.5429,-4.5409,0.0,0.0,0.0,0.0,0.0,0.0,0.0,0.0,0.0,0.0,0.0,0.0,0.0,0.0,0.0,0.0,0.0,0.0,0.0,0.0,0.0,0.0,0.0,0.0,0.0,0.0,0.0,0.0,0.0,0.0,0.0,0.0,0.0,0.0,0.0,0.0,0.0,0.0,0.0,0.0,0.0,0.0,0.0,0.0,0.0,0.0,0.0,0.0,0.0,0.0,0.0,0.0,0.0,0.0,0.0,0.0,0.0,0.0,0.0,0.0,0.0,0.0,0.0,0.0,-4.3251,-4.3251,-4.3233,-4.3251,-4.3323,-4.3358,-4.2592,-4.2226,-4.2096,-4.1283,0.0,0.0,0.0,0.0,0.0,0.0,0.0,0.0,0.0,0.0,0.0,0.0,0.0,0.0,0.0,0.0,0.0,0.0,0.0,0.0,0.0,-4.5594,-4.5594,-4.5594,-4.5594,-4.5594,-4.5594,-4.5594,-4.5594,-4.5594,-4.5594,-4.5605,-4.5586,-4.5605,-4.5605,-4.5586,-4.5605,-4.5605,-4.5586,-4.5577,-4.555,-4.5476,-4.5438,0.0,0.0,0.0,0.0,0.0,0.0,0.0,0.0,0.0,0.0,0.0,0.0,0.0,0.0,0.0,0.0,0.0,0.0,0.0,0.0,0.0,0.0,0.0,0.0,0.0,0.0,0.0,0.0,0.0,0.0,0.0,0.0,0.0,0.0,0.0,0.0,0.0,0.0,0.0,0.0,0.0,0.0,0.0,-4.5267,-4.5246,0.0,0.0,0.0,0.0,0.0,0.0,0.0,0.0,0.0,0.0,0.0,0.0,0.0,-4.3394,-4.3394,-4.3428,-4.3428,-4.3358,-4.3428,-4.3428,-4.3394,-4.3428,-4.3428,-4.3412,-4.3335,0.0,-4.2028,-4.2006,0.0,0.0,0.0,0.0,0.0,0.0,0.0,0.0,0.0,0.0,0.0,0.0,0.0,0.0,0.0,0.0,0.0,0.0,0.0,0.0,0.0,-4.5594,-4.5594,-4.5594,-4.5594,-4.5594,-4.5594,-4.5594,-4.5594,-4.5594,-4.5594,-4.5594,-4.5594,-4.5594,-4.5594,-4.5594,-4.5594,-4.5594,-4.5594,-4.5594,-4.5577,-4.554,-4.5541,-4.5476,-4.54,-4.54,0.0,0.0,0.0,0.0,0.0,0.0,0.0,0.0,0.0,0.0,0.0,0.0,0.0,0.0,0.0,0.0,0.0,0.0,0.0,0.0,0.0,0.0,0.0,0.0,0.0,0.0,0.0,0.0,0.0,0.0,0.0,0.0,0.0,0.0,0.0,0.0,0.0,0.0,0.0,-4.4887,-4.4739,-4.4602,-4.4369,-4.418,0.0,0.0,0.0,0.0,0.0,0.0,0.0,0.0,0.0,-4.3394,-4.3394,-4.3649,-4.4124,-4.4159,-4.4397,-4.482,-4.4819,-4.4838,-4.482,-4.4838,-4.4838,-4.4802,-4.4838,-4.4582,-4.4072,-4.323,-4.2592,-4.214,0.0,0.0,0.0,0.0,-4.105,-4.0669,0.0,0.0,0.0,0.0,0.0,0.0,0.0,0.0,0.0,0.0,0.0,0.0,-4.5594,-4.5594,-4.5594,-4.5594,-4.5594,-4.5594,-4.5594,-4.5594,-4.5594,-4.5594,-4.5594,-4.5594,-4.5594,-4.5594,-4.571,-4.5932,-4.5932,-4.6028,-4.624,-4.624,-4.624,-4.624,-4.624,-4.5954,-4.5448,-4.5448,-4.5448,0.0,0.0,0.0,0.0,0.0,0.0,0.0,0.0,0.0,0.0,0.0,0.0,0.0,0.0,0.0,0.0,0.0,0.0,0.0,0.0,0.0,0.0,0.0,0.0,0.0,0.0,0.0,0.0,0.0,0.0,0.0,0.0,0.0,0.0,0.0,0.0,0.0,0.0,-4.4624,-4.4402,-4.4136,-4.3952,-4.3793,0.0,0.0,0.0,0.0,0.0,0.0,-4.3687,-4.3705,-4.3814,-4.4015,-4.4034,-4.4344,-4.5002,-4.5021,-4.5314,-4.5902,-4.5902,-4.5902,-4.5902,-4.5902,-4.5902,-4.5902,-4.5902,-4.5865,-4.5718,-4.4308,-4.3705,-4.3633,-4.336,-4.2849,-4.2303,-4.2303,-4.1885,-4.1375,0.0,0.0,0.0,0.0,0.0,0.0,0.0,0.0,0.0,0.0,0.0,-4.5594,-4.5594,-4.5594,-4.5594,-4.5594,-4.5594,-4.5594,-4.5594,-4.5594,-4.5594,-4.5594,-4.5594,-4.5594,-4.5594,-4.5594,-4.6009,-4.6827,-4.6827,-4.724,-4.7971,-4.7971,-4.7971,-4.7971,-4.7971,-4.7086,-4.5586,-4.5586,-4.5586,-4.5586,0.0,0.0,0.0,0.0,0.0,0.0,0.0,0.0,0.0,0.0,0.0,0.0,0.0,0.0,0.0,0.0,0.0,0.0,0.0,0.0,0.0,0.0,0.0,0.0,0.0,0.0,0.0,0.0,0.0,0.0,0.0,0.0,0.0,0.0,0.0,0.0,0.0,0.0,0.0,-4.4397,-4.4151,0.0,0.0,0.0,0.0,-4.3376,-4.3233,-4.3524,-4.4492,-4.4547,-4.4913,-4.5755,-4.5773,-4.581,-4.5847,-4.5847,-4.5865,-4.5902,-4.5902,-4.5902,-4.5902,-4.5902,-4.5902,-4.5902,-4.5902,-4.5902,-4.5828,-4.4966,-4.4528,-4.4291,-4.3633,-4.3304,-4.3123,-4.3069,-4.3014,-4.2959,0.0,0.0,0.0,0.0,0.0,0.0,0.0,0.0,-4.5594,-4.5594,-4.5594,-4.5594,-4.5594,-4.5594,-4.5594,-4.5594,-4.5594,-4.5594,-4.5594,-4.5594,-4.5594,-4.5594,-4.5594,-4.5855,-4.6413,-4.6932,-4.7355,-4.7682,-4.7682,-4.8105,-4.8933,-4.8933,-4.8933,-4.8933,-4.8933,-4.8298,-4.7163,-4.6663,-4.6432,-4.6394,-4.5799,-4.5513,0.0,0.0,0.0,0.0,0.0,0.0,0.0,0.0,0.0,0.0,0.0,0.0,0.0,0.0,0.0,0.0,0.0,0.0,0.0,0.0,0.0,0.0,0.0,0.0,0.0,0.0,0.0,0.0,0.0,0.0,0.0,0.0,0.0,0.0,0.0,0.0,0.0,-4.3823,-4.3716,0.0,-4.3666,-4.394,-4.4126,-4.4181,-4.4638,-4.5041,-4.5352,-4.5407,-4.5572,-4.5883,-4.6416,-4.6929,-4.7443,-4.7957,-4.8489,-4.9058,-4.9058,-4.9058,-4.9058,-4.9058,-4.9058,-4.9022,-4.8453,-4.8214,-4.8104,-4.6782,-4.5883,-4.5334,-4.5114,-4.4967,-4.4931,-4.4894,-4.4913,-4.4784,0.0,0.0,0.0,0.0,0.0,0.0,0.0,0.0,-4.5594,-4.5594,-4.5594,-4.5594,-4.5594,-4.5594,-4.5594,-4.5594,-4.5594,-4.5594,-4.5594,-4.5594,-4.5729,-4.6028,-4.6297,-4.6701,-4.7298,-4.8125,-4.8682,-4.8971,-4.926,-4.9837,-5.0683,-5.0683,-5.0683,-5.0683,-5.0683,-5.0356,-4.976,-4.8644,-4.7836,-4.724,-4.6374,-4.5964,-4.5851,0.0,0.0,0.0,0.0,0.0,0.0,0.0,0.0,0.0,0.0,0.0,0.0,0.0,0.0,0.0,0.0,0.0,0.0,0.0,0.0,0.0,0.0,0.0,0.0,0.0,0.0,0.0,0.0,0.0,0.0,0.0,0.0,0.0,0.0,-4.411,-4.3761,-4.3682,-4.3753,-4.3849,-4.3901,-4.4564,-4.5022,-4.5041,-4.5535,-4.6103,-4.6616,-4.669,-4.6966,-4.7535,-4.8086,-4.8599,-4.915,-4.9664,-5.0233,-5.0802,-5.0802,-5.0802,-5.0802,-5.0802,-5.0802,-5.0765,-5.0196,-4.9939,-4.9866,-4.8782,-4.8031,-4.7443,-4.6324,-4.5883,-4.5865,-4.581,-4.5791,-4.5662,0.0,0.0,0.0,0.0,0.0,0.0,0.0,-4.5594,-4.5594,-4.5594,-4.5594,-4.5594,-4.5594,-4.5594,-4.5594,-4.5594,-4.5594,-4.5614,-4.5633,-4.5633,-4.6028,-4.6904,-4.7721,-4.8144,-4.8182,-4.9029,-4.9913,-5.0789,-5.1568,-5.2385,-5.3241,-5.3241,-5.3241,-5.3241,-5.3241,-5.3241,-5.3087,-5.1471,-4.9798,-4.8182,-4.7288,-4.6896,-4.6733,0.0,0.0,0.0,0.0,0.0,0.0,0.0,0.0,0.0,0.0,0.0,0.0,0.0,0.0,0.0,0.0,0.0,0.0,0.0,0.0,0.0,0.0,0.0,0.0,0.0,0.0,0.0,0.0,0.0,0.0,0.0,0.0,0.0,-4.4788,-4.4578,-4.4312,-4.4055,-4.4457,-4.4745,-4.4745,-4.5425,-4.5901,-4.5975,-4.5956,-4.6671,-4.8287,-4.8379,-4.9132,-5.0747,-5.082,-5.0839,-5.0839,-5.0857,-5.0875,-5.0875,-5.0875,-5.0875,-5.0875,-5.0875,-5.0875,-5.0875,-5.0857,-5.0839,-5.0839,-5.082,-5.0802,-5.049,-4.726,-4.5975,-4.59,-4.5751,-4.5618,-4.5521,0.0,0.0,0.0,0.0,0.0,0.0,0.0,-4.5594,-4.5594,-4.5594,-4.5594,-4.5594,-4.5594,-4.5594,-4.5594,-4.5594,-4.5594,-4.5883,-4.6509,-4.6547,-4.6913,-4.774,-4.8586,0.0,-4.9971,-5.0798,-5.1645,-5.251,-5.2741,-5.3299,-5.4145,-5.4145,-5.4145,-5.4145,-5.4145,-5.3799,-5.3164,-5.2702,-5.2241,-5.1568,-4.8856,-4.777,-4.7636,0.0,0.0,0.0,0.0,0.0,0.0,0.0,0.0,0.0,0.0,0.0,0.0,0.0,0.0,0.0,0.0,0.0,0.0,0.0,0.0,0.0,0.0,0.0,0.0,0.0,0.0,0.0,0.0,0.0,0.0,0.0,-4.5544,-4.5451,-4.4627,-4.4784,-4.4859,-4.4551,-4.5129,-4.5571,-4.5571,-4.6819,-4.7607,-4.7568,-4.8725,-4.9586,-4.9948,-5.0065,-5.0325,-5.0784,-5.1371,-5.1665,-5.1665,-5.2252,-5.2546,-5.2546,-5.2546,-5.2546,-5.2546,-5.2546,-5.2546,-5.2527,-5.1922,-5.1665,-5.161,-5.1041,-5.0802,-5.0655,-4.915,-4.8581,-4.8469,-4.7789,-4.7164,-4.6574,0.0,0.0,0.0,0.0,0.0,0.0,0.0,-4.5594,-4.5594,-4.5594,-4.5594,-4.5594,-4.5594,-4.5594,-4.5594,-4.5594,-4.5594,-4.597,-4.6827,-4.7567,0.0,0.0,0.0,-5.0683,-5.1183,-5.2375,-5.3241,-5.3741,-5.4087,-5.4511,-5.4991,-5.4991,-5.4991,-5.4991,-5.4991,-5.4722,-5.4222,-5.3895,-5.3741,-5.3549,-5.1183,-4.9808,-4.9009,-4.777,-4.6991,-4.6536,-4.6037,-4.5604,-4.5307,-4.5307,0.0,0.0,0.0,0.0,0.0,0.0,0.0,0.0,0.0,0.0,0.0,0.0,0.0,0.0,0.0,0.0,0.0,0.0,0.0,0.0,0.0,0.0,0.0,0.0,-4.5981,-4.6007,-4.5693,-4.5675,-4.5616,-4.545,-4.6305,-4.6911,-4.6911,-4.8398,-4.9332,-4.9292,-5.023,-5.091,-5.1179,-5.1277,-5.1463,-5.1793,-5.227,-5.2509,-5.2509,-5.2968,-5.3185,-5.3185,-5.3185,-5.3185,-5.3185,-5.3185,-5.3185,-5.3167,-5.2711,-5.2509,-5.2472,-5.2013,-5.1811,-5.1701,0.0,0.0,0.0,0.0,-4.8821,-4.8322,0.0,0.0,0.0,0.0,0.0,0.0,0.0,-4.5594,-4.5594,-4.5594,-4.5594,-4.5594,-4.5594,-4.5594,-4.5594,-4.5594,-4.5594,-4.6009,-4.6971,0.0,0.0,-4.9529,-5.1068,-5.1942,-5.2038,-5.3664,-5.453,-5.4645,-5.5338,-5.5703,-5.5703,-5.5703,-5.5703,-5.5703,-5.5703,-5.5703,-5.5645,-5.4934,-5.4645,-5.4549,-5.3683,-5.2298,-5.0566,-4.8971,-4.7749,-4.6882,-4.6651,-4.6084,-4.5411,-4.5326,0.0,0.0,0.0,0.0,0.0,0.0,0.0,0.0,0.0,0.0,0.0,0.0,0.0,0.0,0.0,0.0,0.0,0.0,0.0,0.0,0.0,0.0,0.0,0.0,-4.6414,-4.6657,-4.7451,-4.712,-4.6776,-4.6684,-4.7721,-4.8489,-4.8581,-5.0013,-5.0949,-5.0949,-5.1022,-5.1389,-5.2087,-5.2142,0.0,0.0,0.0,-5.3185,-5.3185,-5.3185,-5.3185,-5.3185,-5.3185,-5.3185,-5.3185,-5.3185,-5.3185,-5.3185,-5.3185,-5.3185,-5.3185,-5.3185,-5.3185,-5.3059,-5.1536,-5.0815,-5.0602,-5.0411,-5.0326,-5.0213,0.0,0.0,0.0,0.0,0.0,0.0,0.0,-4.5594,-4.5594,-4.5594,-4.5594,-4.5594,-4.5594,-4.5594,-4.5594,-4.5594,-4.5594,-4.624,0.0,0.0,0.0,0.0,-5.1375,-5.2231,-5.2933,-5.3972,-5.4818,-5.5472,-5.5607,-5.5703,-5.5703,-5.5703,-5.5703,-5.5703,-5.5703,-5.5703,-5.5684,-5.553,-5.5472,-5.5395,-5.4587,-5.3192,-5.1518,-5.0457,-4.9475,-4.8505,-4.7051,-4.6415,-4.6175,-4.5507,-4.5307,-4.5307,-4.5307,0.0,0.0,0.0,0.0,0.0,0.0,0.0,0.0,0.0,0.0,0.0,0.0,0.0,0.0,0.0,0.0,0.0,0.0,0.0,0.0,-4.6175,-4.7277,-4.8211,-4.849,-4.8978,-4.9058,-4.8409,-4.8938,-4.9591,-5.0251,-5.1206,-5.1756,-5.1756,-5.238,-5.2803,-5.2968,-5.2968,-5.3041,-5.3185,-5.3185,-5.3185,-5.3185,-5.3185,-5.3185,-5.3185,-5.3185,0.0,-5.3185,-5.3185,-5.3185,-5.3185,-5.3185,-5.3185,-5.3185,-5.3185,-5.3185,-5.3093,-5.2142,-5.1371,-5.0743,-5.0602,-5.054,-5.0501,0.0,0.0,0.0,0.0,0.0,0.0,0.0,-4.5594,-4.5594,-4.5594,-4.5594,-4.5594,-4.5594,-4.5594,-4.5594,-4.5594,-4.599,-4.6605,0.0,-4.8682,0.0,0.0,0.0,-5.275,-5.3203,-5.4453,-5.5299,-5.5703,-5.5703,-5.5703,-5.5703,-5.5703,-5.5703,-5.5703,-5.5703,-5.5703,-5.5703,-5.5703,-5.5703,-5.5665,-5.5261,-5.4337,-5.3058,-5.1718,-5.0361,-4.9081,-4.8186,-4.728,-4.6443,-4.6042,-4.5621,-4.5307,-4.5307,-4.5307,-4.5307,0.0,0.0,0.0,0.0,0.0,0.0,0.0,0.0,0.0,0.0,0.0,0.0,0.0,0.0,-4.5908,-4.5908,0.0,-4.7258,-4.755,-4.8498,-4.9358,-4.9843,-5.0325,-5.0434,-4.988,-5.0388,-5.0949,-5.1353,-5.2123,-5.2601,-5.2601,-5.2986,-5.3185,-5.3185,-5.3185,-5.3185,-5.3185,-5.3185,-5.3185,-5.3185,-5.3185,-5.3185,-5.3185,-5.3185,-5.3185,-5.3185,-5.3185,-5.3185,-5.3185,-5.3185,-5.3185,-5.3185,-5.3185,-5.3185,-5.317,-5.2766,-5.2362,-5.1974,-5.1852,-5.1791,-5.1715,0.0,0.0,0.0,0.0,0.0,0.0,0.0,-4.5594,-4.5594,-4.5594,-4.5594,-4.5594,-4.5594,-4.5594,-4.5594,-4.5594,-4.624,0.0,0.0,0.0,0.0,0.0,0.0,0.0,0.0,-5.4684,-5.553,-5.5703,-5.5703,-5.5703,-5.5703,-5.5703,-5.5703,-5.5703,-5.5703,-5.5703,-5.5703,-5.5703,-5.5703,-5.5703,-5.5703,-5.5126,-5.4087,-5.2692,-5.1123,-4.9658,-4.9322,-4.8147,-4.6751,-4.6568,-4.5976,-4.5307,-4.5307,-4.5307,-4.5307,-4.5307,-4.5307,0.0,0.0,0.0,0.0,0.0,0.0,0.0,0.0,-4.5307,-4.5345,-4.5488,-4.6042,-4.6557,-4.6729,-4.7455,-4.8312,-4.9117,-4.9753,-5.0451,-5.1296,-5.1595,-5.1656,-5.1386,-5.1744,-5.205,-5.2215,-5.2821,-5.3185,-5.3185,-5.3185,-5.3185,-5.3185,-5.3185,-5.3185,-5.3185,-5.3185,-5.3185,-5.3185,-5.3185,-5.3185,-5.3185,-5.3185,-5.3185,-5.3185,-5.3185,-5.3185,-5.3185,-5.3185,-5.3185,-5.3185,-5.3185,-5.3185,-5.3185,-5.3185,-5.3185,-5.3185,-5.3042,-5.2999,-5.2886,0.0,0.0,0.0,0.0,0.0,0.0,0.0,0.0,-4.5594,-4.5594,-4.5594,-4.5594,-4.5594,-4.5594,-4.5594,-4.5594,0.0,0.0,0.0,0.0,0.0,0.0,0.0,0.0,0.0,0.0,0.0,-5.5703,-5.5703,-5.5703,-5.5703,-5.5703,-5.5703,-5.5703,-5.5703,-5.5703,-5.5703,-5.5703,-5.5703,-5.5703,-5.5703,-5.4741,-5.3318,-5.3126,-5.2412,-5.1303,-4.9764,-4.8571,-4.7637,-4.6842,-4.6007,-4.5307,-4.5307,-4.5307,-4.5307,-4.5307,0.0,-4.5307,-4.5307,-4.5307,-4.5307,-4.5307,-4.5307,-4.5307,0.0,-4.5307,-4.5488,-4.6214,-4.6443,-4.6748,-4.7502,-4.8372,-4.9124,-4.965,-5.0666,-5.175,-5.273,-5.3126,-5.3354,-5.3386,-5.257,-5.227,-5.3004,-5.3148,-5.3185,-5.3185,-5.3185,-5.3185,-5.3185,-5.3185,-5.3185,-5.3185,-5.3185,-5.3185,-5.3185,-5.3185,-5.3185,-5.3185,-5.3185,-5.3185,-5.3185,-5.3185,-5.3185,-5.3185,-5.3185,-5.3185,-5.3185,-5.3185,-5.3185,-5.3185,-5.3185,-5.3185,-5.3185,-5.3042,-5.2999,-5.2959,0.0,0.0,0.0,0.0,0.0,0.0,0.0,0.0,0.0,-4.5594,-4.5594,-4.5594,-4.5594,-4.5594,-4.5594,0.0,0.0,0.0,0.0,0.0,0.0,0.0,0.0,0.0,0.0,0.0,0.0,0.0,-5.5472,-5.5703,-5.5703,-5.5703,-5.5703,-5.5703,-5.5703,-5.5703,-5.5703,-5.5703,-5.5703,-5.5665,-5.5184,-5.4587,-5.3857,-5.2837,-5.2201,-5.169,-5.0398,-4.9375,0.0,0.0,-4.6732,-4.5927,-4.5449,-4.5307,-4.5307,-4.5307,-4.5307,0.0,-4.5307,-4.5307,-4.5307,-4.5307,-4.5307,-4.5411,-4.5889,-4.6003,-4.6233,-4.7092,-4.7665,-4.8124,-4.8487,-4.9232,-5.0038,-5.0729,-5.1503,-5.2332,-5.3259,-5.3751,-5.4021,-5.405,-5.3422,-5.3033,-5.3191,-5.3185,-5.3185,-5.3185,-5.3185,-5.3185,-5.3185,-5.3185,-5.3185,-5.3185,-5.3185,-5.3185,-5.3185,-5.3185,-5.3185,-5.3185,-5.3185,-5.3185,-5.3185,-5.3185,-5.3185,-5.3185,-5.3185,-5.3185,-5.3185,-5.3185,-5.3185,-5.3185,-5.3185,-5.3185,-5.3185,-5.3143,-5.3103,-5.3103,0.0,0.0,0.0,0.0,0.0,0.0,0.0,0.0,0.0,0.0,-4.5594,-4.5594,-4.5594,-4.5594,-4.5594,0.0,0.0,0.0,0.0,0.0,0.0,0.0,0.0,0.0,0.0,0.0,0.0,0.0,0.0,0.0,-5.5376,-5.5588,-5.5703,-5.5703,-5.5703,-5.5568,-5.5376,-5.5376,-5.5222,-5.4953,-5.4376,-5.3991,-5.3645,-5.2385,-5.1586,-5.1124,-5.0687,-4.978,0.0,0.0,-4.7084,-4.6061,-4.5468,-4.5307,-4.5307,-4.5307,-4.5449,-4.5583,-4.5364,-4.5449,-4.5621,-4.5621,-4.5621,-4.5851,-4.6672,-4.6863,-4.7111,-4.799,-4.8659,-4.9167,-4.9396,-5.0092,-5.0951,-5.1792,-5.2418,-5.31,-5.3955,-5.439,-5.4562,-5.4446,-5.4087,-5.3738,-5.3359,-5.3251,-5.3185,-5.3185,-5.3185,-5.3185,-5.3185,-5.3185,-5.3185,-5.3185,-5.3185,-5.3185,-5.3185,-5.3185,-5.3185,-5.3185,-5.3185,-5.3185,-5.3185,-5.3185,-5.3185,-5.3185,-5.3185,-5.3185,-5.3185,-5.3185,-5.3185,-5.3185,-5.3185,-5.3185,-5.3185,-5.3185,-5.3185,-5.3185,0.0,0.0,0.0,0.0,0.0,0.0,0.0,0.0,0.0,0.0,0.0,0.0,0.0,0.0,0.0,0.0,0.0,0.0,0.0,0.0,0.0,0.0,0.0,0.0,0.0,0.0,0.0,0.0,0.0,0.0,0.0,-5.5318,-5.5703,-5.5703,-5.5703,-5.5261,-5.453,-5.453,-5.4049,-5.328,-5.326,-5.2731,-5.1962,-5.1923,-5.0846,-4.9499,-5.0296,0.0,0.0,0.0,-4.6764,-4.5326,-4.5307,-4.5307,0.0,-4.5307,-4.5851,-4.629,-4.5507,-4.587,-4.6462,-4.6462,-4.6462,-4.6691,-4.7559,-4.775,-4.8009,-4.8869,-4.9091,-4.9328,-5.0111,-5.0971,-5.183,-5.2633,-5.3492,-5.4358,-5.5218,-5.5358,-5.5214,-5.4821,-5.4495,-5.4123,-5.372,-5.34,-5.3185,-5.3185,-5.3185,-5.3185,-5.3185,-5.3185,-5.3185,-5.3185,-5.3185,-5.3185,-5.3185,-5.3185,-5.3185,-5.3185,-5.3185,-5.3185,-5.3185,-5.3185,-5.3185,-5.3185,-5.3185,-5.3185,-5.3185,-5.3185,-5.3185,-5.3185,-5.3185,-5.3185,-5.3185,-5.3185,-5.3185,-5.3185,0.0,0.0,0.0,0.0,0.0,0.0,0.0,0.0,0.0,0.0,0.0,0.0,0.0,0.0,0.0,0.0,0.0,0.0,0.0,0.0,0.0,0.0,0.0,0.0,0.0,0.0,0.0,0.0,0.0,0.0,0.0,0.0,0.0,-5.4049,-5.4049,-5.3895,-5.3645,-5.3645,-5.3472,-5.3145,-5.2558,-5.1837,-5.1029,-5.0452,-4.9519,-4.8529,0.0,0.0,0.0,0.0,0.0,-4.6003,-4.5468,-4.5307,-4.5392,-4.5946,-4.629,-4.6577,-4.6882,-4.6729,-4.6653,-4.7215,-4.7349,-4.7589,-4.8468,-4.8659,-4.8888,-4.9729,-5.0359,-5.0837,-5.1123,-5.1849,-5.2671,-5.3511,-5.372,-5.4147,-5.5262,-5.5173,-5.4962,-5.4806,-5.4511,-5.4141,-5.3739,-5.34,-5.3185,-5.3185,-5.3185,-5.3185,-5.3185,-5.3185,-5.3185,-5.3185,-5.3185,-5.3185,-5.3185,-5.3185,-5.3185,-5.3185,-5.3185,-5.3185,-5.3185,-5.3185,-5.3185,-5.3185,-5.3185,-5.3185,-5.3185,-5.3185,-5.3185,-5.3185,-5.3185,-5.3185,-5.3185,-5.3185,-5.3185,-5.3185,0.0,0.0,0.0,0.0,0.0,0.0,0.0,0.0,0.0,0.0,0.0,0.0,0.0,0.0,0.0,0.0,0.0,0.0,0.0,0.0,0.0,0.0,0.0,0.0,0.0,0.0,0.0,0.0,0.0,0.0,0.0,0.0,0.0,0.0,-5.2741,-5.2587,-5.2299,-5.1972,-5.1837,-5.1779,-5.0885,-5.0414,-5.0144,-4.926,-4.8385,0.0,0.0,0.0,0.0,0.0,-4.6309,-4.5984,-4.5449,-4.5488,-4.5774,-4.6003,-4.671,-4.7417,-4.736,-4.7379,-4.7551,-4.8124,-4.8258,-4.8487,-4.9328,-4.9519,-4.9671,-5.0187,-5.076,-5.1142,-5.1142,-5.1811,-5.2652,-5.3492,-5.372,-5.4161,-5.5262,-5.5187,-5.5004,-5.5004,-5.4594,-5.4193,-5.3944,-5.3481,-5.3185,-5.3185,-5.3185,-5.3185,-5.3185,-5.3185,-5.3185,-5.3185,-5.3185,-5.3185,-5.3185,-5.3185,-5.3185,-5.3185,-5.3185,-5.3185,-5.3185,-5.3185,-5.3185,-5.3185,-5.3185,-5.3185,-5.3185,-5.3185,-5.3185,-5.3185,-5.3185,-5.3185,-5.3185,-5.3185,-5.3185,-5.3185,0.0,0.0,0.0,0.0,0.0,0.0,0.0,0.0,0.0,0.0,0.0,0.0,0.0,0.0,0.0,0.0,0.0,0.0,0.0,0.0,0.0,0.0,0.0,0.0,0.0,0.0,0.0,0.0,0.0,0.0,0.0,0.0,0.0,0.0,-5.1712,-5.1279,-5.0519,-4.9683,-4.9336,-4.926,-4.8432,-4.8567,-4.9183,-4.8355,0.0,0.0,0.0,0.0,0.0,0.0,-4.5927,-4.5307,-4.5307,-4.5851,-4.6347,-4.5583,-4.7103,-4.8678,-4.7073,-4.7837,-4.911,-4.9148,-4.9167,-4.9347,-5.013,-5.0302,-5.0302,-5.0302,-5.034,-5.0378,-5.0378,-5.1085,-5.1926,-5.2728,-5.355,-5.4409,-5.5288,-5.5403,-5.539,-5.5377,-5.4738,-5.4298,-5.4262,-5.3621,-5.3185,-5.3185,-5.3185,-5.3185,-5.3185,-5.3185,-5.3185,-5.3185,-5.3185,-5.3185,-5.3185,-5.3185,-5.3185,-5.3185,-5.3185,-5.3185,-5.3185,-5.3185,-5.3185,-5.3185,-5.3185,-5.3185,-5.3185,-5.3185,-5.3185,-5.3185,-5.3185,-5.3185,-5.3185,-5.3185,-5.3185,-5.3185,0.0,0.0,0.0,0.0,0.0,0.0,0.0,0.0,0.0,0.0,0.0,0.0,0.0,0.0,0.0,0.0,0.0,0.0,0.0,0.0,0.0,0.0,0.0,0.0,0.0,0.0,0.0,0.0,0.0,0.0,0.0,0.0,0.0,0.0,0.0,-4.8952,-4.8759,-4.8529,-4.8432,-4.8413,0.0,-4.7875,-4.7509,0.0,0.0,0.0,0.0,0.0,0.0,0.0,-4.5468,-4.5307,-4.5307,-4.5851,-4.6462,-4.6252,-4.7111,-4.8181,-4.8372,-4.8766,-4.9232,-4.9843,-4.9996,-5.0054,-5.0245,-5.0302,-5.0302,-5.0302,-5.0818,-5.1276,-5.1276,-5.1945,-5.2766,-5.3626,-5.3951,-5.4409,-5.5288,-5.5403,-5.5286,-5.499,-5.4578,-5.4176,-5.387,-5.3461,-5.3185,-5.3185,-5.3185,-5.3185,-5.3185,-5.3185,-5.3185,-5.3185,-5.3185,-5.3185,-5.3185,-5.3185,-5.3185,-5.3185,-5.3185,-5.3185,-5.3185,-5.3185,-5.3185,-5.3185,-5.3185,-5.3185,-5.3185,-5.3185,-5.3185,-5.3185,-5.3185,-5.3185,-5.3185,-5.3185,-5.3185,-5.3185,0.0,0.0,0.0,0.0,0.0,0.0,0.0,0.0,0.0,0.0,0.0,0.0,0.0,0.0,0.0,0.0,0.0,0.0,0.0,0.0,0.0,0.0,0.0,0.0,0.0,0.0,0.0,0.0,0.0,0.0,0.0,0.0,0.0,0.0,0.0,-4.7567,-4.7548,0.0,0.0,0.0,0.0,0.0,0.0,0.0,0.0,0.0,0.0,0.0,0.0,0.0,0.0,-4.5307,-4.5307,-4.5851,-4.6424,-4.608,-4.7111,-4.8391,-4.8506,-4.906,-4.9729,-5.0187,-5.0302,-5.0302,-5.0302,-5.0302,-5.0302,-5.0302,-5.0684,-5.1028,-5.1028,-5.141,-5.1983,-5.2862,-5.3301,-5.3836,-5.4715,-5.5154,-5.5319,-5.5099,-5.475,-5.4361,-5.4016,-5.3623,-5.3357,-5.3206,-5.3185,-5.3185,-5.3185,-5.3185,-5.3185,-5.3185,-5.3185,-5.3185,-5.3185,-5.3185,-5.3185,-5.3185,-5.3185,-5.3185,-5.3185,-5.3185,-5.3185,-5.3185,-5.3185,-5.3185,-5.3185,-5.3185,-5.3185,-5.3185,-5.3185,-5.3185,-5.3185,-5.3185,-5.3185,-5.3185,0.0,0.0,0.0,0.0,0.0,0.0,0.0,0.0,0.0,0.0,0.0,0.0,0.0,0.0,0.0,0.0,0.0,0.0,0.0,0.0,0.0,0.0,0.0,0.0,0.0,0.0,0.0,0.0,0.0,0.0,0.0,0.0,0.0,0.0,0.0,0.0,0.0,0.0,0.0,0.0,0.0,0.0,0.0,0.0,0.0,0.0,0.0,0.0,0.0,0.0,-4.5307,-4.5307,-4.5307,-4.5774,-4.6194,-4.5488,-4.7027,-4.8754,-4.8009,-4.9022,-5.0302,-5.0302,-5.0302,-5.0302,-5.0302,-5.0302,-5.0302,-5.0302,-5.0302,-5.0302,-5.0302,-5.0302,-5.0588,-5.1455,-5.2289,-5.3091,-5.397,-5.4849,-5.5403,-5.5403,-5.5052,-5.467,-5.433,-5.3944,-5.3545,-5.3227,-5.3185,-5.3185,-5.3185,-5.3185,-5.3185,-5.3185,-5.3185,-5.3185,-5.3185,-5.3185,-5.3185,-5.3185,-5.3185,-5.3185,-5.3185,-5.3185,-5.3185,-5.3185,-5.3185,-5.3185,-5.3185,-5.3185,-5.3185,-5.3185,-5.3185,-5.3185,-5.3185,-5.3185,-5.3185,-5.3185,0.0,0.0,0.0,0.0,0.0,0.0,0.0,0.0,0.0,0.0,0.0,0.0,0.0,0.0,0.0,0.0,0.0,0.0,0.0,0.0,0.0,0.0,0.0,0.0,0.0,0.0,0.0,0.0,0.0,0.0,0.0,0.0,0.0,0.0,0.0,0.0,0.0,0.0,0.0,0.0,0.0,0.0,0.0,0.0,0.0,0.0,0.0,0.0,0.0,0.0,-4.5338,-4.5307,-4.5307,-4.5403,-4.5468,-4.5345,-4.6596,-4.7979,-4.7845,-4.9022,-5.0302,-5.0302,-5.0302,-5.0302,-5.0302,-5.0302,-5.0302,-5.0302,-5.0302,-5.0302,-5.0302,-5.0302,-5.0588,-5.1455,-5.2289,-5.3091,-5.397,-5.4849,-5.5403,-5.5403,-5.5052,-5.467,-5.433,-5.3944,-5.3545,-5.3227,-5.3185,-5.3185,-5.3185,-5.3185,-5.3185,-5.3185,-5.3185,-5.3185,-5.3185,-5.3185,-5.3185,-5.3185,-5.3185,-5.3185,-5.3185,-5.3185,-5.3185,-5.3185,-5.3185,-5.3185,-5.3185,-5.3185,-5.3185,-5.3185,-5.3185,-5.3185,-5.3185,-5.3185,-5.3185,-5.3185,0.0,0.0,0.0,0.0,0.0,0.0,0.0,0.0,0.0,0.0,-4.3933,0.0,0.0,0.0,0.0,0.0,0.0,0.0,0.0,0.0,0.0,0.0,0.0,0.0,0.0,0.0,0.0,0.0,0.0,0.0,0.0,0.0,0.0,0.0,0.0,0.0,0.0,0.0,0.0,0.0,0.0,0.0,0.0,0.0,0.0,0.0,0.0,0.0,0.0,0.0,-4.5367,-4.5307,-4.5307,-4.5307,-4.5307,-4.5307,-4.6175,-4.7131,-4.7131,-4.8372,-4.9671,-4.9671,-4.9996,-5.0187,-4.9767,-4.9671,-4.9557,-4.9098,-4.9003,-4.9003,-4.9003,-4.9366,-4.9805,-5.0225,-5.1353,-5.2461,-5.3301,-5.418,-5.4887,-5.5345,-5.5214,-5.4889,-5.4347,-5.4123,-5.3795,-5.3248,-5.3185,-5.3185,-5.3185,-5.3185,-5.3185,-5.3185,-5.3185,-5.3185,-5.3185,-5.3185,-5.3185,-5.3185,-5.3185,-5.3185,-5.3185,-5.3185,-5.3185,-5.3185,-5.3185,-5.3185,-5.3185,-5.3185,-5.3185,-5.3185,-5.3185,-5.3185,-5.3185,-5.3185,-5.3185,-5.3185,0.0,0.0,0.0,0.0,0.0,0.0,0.0,0.0,-4.3949,-4.3763,-4.3188,-4.2851,-4.2975,-4.3327,0.0,0.0,0.0,0.0,0.0,0.0,0.0,0.0,0.0,0.0,0.0,0.0,0.0,-4.5056,0.0,0.0,0.0,0.0,0.0,0.0,0.0,0.0,0.0,0.0,0.0,0.0,0.0,0.0,0.0,0.0,0.0,0.0,0.0,0.0,0.0,0.0,-4.5359,-4.5307,-4.5307,-4.5307,-4.5307,-4.5307,-4.587,-4.65,-4.65,-4.7646,-4.8812,-4.8812,-4.9308,-4.9595,-4.8965,-4.8812,-4.8621,-4.7941,-4.7788,-4.7788,-4.7788,-4.8353,-4.8869,-4.9071,-5.034,-5.1677,-5.2652,-5.355,-5.4428,-5.5307,-5.5403,-5.5118,-5.4382,-5.4315,-5.3999,-5.3269,-5.3185,-5.3185,-5.3185,-5.3185,-5.3185,-5.3185,-5.3185,-5.3185,-5.3185,-5.3185,-5.3185,-5.3185,-5.3185,-5.3185,-5.3185,-5.3185,-5.3185,-5.3185,-5.3185,-5.3185,-5.3185,-5.3185,-5.3185,-5.3185,-5.3185,-5.3185,-5.3185,-5.3185,-5.3185,-5.3185,0.0,0.0,0.0,0.0,0.0,0.0,0.0,0.0,-4.3745,-4.3002,-4.2853,-4.2336,-4.1098,-4.186,0.0,0.0,0.0,0.0,0.0,0.0,0.0,0.0,0.0,0.0,0.0,0.0,0.0,-4.3335,-4.3335,0.0,0.0,0.0,0.0,0.0,0.0,-4.3297,0.0,0.0,0.0,0.0,0.0,0.0,0.0,0.0,0.0,0.0,0.0,0.0,0.0,0.0,0.0,-4.5307,-4.5307,-4.5307,-4.5307,-4.5307,-4.587,-4.65,-4.65,-4.7177,-4.7922,-4.7922,-4.7979,-4.7998,-4.7941,-4.7922,-4.7903,-4.7807,-4.7788,-4.7788,-4.7788,-4.7865,-4.8181,-4.8976,0.0,-5.099,-5.2575,-5.355,-5.4428,-5.5307,-5.5403,-5.5118,-5.4382,-5.4315,-5.3999,-5.3269,-5.3185,-5.3185,-5.3185,-5.3185,-5.3185,-5.3185,-5.3185,-5.3185,-5.3185,-5.3185,-5.3185,-5.3185,-5.3185,-5.3185,-5.3185,-5.3185,-5.3185,-5.3185,-5.3185,-5.3185,-5.3185,-5.3185,-5.3185,-5.3185,-5.3185,-5.3185,-5.3185,-5.3185,-5.3185,-5.3185,0.0,0.0,0.0,0.0,0.0,0.0,0.0,-4.4005,-4.3708,-4.2909,-4.237,-4.1725,-4.0796,-4.0767,0.0,0.0,0.0,0.0,0.0,0.0,0.0,0.0,0.0,0.0,0.0,0.0,-4.2566,-4.3104,-4.3104,0.0,0.0,0.0,0.0,0.0,0.0,-4.2816,-4.2316,0.0,0.0,0.0,0.0,0.0,0.0,0.0,0.0,0.0,0.0,0.0,-4.5448,0.0,0.0,0.0,-4.5309,-4.5328,0.0,0.0,-4.5526,-4.5774,-4.5774,-4.6385,-4.7016,-4.7016,-4.7406,-4.7654,-4.7139,-4.7016,-4.6882,-4.6405,-4.629,-4.629,-4.629,-4.6691,-4.7302,-4.8181,0.0,0.0,-5.1849,-5.2785,-5.3645,-5.4505,-5.5078,-5.5187,-5.4654,-5.4607,-5.4294,-5.3563,-5.3316,-5.3185,-5.3185,-5.3185,-5.3185,-5.3185,-5.3185,-5.3185,-5.3185,-5.3185,-5.3185,-5.3185,-5.3185,-5.3185,-5.3185,-5.3185,-5.3185,-5.3185,-5.3185,-5.3185,-5.3185,-5.3185,-5.3185,-5.3185,-5.3185,-5.3185,-5.3185,-5.3185,-5.3185,-5.3185,0.0,0.0,0.0,0.0,0.0,0.0,-4.4005,-4.3801,-4.3385,-4.2638,-4.1779,-4.1068,-4.0594,-4.0102,-3.9924,-4.0269,0.0,0.0,0.0,0.0,0.0,0.0,0.0,0.0,0.0,0.0,-4.172,-4.2335,-4.2335,-4.2335,0.0,0.0,-4.2335,-4.2335,0.0,0.0,0.0,0.0,0.0,0.0,0.0,0.0,0.0,0.0,0.0,0.0,0.0,0.0,0.0,0.0,0.0,0.0,0.0,0.0,0.0,0.0,-4.5307,-4.5307,-4.5307,-4.5698,-4.6156,-4.6156,-4.6615,-4.6901,-4.629,-4.6156,-4.5984,-4.5411,-4.5307,-4.5307,-4.5307,-4.5755,-4.6519,0.0,0.0,-4.9385,-5.1322,-5.2289,-5.311,-5.4008,-5.4868,-5.5246,-5.484,-5.4604,-5.4259,-5.3739,-5.338,-5.3185,-5.3185,-5.3185,-5.3185,-5.3185,-5.3185,-5.3185,-5.3185,-5.3185,-5.3185,-5.3185,-5.3185,-5.3185,-5.3185,-5.3185,-5.3185,-5.3185,-5.3185,-5.3185,-5.3185,-5.3185,-5.3185,-5.3185,-5.3185,-5.3185,-5.3185,-5.3185,-5.3185,-5.3185,0.0,0.0,0.0,0.0,0.0,0.0,0.0,-4.3318,-4.2604,-4.1989,-4.1031,-4.0356,-4.0225,-3.9953,-3.9984,-4.0465,0.0,0.0,0.0,0.0,0.0,0.0,0.0,0.0,0.0,0.0,0.0,-4.0535,-4.0535,-4.0535,-4.0535,-4.0535,-4.0535,-4.0535,0.0,0.0,0.0,0.0,0.0,0.0,0.0,0.0,0.0,0.0,0.0,0.0,0.0,0.0,0.0,0.0,0.0,0.0,0.0,0.0,0.0,0.0,-4.5307,-4.5307,-4.5307,-4.5307,-4.5307,-4.5307,-4.5326,-4.5326,-4.5307,-4.5307,-4.5307,-4.5307,-4.5307,-4.5307,-4.5307,-4.5307,-4.5851,-4.7521,0.0,0.0,-5.1238,-5.2289,-5.311,-5.4008,-5.4868,-5.5246,-5.484,-5.4138,-5.372,-5.3701,-5.338,-5.3185,-5.3185,-5.3185,-5.3185,-5.3185,-5.3185,-5.3185,-5.3185,-5.3185,-5.3185,-5.3185,-5.3185,-5.3185,-5.3185,-5.3185,-5.3185,-5.3185,-5.3185,-5.3185,-5.3185,-5.3185,-5.3185,-5.3185,-5.3185,-5.3185,-5.3185,-5.3185,-5.3185,-5.3185,0.0,0.0,0.0,0.0,0.0,0.0,0.0,0.0,-4.2326,-4.1031,-4.0602,-4.0272,-3.9965,-3.9851,-3.9984,-4.0465,0.0,0.0,0.0,0.0,0.0,0.0,0.0,0.0,0.0,0.0,0.0,-4.0496,-4.0496,-4.0496,-4.0496,-4.0496,-4.0496,-4.0496,-4.0496,-4.0496,0.0,0.0,0.0,0.0,0.0,0.0,0.0,0.0,0.0,0.0,0.0,0.0,0.0,0.0,0.0,0.0,0.0,0.0,0.0,-4.5309,-4.5307,-4.5307,-4.5307,-4.5307,-4.5307,-4.5307,-4.5307,-4.5307,-4.5307,-4.5307,-4.5307,-4.5307,-4.5307,-4.5307,-4.5307,-4.5307,-4.5851,-4.7521,0.0,0.0,0.0,-5.1926,-5.29,-5.3168,-5.4505,-5.5345,-5.5214,-5.4528,-5.4105,-5.4105,-5.3542,-5.3185,-5.3185,-5.3185,-5.3185,-5.3185,-5.3185,-5.3185,-5.3185,-5.3185,-5.3185,-5.3185,-5.3185,-5.3185,-5.3185,-5.3185,-5.3185,-5.3185,-5.3185,-5.3185,-5.3185,-5.3185,-5.3185,-5.3185,-5.3185,-5.3185,-5.3185,-5.3185,-5.3185,-5.3185,0.0,0.0,0.0,0.0,0.0,0.0,0.0,0.0,-4.1913,-4.0668,-4.0156,-3.9917,-3.9948,-3.9851,-3.9984,-4.0465,0.0,0.0,0.0,0.0,0.0,0.0,0.0,0.0,0.0,0.0,-4.0496,-4.0496,-4.0496,-4.0496,-4.0496,-4.0496,-4.0496,-4.0496,-4.0496,-4.0496,0.0,0.0,0.0,0.0,0.0,0.0,-4.0554,0.0,0.0,0.0,0.0,0.0,0.0,0.0,0.0,0.0,0.0,0.0,0.0,0.0,-4.5317,-4.5307,-4.5307,-4.5307,-4.5307,-4.5307,-4.5307,-4.5307,-4.5307,0.0,0.0,0.0,0.0,0.0,0.0,-4.5307,-4.5851,-4.7521,-4.7788,0.0,-5.0054,-5.1735,-5.3034,-5.3702,-5.4734,-5.5403,-5.5403,-5.4844,-5.4495,-5.4495,-5.3814,-5.338,-5.338,-5.3272,-5.3185,-5.3185,-5.3185,-5.3185,-5.3185,-5.3185,-5.3185,-5.3185,-5.3185,-5.3185,-5.3185,-5.3185,-5.3185,-5.3185,-5.3185,-5.3185,0.0,-5.3185,-5.3185,-5.3185,-5.3185,-5.3185,-5.3185,-5.3185,-5.3185,-5.3185,0.0,0.0,0.0,0.0,0.0,0.0,0.0,0.0,0.0,0.0,0.0,-3.9402,-4.012,-3.9973,0.0,0.0,0.0,0.0,0.0,0.0,0.0,0.0,0.0,0.0,0.0,-4.0496,-4.0496,-4.0496,-4.0496,-4.0496,-4.0496,-4.0496,-4.0496,-4.0496,-4.0496,0.0,0.0,0.0,0.0,0.0,-4.0496,-4.0496,0.0,0.0,0.0,0.0,0.0,0.0,0.0,0.0,0.0,0.0,0.0,0.0,0.0,0.0,0.0,0.0,0.0,-4.5307,-4.5307,-4.5307,-4.5307,-4.5307,-4.5307,0.0,0.0,0.0,0.0,0.0,0.0,0.0,0.0,-4.7521,-4.7788,-4.838,-5.0054,-5.1735,-5.3454,-5.5193,-5.5403,-5.5403,-5.5403,-5.5038,-5.4791,-5.4791,-5.4121,-5.3701,-5.3701,-5.338,-5.3185,-5.3185,-5.3185,-5.3185,-5.3185,-5.3185,-5.3185,-5.3185,-5.3185,-5.3185,-5.3185,-5.3185,-5.3185,-5.3185,-5.3185,-5.3185,-5.3185,-5.3185,-5.3185,-5.3185,-5.3185,-5.3185,-5.3185,-5.3185,-5.3185,-5.3185,0.0,0.0,0.0,0.0,0.0,0.0,0.0,0.0,0.0,0.0,0.0,-3.9597,-4.0139,-4.0139,0.0,0.0,0.0,0.0,0.0,0.0,0.0,0.0,0.0,0.0,0.0,-4.0496,-4.0496,-4.0496,-4.0496,-4.0496,-4.0496,-4.0496,-4.0496,-4.0496,-4.0496,0.0,0.0,0.0,0.0,0.0,-4.0496,-4.0496,0.0,0.0,0.0,0.0,-4.1797,-4.2662,0.0,0.0,0.0,0.0,0.0,0.0,0.0,0.0,-4.5398,-4.5378,-4.5317,0.0,-4.5307,-4.5307,-4.5307,-4.5307,0.0,0.0,0.0,0.0,0.0,0.0,0.0,0.0,0.0,-4.7521,-4.7788,-4.838,-5.0054,-5.1735,-5.3454,-5.5193,-5.5403,-5.5403,-5.5403,-5.5038,-5.4791,-5.4791,-5.4121,-5.3701,-5.3701,-5.338,-5.3185,-5.3185,-5.3185,-5.3185,-5.3185,-5.3185,-5.3185,-5.3185,-5.3185,-5.3185,-5.3185,-5.3185,-5.3185,-5.3185,-5.3185,-5.3185,-5.3185,-5.3185,-5.3185,-5.3185,-5.3185,-5.3185,-5.3185,-5.3185,-5.3185,-5.3185,0.0,0.0,0.0,0.0,0.0,0.0,0.0,0.0,0.0,0.0,0.0,0.0,0.0,0.0,0.0,0.0,0.0,0.0,0.0,0.0,0.0,0.0,0.0,0.0,0.0,-4.0496,-4.0496,-4.0496,-4.0496,-4.0496,-4.0496,-4.0496,-4.0496,-4.0496,-4.0496,0.0,0.0,0.0,0.0,-4.0496,-4.0496,0.0,0.0,0.0,0.0,0.0,-4.1489,-4.2104,0.0,-4.3887,-4.4607,-4.5066,0.0,0.0,0.0,0.0,-4.5409,-4.5292,-4.484,-4.4991,-4.5201,-4.48,-4.4704,-4.4609,-4.4246,0.0,0.0,0.0,0.0,0.0,0.0,0.0,0.0,-4.7578,-4.8143,-4.9117,-5.1162,-5.2231,-5.3454,-5.5193,-5.5403,-5.5403,-5.5403,-5.52,-5.5085,-5.5085,-5.4525,-5.4139,-5.398,-5.3641,-5.3357,-5.3206,-5.3185,-5.3185,-5.3185,-5.3185,-5.3185,-5.3185,-5.3185,-5.3185,-5.3185,-5.3185,-5.3185,-5.3185,-5.3185,-5.3185,-5.3185,-5.3185,-5.3185,-5.3185,-5.3185,-5.3185,-5.3185,-5.3185,-5.3185,-5.3185,0.0,0.0,0.0,0.0,0.0,0.0,0.0,0.0,0.0,0.0,0.0,0.0,0.0,0.0,0.0,0.0,0.0,0.0,0.0,0.0,0.0,0.0,0.0,0.0,0.0,-4.0496,-4.0496,-4.0496,-4.0496,-4.0496,-4.0496,-4.0496,-4.0496,-4.0496,-4.0496,0.0,0.0,0.0,-4.0496,-4.0496,-4.0496,0.0,0.0,0.0,0.0,0.0,0.0,0.0,0.0,-4.3431,-4.4008,-4.4239,-4.4998,0.0,0.0,0.0,0.0,0.0,-4.4046,-4.436,-4.4734,-4.3997,-4.3815,-4.3663,-4.3119,0.0,0.0,0.0,0.0,0.0,0.0,-4.6042,0.0,-4.7837,-4.8716,-5.0122,-5.2461,-5.2805,-5.3454,-5.5193,-5.5403,-5.5403,-5.5403,-5.5403,-5.5403,-5.5403,-5.5038,-5.4654,-5.4332,-5.3925,-5.3563,-5.3206,-5.3185,-5.3185,-5.3185,-5.3185,-5.3185,-5.3185,-5.3185,-5.3185,-5.3185,-5.3185,-5.3185,-5.3185,-5.3185,0.0,-5.3185,-5.3185,-5.3185,-5.3185,-5.3185,-5.3185,-5.3185,-5.3185,-5.3185,-5.3185,0.0,0.0,0.0,0.0,0.0,0.0,0.0,0.0,0.0,0.0,0.0,0.0,0.0,0.0,0.0,0.0,0.0,0.0,0.0,0.0,0.0,0.0,0.0,0.0,0.0,0.0,0.0,0.0,0.0,0.0,-4.0496,-4.0496,-4.0496,-4.0496,-4.0496,-4.0496,-4.0496,-4.0496,-4.0496,-4.0496,-4.0496,0.0,0.0,0.0,0.0,0.0,0.0,0.0,0.0,-4.2096,-4.2681,-4.3316,-4.3431,0.0,0.0,0.0,0.0,0.0,-4.3034,-4.3072,-4.3159,-4.3014,-4.2985,-4.3138,0.0,0.0,0.0,0.0,0.0,0.0,0.0,-4.6424,-4.7035,-4.864,-4.9576,-5.0741,-5.2537,-5.2805,-5.3454,-5.5193,-5.5403,-5.5403,-5.5403,-5.5403,-5.5403,-5.5403,-5.5038,-5.4654,-5.4332,-5.3925,-5.3563,-5.3206,-5.3185,-5.3185,-5.3185,-5.3185,-5.3185,-5.3185,-5.3185,-5.3185,-5.3185,-5.3185,-5.3185,-5.3185,-5.3185,-5.3185,-5.3185,-5.3185,-5.3185,-5.3185,-5.3185,-5.3185,-5.3185,-5.3185,-5.3185,-5.3185,0.0,0.0,0.0,0.0,0.0,0.0,0.0,0.0,0.0,0.0,0.0,0.0,0.0,0.0,0.0,0.0,0.0,0.0,0.0,0.0,0.0,0.0,0.0,0.0,0.0,0.0,0.0,0.0,0.0,-4.0496,-4.0496,-4.0496,-4.0496,-4.0496,0.0,-4.0496,-4.0496,-4.0496,-4.0496,-4.0496,0.0,0.0,0.0,0.0,0.0,0.0,0.0,0.0,0.0,0.0,-4.2066,-4.2489,-4.2951,0.0,0.0,0.0,0.0,0.0,-4.2279,-4.2126,-4.2097,-4.2097,-4.245,-4.2776,0.0,0.0,0.0,0.0,0.0,0.0,0.0,0.0,-4.7761,-4.9461,-5.0054,-5.0894,-5.2556,-5.2805,-5.3454,-5.5193,-5.5403,-5.5403,-5.5403,-5.5403,-5.5403,-5.5403,-5.5038,-5.4731,-5.4576,-5.4015,-5.3642,-5.3482,-5.3274,-5.3185,-5.3185,-5.3185,-5.3185,-5.3185,-5.3185,-5.3185,-5.3185,-5.3185,-5.3185,-5.3185,0.0,-5.3185,-5.3185,-5.3185,-5.3185,-5.3185,-5.3185,-5.3185,-5.3185,-5.3185,-5.3185,-5.3185,0.0,0.0,0.0,0.0,0.0,0.0,0.0,0.0,0.0,0.0,0.0,0.0,0.0,0.0,0.0,0.0,0.0,0.0,0.0,0.0,0.0,0.0,0.0,0.0,0.0,0.0,-4.0496,-4.0496,-4.0496,-4.0496,-4.0496,-4.0496,-4.0496,-4.0496,0.0,-4.0496,-4.0496,-4.0496,-4.0496,-4.0496,0.0,0.0,0.0,0.0,0.0,0.0,0.0,0.0,0.0,0.0,0.0,0.0,0.0,0.0,0.0,-4.2431,-4.2368,-4.217,-4.1484,-4.1255,-4.1265,-4.1457,0.0,0.0,0.0,0.0,0.0,0.0,0.0,0.0,0.0,-4.7674,-4.8812,-5.0092,-5.0302,-5.0894,-5.2556,-5.2805,-5.3454,-5.5193,-5.5403,-5.5403,-5.5403,-5.5403,-5.5358,-5.5273,-5.4976,-5.4712,-5.4557,-5.4015,-5.3662,-5.3584,-5.3336,-5.3185,-5.3185,-5.3185,-5.3185,-5.3185,-5.3185,-5.3185,-5.3185,-5.3185,-5.3185,-5.3185,-5.3185,-5.3185,-5.3185,-5.3185,-5.3185,-5.3185,-5.3185,-5.3185,-5.3185,-5.3185,-5.3185,-5.3185,0.0,0.0,0.0,0.0,0.0,0.0,0.0,0.0,0.0,0.0,0.0,0.0,0.0,0.0,0.0,0.0,0.0,0.0,0.0,0.0,0.0,0.0,0.0,0.0,0.0,-4.0496,-4.0496,-4.0496,-4.0496,-4.0496,-4.0496,-4.0496,-4.0496,-4.0496,0.0,-4.0496,-4.0496,-4.0496,-4.0496,-4.0496,-4.0496,0.0,0.0,0.0,0.0,0.0,0.0,0.0,0.0,0.0,0.0,0.0,0.0,0.0,-4.07,-4.0691,-4.0622,-4.0551,-4.0431,-4.0384,-4.0575,-4.1379,0.0,0.0,0.0,0.0,0.0,-4.5029,0.0,0.0,0.0,-4.9041,-5.0168,-5.0283,-5.0302,-5.0894,-5.2556,-5.2805,-5.3454,-5.5193,-5.5403,-5.5403,-5.5403,-5.5403,-5.5246,-5.487,-5.4806,-5.4509,-5.3814,-5.3739,-5.3563,-5.3248,-5.3206,-5.3185,-5.3185,-5.3185,-5.3185,-5.3185,-5.3185,-5.3185,-5.3185,-5.3185,-5.3185,-5.3185,-5.3185,-5.3185,-5.3185,-5.3185,-5.3185,-5.3185,-5.3185,-5.3185,-5.3185,-5.3185,-5.3185,-5.3185,0.0,0.0,0.0,0.0,0.0,0.0,0.0,0.0,0.0,0.0,0.0,0.0,0.0,0.0,0.0,0.0,0.0,0.0,0.0,0.0,0.0,0.0,0.0,-4.0496,-4.0496,-4.0496,-4.0496,-4.0496,-4.0496,-4.0496,-4.0496,-4.0496,0.0,0.0,0.0,-4.0496,-4.0496,-4.0496,-4.0496,-4.0496,-4.0496,-4.0496,0.0,0.0,0.0,0.0,0.0,0.0,0.0,0.0,-4.0496,-4.0496,0.0,0.0,0.0,0.0,-4.0455,-4.0388,-4.037,-4.0325,-4.0632,-4.1991,0.0,0.0,0.0,0.0,-4.5048,-4.5889,-4.629,0.0,0.0,-4.9538,-5.0302,-5.0302,-5.076,-5.1505,-5.2633,-5.3263,-5.4046,-5.5269,-5.5403,-5.5403,-5.5403,-5.5403,-5.5227,-5.4821,-5.4607,-5.438,-5.4088,-5.3641,-5.344,-5.3504,-5.3295,-5.3185,-5.3185,-5.3185,-5.3185,-5.3185,-5.3185,-5.3185,-5.3185,-5.3185,-5.3185,-5.3185,-5.3185,-5.3185,-5.3185,-5.3185,-5.3185,-5.3185,-5.3185,-5.3185,-5.3185,-5.3185,-5.3185,-5.3185,0.0,0.0,0.0,0.0,0.0,0.0,0.0,0.0,0.0,0.0,0.0,0.0,0.0,0.0,0.0,0.0,0.0,0.0,0.0,0.0,0.0,0.0,0.0,-4.0496,-4.0496,-4.0496,-4.0496,-4.0496,-4.0496,-4.0496,-4.0496,0.0,0.0,0.0,0.0,-4.0496,-4.0496,-4.0496,-4.0496,-4.0496,-4.0496,-4.0496,0.0,0.0,0.0,0.0,0.0,0.0,0.0,0.0,-4.0496,-4.0496,0.0,0.0,0.0,0.0,-4.0479,-4.0432,-4.0432,-4.0571,-4.1081,0.0,0.0,0.0,0.0,0.0,-4.5526,-4.6328,-4.694,-4.7761,-4.9213,-4.992,-5.0302,-5.0302,-5.1028,-5.1888,-5.269,-5.355,-5.4428,-5.5307,-5.5403,-5.5403,-5.5403,-5.5403,-5.5227,-5.4821,-5.4495,-5.4228,-5.4123,-5.3522,-5.3314,-5.3543,-5.3316,-5.3185,-5.3185,-5.3185,-5.3185,-5.3185,-5.3185,-5.3185,-5.3185,-5.3185,-5.3185,-5.3185,-5.3185,-5.3185,-5.3185,-5.3185,-5.3185,-5.3185,-5.3185,-5.3185,-5.3185,-5.3185,-5.3185,-5.3185,0.0,0.0,0.0,0.0,0.0,0.0,0.0,0.0,0.0,0.0,0.0,0.0,0.0,0.0,0.0,0.0,0.0,0.0,0.0,0.0,0.0,0.0,0.0,-4.0496,-4.0496,-4.0496,-4.0496,-4.0496,-4.0496,-4.0496,-4.0496,-4.0496,0.0,0.0,0.0,-4.0496,-4.0496,-4.0496,-4.0496,-4.0496,-4.0496,-4.0496,-4.0496,0.0,0.0,0.0,0.0,0.0,0.0,0.0,-4.0496,-4.0496,0.0,0.0,0.0,0.0,-4.0503,-4.0502,-4.0502,-4.1082,-4.1909,0.0,0.0,0.0,0.0,0.0,-4.5545,-4.6366,-4.7895,-4.9358,-5.0149,-5.0302,-5.0302,-5.0302,-5.1028,-5.1888,-5.269,-5.355,-5.4428,-5.5307,-5.5403,-5.5403,-5.5403,-5.5403,-5.5227,-5.4821,-5.4495,-5.4123,-5.372,-5.338,-5.3206,-5.3185,-5.3185,-5.3185,-5.3185,-5.3185,-5.3185,-5.3185,-5.3185,-5.3185,-5.3185,-5.3185,-5.3185,-5.3185,-5.3185,-5.3185,-5.3185,-5.3185,-5.3185,-5.3185,-5.3185,-5.3185,-5.3185,-5.3185,-5.3185,-5.3185,0.0,0.0,0.0,0.0,0.0,0.0,0.0,0.0,0.0,0.0,0.0,0.0,0.0,0.0,0.0,0.0,0.0,0.0,0.0,0.0,0.0,0.0,0.0,0.0,0.0,0.0,-4.0496,-4.0496,-4.0496,-4.0496,0.0,0.0,0.0,-4.0496,0.0,0.0,-4.0496,-4.0496,-4.0496,-4.0496,-4.0496,-4.0564,-4.0622,0.0,0.0,0.0,0.0,0.0,0.0,0.0,0.0,0.0,0.0,0.0,0.0,-4.0496,-4.0503,-4.0493,-4.0441,-4.1044,0.0,-4.2713,0.0,0.0,0.0,0.0,0.0,0.0,-4.9194,-5.0015,-5.0264,-5.0302,-5.0302,-5.0302,-5.1028,-5.1888,-5.269,-5.355,-5.4428,-5.5307,-5.5403,-5.5403,-5.5403,-5.5403,-5.5227,-5.4821,-5.4716,-5.4378,-5.372,-5.3603,-5.3442,-5.3206,-5.3185,-5.3185,-5.3185,-5.3185,-5.3185,-5.3185,-5.3185,-5.3185,-5.3185,-5.3185,-5.3185,-5.3185,-5.3185,-5.3185,-5.3185,-5.3185,-5.3185,-5.3185,-5.3185,-5.3185,-5.3185,-5.3185,-5.3185,-5.3185,0.0,0.0,0.0,0.0,0.0,0.0,0.0,0.0,0.0,0.0,-4.0321,-4.0364,0.0,0.0,0.0,0.0,0.0,0.0,0.0,0.0,0.0,0.0,0.0,0.0,0.0,-4.0496,-4.0496,0.0,0.0,0.0,0.0,0.0,0.0,-4.0496,0.0,-4.0496,-4.0496,-4.0496,-4.0496,-4.0496,-4.0496,-4.0574,-4.0681,0.0,0.0,0.0,0.0,0.0,0.0,0.0,0.0,0.0,0.0,0.0,0.0,-4.0496,-4.0492,-4.0487,-4.0455,-4.1336,0.0,-4.2864,-4.3901,-4.4958,-4.5716,0.0,0.0,0.0,-4.95,-5.0302,-5.0302,-5.0302,-5.0302,-5.0302,-5.1028,-5.1773,-5.227,-5.3053,-5.3913,-5.4791,-5.4887,-5.5021,-5.5365,-5.5403,-5.5305,-5.5052,-5.4884,-5.4604,-5.4156,-5.4015,-5.3758,-5.342,-5.34,-5.3336,-5.3185,-5.3185,-5.3185,-5.3185,-5.3185,-5.3185,-5.3185,-5.3185,-5.3185,-5.3185,-5.3185,-5.3185,-5.3185,-5.3185,-5.3185,-5.3185,-5.3185,-5.3185,-5.3185,-5.3185,-5.3185,-5.3185,0.0,0.0,-4.0496,-4.0496,0.0,0.0,0.0,0.0,0.0,0.0,-4.0496,-4.0496,0.0,0.0,0.0,0.0,0.0,0.0,0.0,0.0,0.0,0.0,0.0,0.0,0.0,0.0,0.0,0.0,0.0,0.0,0.0,0.0,-4.0496,-4.0496,0.0,-4.0496,-4.0496,-4.0496,-4.0496,-4.0496,-4.0496,-4.0574,-4.0681,-4.0557,0.0,0.0,0.0,0.0,0.0,0.0,0.0,0.0,0.0,0.0,-4.0496,-4.0496,-4.0496,-4.0496,-4.0489,0.0,0.0,-4.3058,-4.432,0.0,-4.6347,-4.7174,-4.7837,-4.7903,0.0,-5.0302,-5.0302,-5.0302,-5.0302,-5.0302,-5.0971,-5.1513,-5.1589,-5.2231,-5.3015,-5.3874,-5.397,-5.4295,-5.5097,-5.5174,-5.5174,-5.5174,-5.4824,-5.4594,-5.4564,-5.4253,-5.3899,-5.3497,-5.344,-5.3282,-5.2986,-5.3059,-5.3096,-5.3096,-5.3148,-5.3185,-5.3185,-5.3185,-5.3185,-5.3185,-5.3185,-5.3185,-5.3185,-5.3185,-5.3185,-5.3185,-5.3185,-5.3185,-5.3185,-5.3185,-5.3185,-5.3185,0.0,0.0,-4.0496,-4.0496,0.0,0.0,0.0,0.0,0.0,0.0,0.0,0.0,0.0,0.0,0.0,0.0,0.0,0.0,0.0,0.0,0.0,0.0,0.0,0.0,0.0,0.0,0.0,0.0,0.0,0.0,0.0,0.0,0.0,-4.0496,0.0,-4.0496,-4.0496,-4.0496,-4.0496,-4.0496,-4.0496,-4.0574,-4.0681,-4.0557,-4.0574,0.0,0.0,0.0,0.0,0.0,0.0,0.0,-4.0496,-4.0496,-4.0496,-4.0496,-4.0496,-4.0508,-4.0507,-4.1272,0.0,0.0,-4.4264,-4.5524,-4.563,-4.6816,-4.8053,-4.8689,-4.9614,-5.0314,-5.0379,-5.0344,-5.0314,-5.0379,-5.0478,-5.0818,-5.1493,-5.1754,-5.2155,-5.2977,-5.3072,-5.3148,-5.3339,-5.3359,-5.3359,-5.3359,-5.329,-5.3122,-5.2854,-5.252,-5.2195,-5.1825,-5.1559,-5.1379,-5.1316,-5.194,-5.2252,-5.227,-5.2913,-5.3185,-5.3185,-5.3185,-5.3185,-5.3185,-5.3185,-5.3185,-5.3185,-5.3185,-5.3185,-5.3185,-5.3185,-5.3185,-5.3185,-5.3185,-5.3185,-5.3185,0.0,0.0,0.0,0.0,0.0,0.0,0.0,0.0,0.0,0.0,0.0,0.0,0.0,0.0,0.0,0.0,-4.0496,0.0,0.0,0.0,-4.0496,-4.0496,0.0,0.0,0.0,0.0,0.0,0.0,0.0,0.0,0.0,0.0,0.0,-4.0496,0.0,-4.0496,-4.0496,-4.0496,-4.0496,-4.0496,-4.0496,-4.0574,-4.0681,-4.0557,-4.0574,-4.0681,-4.0557,0.0,0.0,0.0,0.0,0.0,0.0,0.0,-4.0496,-4.0496,-4.0496,-4.0489,-4.0503,0.0,0.0,-4.331,0.0,-4.5513,-4.5419,-4.6396,-4.7533,-4.8307,-4.9442,-5.0314,-5.039,-5.0359,-5.0348,-5.0401,-5.0379,-5.0509,-5.0913,-5.099,-5.1295,-5.2136,-5.2231,-5.2384,-5.2747,-5.2805,-5.2805,-5.2805,-5.2654,-5.2471,-5.2305,-5.197,-5.1651,-5.1304,-5.1139,-5.0965,-5.0802,-5.1224,-5.1426,-5.1426,-5.1848,-5.2252,-5.2637,-5.3023,-5.3185,-5.3185,-5.3185,-5.3185,-5.3185,-5.3185,-5.3185,-5.3185,-5.3185,-5.3185,-5.3185,-5.3185,-5.3185,-5.3185,0.0,0.0,0.0,0.0,0.0,0.0,0.0,0.0,0.0,0.0,0.0,0.0,0.0,0.0,-4.0496,0.0,0.0,0.0,0.0,-4.0496,-4.0496,-4.0496,0.0,0.0,0.0,0.0,0.0,0.0,0.0,0.0,0.0,0.0,0.0,-4.0496,0.0,-4.0496,-4.0496,-4.0496,-4.0496,-4.0496,-4.0496,-4.0574,-4.0681,-4.0557,-4.0574,-4.0681,-4.0557,-4.0496,-4.0496,-4.0496,0.0,0.0,0.0,0.0,-4.0496,-4.0496,-4.0496,-4.0496,0.0,0.0,-4.2181,-4.3701,-4.4739,0.0,-4.541,-4.6071,-4.6875,-4.7458,-4.8926,-5.0153,-5.0393,-5.0412,-5.0412,-5.0424,-5.0412,-5.039,-5.0314,-5.0302,-5.0569,-5.1295,-5.1391,-5.1639,-5.2289,-5.2365,-5.2365,-5.2365,-5.2106,-5.1925,-5.1883,-5.1552,-5.1218,-5.0877,-5.0805,-5.0657,-5.0362,-5.0527,-5.0582,-5.0582,-5.0729,-5.1151,-5.1811,-5.2491,-5.2949,-5.3185,-5.3185,-5.3185,-5.3185,-5.3185,-5.3185,-5.3185,-5.3185,-5.3185,-5.3185,-5.3185,-5.3185,-5.3185,0.0,0.0,0.0,0.0,0.0,0.0,0.0,0.0,0.0,0.0,-4.0496,-4.0496,0.0,0.0,0.0,-4.0496,-4.0496,0.0,-4.0496,0.0,0.0,0.0,0.0,0.0,0.0,0.0,0.0,0.0,0.0,0.0,0.0,0.0,0.0,-4.0496,0.0,0.0,-4.0496,-4.0496,-4.0496,-4.0496,-4.0496,-4.0574,-4.0681,-4.0557,-4.0574,-4.0681,-4.0557,-4.0496,-4.0496,-4.0496,-4.0496,0.0,0.0,0.0,-4.0496,-4.0496,-4.0496,-4.0496,0.0,0.0,-4.2047,0.0,-4.3874,-4.4636,0.0,0.0,-4.6693,-4.6674,-4.8048,-4.9507,-5.0333,-5.0446,-5.0424,-5.0478,-5.0446,-5.039,-5.0314,-5.0302,-5.034,-5.0455,-5.0474,-5.0531,-5.0627,-5.0627,-5.0627,-5.0627,-5.0591,-5.0443,-5.0139,-4.9822,-4.9479,-4.9132,-4.8846,-4.8676,-4.8636,-4.937,-4.9719,-4.9682,-5.0435,-5.0857,-5.0967,-5.1077,-5.1885,-5.3185,-5.3185,-5.3185,-5.3185,-5.3185,-5.3185,-5.3185,-5.3185,-5.3185,-5.3185,-5.3185,-5.3185,-5.3185,0.0,0.0,0.0,0.0,0.0,0.0,0.0,0.0,0.0,0.0,0.0,-4.0496,0.0,0.0,0.0,0.0,0.0,0.0,-4.0496,-4.0496,0.0,0.0,0.0,0.0,0.0,0.0,0.0,0.0,0.0,0.0,0.0,-4.0496,-4.0496,0.0,0.0,0.0,0.0,0.0,0.0,-4.0496,-4.0496,0.0,0.0,-4.0557,-4.0574,-4.0687,-4.0629,-4.0552,-4.0512,-4.06,-4.0571,-4.0496,-4.0496,0.0,0.0,0.0,-4.0496,0.0,-4.0496,-4.1143,-4.2,0.0,-4.3701,-4.4491,-4.5274,-4.5755,-4.6119,-4.6468,-4.7174,-4.8113,-4.9469,-4.9677,-4.9838,-5.0369,-5.0424,-5.039,-5.0314,-5.0302,-5.0302,-5.0302,-5.0302,-5.0302,-5.0302,-5.0302,-5.0302,-5.0302,-5.0132,-4.987,-4.9541,-4.9209,-4.8866,-4.8532,-4.8383,-4.8306,-4.8306,-4.8673,-4.8857,-4.8838,-4.9224,-4.9664,-5.0123,-5.0123,-5.0765,-5.1867,-5.1867,-5.2105,-5.2527,-5.2527,-5.2803,-5.3185,-5.3185,-5.3185,-5.3185,-5.3185,-5.3185,-5.3185,0.0,0.0,0.0,0.0,0.0,0.0,0.0,0.0,0.0,0.0,0.0,0.0,0.0,0.0,0.0,0.0,0.0,0.0,-4.0496,0.0,0.0,0.0,0.0,0.0,0.0,0.0,0.0,0.0,0.0,0.0,-4.0496,-4.0496,-4.0496,0.0,-4.0496,0.0,0.0,0.0,0.0,0.0,-4.0542,-4.0629,-4.0717,-4.0616,-4.0662,-4.0768,-4.0734,-4.0643,-4.0571,-4.0662,-4.0602,-4.0496,-4.0496,-4.0496,0.0,0.0,0.0,0.0,0.0,0.0,-4.1681,-4.2547,-4.3393,-4.4212,0.0,0.0,-4.564,-4.6184,-4.6298,-4.6727,-4.8171,-4.8622,-4.9015,-4.9666,-4.9762,-4.9816,-4.997,-4.9996,-5.0073,-5.0283,-5.0302,-5.0302,-5.0302,-5.0302,-5.0302,-5.0302,-5.0063,-4.9771,-4.9435,-4.9113,-4.8763,-4.8439,-4.8326,-4.8306,-4.8306,-4.8306,-4.8306,-4.8306,-4.8306,-4.8636,-4.928,-4.928,-4.9591,-5.0196,-5.0618,-5.1132,-5.1701,-5.1701,-5.205,-5.2619,-5.2821,-5.2913,-5.2931,-5.3112,-5.3185,-5.3185,0.0,0.0,0.0,0.0,0.0,0.0,0.0,0.0,0.0,0.0,0.0,0.0,0.0,0.0,0.0,-4.0496,0.0,0.0,0.0,0.0,0.0,0.0,0.0,0.0,0.0,0.0,0.0,0.0,0.0,0.0,-4.0496,-4.0496,-4.0496,-4.0496,-4.0496,-4.0496,-4.0496,0.0,0.0,0.0,-4.0636,-4.0721,-4.0781,-4.0796,-4.0874,-4.097,-4.0833,-4.0754,-4.0687,-4.0694,-4.0602,-4.0496,-4.0496,-4.0496,-4.0496,0.0,0.0,0.0,0.0,-4.0535,0.0,-4.1662,-4.2527,0.0,0.0,0.0,-4.5495,-4.5466,-4.5465,-4.5694,-4.6492,-4.7357,-4.7973,-4.8031,-4.8031,-4.8296,-4.9052,-4.9167,-4.9442,-5.0206,-5.0302,-5.0302,-5.0302,-5.0302,-5.0302,-5.0302,-5.029,-5.0132,-4.9784,-4.9468,-4.9129,-4.8781,-4.8476,-4.8306,-4.8306,-4.8306,-4.8306,-4.8306,-4.8306,-4.8324,-4.8379,-4.8379,-4.8398,-4.8526,-5.0105,-5.082,-5.0857,-5.0857,-5.0894,-5.1004,-5.1756,-5.205,-5.2142,-5.2931,-5.3185,-5.3185,0.0,0.0,0.0,0.0,0.0,0.0,0.0,0.0,0.0,0.0,0.0,0.0,0.0,-4.0496,-4.0496,-4.0496,-4.0496,0.0,0.0,0.0,0.0,0.0,0.0,0.0,0.0,0.0,0.0,0.0,0.0,-4.0496,-4.0496,-4.0496,-4.0496,-4.0496,-4.0496,-4.0496,-4.0496,-4.0496,0.0,-4.0512,-4.0642,-4.0732,-4.081,-4.081,-4.0886,-4.0987,-4.0944,-4.0857,-4.0756,-4.0756,-4.0724,-4.066,-4.0537,-4.0564,-4.0602,-4.0527,-4.0496,0.0,0.0,0.0,0.0,-4.1585,-4.2019,-4.2615,-4.3991,-4.4972,-4.5541,-4.5419,-4.5831,-4.6137,-4.5795,-4.6426,-4.7182,-4.7737,-4.7851,-4.7936,-4.8239,-4.8277,-4.8372,-4.8659,-4.8686,-4.8686,-4.8686,-4.8686,-4.8686,-4.8686,-4.8686,-4.8543,-4.8211,-4.8615,-4.8596,-4.8037,-4.8399,-4.8514,-4.8306,-4.8306,-4.8306,-4.8306,-4.8306,-4.8306,-4.8306,-4.8306,-4.8306,-4.8343,-4.893,-4.9517,-5.0013,-5.0013,-5.0325,-5.0839,-5.1114,-5.1224,-5.1261,-5.1555,-5.1665,-5.1738,0.0,0.0,0.0,0.0,0.0,-4.0496,0.0,0.0,0.0,0.0,0.0,0.0,0.0,0.0,-4.0496,-4.0496,-4.0496,-4.0496,-4.0496,-4.0496,0.0,0.0,0.0,0.0,0.0,0.0,0.0,0.0,0.0,0.0,0.0,-4.0496,-4.0496,-4.0496,-4.0496,-4.0496,0.0,0.0,0.0,-4.0512,-4.0674,-4.0743,-4.0791,-4.0867,-4.0935,-4.0994,-4.1037,-4.0964,-4.0874,-4.0874,-4.0837,-4.0786,-4.0649,-4.0643,-4.0668,-4.0542,-4.0496,0.0,-4.0496,0.0,0.0,0.0,-4.1585,-4.2077,-4.322,-4.4335,-4.5145,-4.5045,-4.5678,-4.6061,-4.5444,-4.5747,-4.629,-4.6882,-4.6959,-4.7054,-4.733,-4.7349,-4.7463,-4.7769,-4.7788,-4.7788,-4.7788,-4.7788,-4.7788,-4.7788,-4.7788,-4.7701,-4.7485,-4.7915,-4.7867,-4.722,-4.7723,-4.7974,-4.7902,-4.7901,-4.8031,-4.8306,-4.8306,-4.8306,-4.8306,-4.8306,-4.8306,-4.8306,-4.8306,-4.8636,-4.915,-4.915,-4.9481,-4.9994,-5.0288,-5.0398,-5.0435,-5.071,-5.0802,-5.0875,0.0,-4.0496,-4.0496,-4.0496,-4.0496,-4.0496,0.0,0.0,0.0,0.0,0.0,0.0,0.0,0.0,0.0,-4.0496,-4.0496,-4.0496,-4.0496,-4.0496,0.0,0.0,0.0,0.0,0.0,0.0,0.0,0.0,0.0,0.0,0.0,0.0,-4.0496,-4.0496,-4.0496,-4.0496,-4.0496,0.0,-4.0496,-4.0527,-4.0718,-4.0765,-4.0723,-4.0998,-4.1064,-4.1003,-4.1076,-4.1064,-4.0994,-4.099,-4.0906,-4.0815,-4.0791,-4.0754,-4.0668,-4.0542,-4.0496,0.0,0.0,0.0,0.0,0.0,-4.1143,-4.1769,-4.1788,-4.3085,-4.4269,-4.4255,-4.4863,-4.539,-4.538,-4.5319,-4.5307,-4.5307,-4.5307,-4.5564,-4.6347,-4.6462,-4.6787,-4.7635,-4.7731,-4.7731,-4.7731,-4.7731,-4.7731,-4.7731,-4.7731,-4.7712,-4.7701,-4.7415,-4.6991,-4.642,-4.6405,-4.6625,-4.7076,-4.7058,-4.7461,-4.8269,-4.8269,-4.8288,-4.8306,-4.8306,-4.8306,-4.8306,-4.8306,-4.8306,-4.8306,-4.8306,-4.8306,-4.8379,-4.9224,-4.9555,-4.9665,-5.0435,-5.0729,-5.0729,-4.0496,-4.0496,-4.0496,-4.0496,-4.0496,-4.0496,0.0,0.0,0.0,0.0,0.0,0.0,0.0,0.0,0.0,-4.0496,-4.0496,-4.0496,-4.0496,-4.0496,-4.0496,-4.0496,0.0,0.0,0.0,0.0,0.0,0.0,0.0,0.0,0.0,0.0,0.0,0.0,-4.0496,-4.0496,-4.0496,-4.0496,-4.0496,-4.0512,-4.0662,-4.0743,-4.0786,-4.0961,-4.1054,-4.1074,-4.1087,-4.1083,-4.1068,-4.1028,-4.1011,-4.0981,-4.0855,-4.0754,0.0,-4.0542,0.0,0.0,-4.0496,0.0,0.0,0.0,0.0,0.0,-4.1662,-4.2643,-4.3415,-4.3372,-4.4487,-4.5256,-4.4576,-4.4967,-4.5367,-4.5307,-4.5307,-4.5383,-4.5602,-4.5621,-4.5717,-4.5965,-4.5984,-4.5984,-4.5984,-4.5984,-4.5984,-4.5984,-4.5984,-4.5889,-4.563,-4.5731,-4.6087,-4.6746,-4.6303,-4.6226,-4.6587,-4.6341,-4.6654,-4.7424,-4.7424,-4.7736,-4.8306,-4.8306,-4.8306,-4.8306,-4.8306,-4.8306,-4.8306,-4.8306,-4.8306,-4.8324,-4.8563,-4.8655,-4.8691,-4.8912,-4.9003,-4.9077,-4.0496,-4.0496,-4.0496,-4.0496,-4.0496,-4.0496,0.0,0.0,0.0,0.0,0.0,0.0,0.0,0.0,0.0,-4.0496,-4.0496,-4.0496,-4.0496,-4.0496,-4.0496,-4.0496,0.0,0.0,0.0,0.0,0.0,0.0,0.0,0.0,0.0,0.0,0.0,0.0,-4.0496,-4.0496,0.0,-4.0496,-4.0496,-4.0512,-4.0681,-4.0749,-4.0786,-4.0968,-4.1057,-4.1066,-4.1083,-4.1109,-4.1087,-4.1042,-4.107,-4.108,-4.0928,-4.0852,-4.0795,-4.0636,0.0,0.0,0.0,0.0,0.0,0.0,0.0,0.0,-4.1143,-4.1931,-4.2558,-4.2505,-4.3545,-4.4286,-4.3742,-4.4317,-4.4833,-4.4803,-4.5088,-4.5307,-4.5307,-4.5307,-4.5307,-4.5307,-4.5307,-4.5307,-4.5307,-4.5307,-4.5307,-4.5307,-4.5307,-4.5205,-4.5023,-4.5017,-4.5283,-4.5843,-4.5363,-4.5303,-4.5686,-4.5513,-4.581,-4.6599,-4.6599,-4.7021,-4.7791,-4.7791,-4.7994,-4.8306,-4.8306,-4.8306,-4.8306,-4.8306,-4.8306,-4.8306,-4.8306,-4.8306,-4.8306,-4.8306,-4.8306,-4.8379,0.0,-4.0496,-4.0496,-4.0496,-4.0496,0.0,0.0,0.0,0.0,0.0,0.0,0.0,0.0,0.0,0.0,0.0,-4.0496,-4.0496,-4.0496,-4.0496,0.0,0.0,0.0,0.0,0.0,0.0,0.0,0.0,0.0,0.0,0.0,0.0,0.0,0.0,-4.0496,-4.0496,-4.0496,-4.0496,-4.0496,-4.0519,-4.0707,-4.0759,-4.0734,-4.0992,-4.1061,-4.1011,-4.1078,-4.1109,-4.1109,-4.1109,-4.1109,-4.1083,-4.1011,-4.099,-4.0963,-4.0768,-4.0718,0.0,0.0,0.0,0.0,0.0,-4.0512,0.0,-4.0496,-4.1104,-4.1662,-4.1662,-4.2302,-4.2864,-4.2855,-4.3474,-4.3972,-4.3963,-4.4554,-4.5097,-4.5269,-4.5307,-4.5307,-4.5307,-4.5307,-4.5307,-4.5307,-4.5307,-4.5307,-4.5307,-4.5275,-4.5246,-4.5246,-4.4934,-4.465,-4.4416,-4.4136,-4.4198,-4.4615,-4.4598,-4.4966,-4.5773,-4.5773,-4.6195,-4.6966,-4.7058,-4.748,-4.8177,-4.8269,-4.8306,-4.8306,-4.8306,-4.8306,-4.8306,-4.8306,-4.8306,-4.8306,-4.8306,-4.8306,-4.8306,-4.0496,-4.0496,-4.0496,-4.0496,0.0,0.0,0.0,0.0,0.0,0.0,0.0,0.0,0.0,0.0,0.0,0.0,0.0,-4.0496,-4.0496,0.0,0.0,0.0,0.0,0.0,0.0,0.0,0.0,0.0,0.0,0.0,0.0,0.0,0.0,0.0,-4.0496,-4.0496,-4.0496,-4.0496,-4.0496,-4.0512,-4.0649,-4.0738,-4.0796,-4.0958,-4.1033,-4.108,-4.1106,-4.1109,-4.1109,-4.1109,-4.1109,-4.1083,-4.1011,-4.099,-4.0974,-4.0815,-4.0781,-4.0776,-4.0756,0.0,-4.0655,-4.0655,-4.0586,0.0,-4.0496,-4.0631,-4.0746,-4.0746,-4.1442,-4.2014,-4.1961,-4.2646,-4.3203,-4.3139,-4.3216,-4.3761,-4.5116,-4.5307,-4.5307,-4.5307,-4.5307,-4.5307,-4.5307,-4.5307,-4.5307,-4.5307,-4.5045,-4.491,-4.491,-4.4624,-4.4452,-4.4397,-4.4136,-4.4048,-4.4135,-4.3872,-4.414,-4.4947,-4.4947,-4.5369,-4.6159,-4.6801,-4.7186,-4.7369,-4.8012,-4.8306,-4.8306,-4.8306,-4.8306,-4.8306,-4.8306,-4.8306,-4.8306,-4.8306,-4.8306,-4.8306,-4.0496,-4.0496,-4.0496,-4.0496,0.0,0.0,0.0,0.0,0.0,0.0,0.0,0.0,0.0,0.0,0.0,0.0,0.0,0.0,0.0,0.0,0.0,0.0,0.0,0.0,0.0,0.0,0.0,0.0,0.0,0.0,0.0,0.0,0.0,0.0,0.0,0.0,0.0,-4.0496,-4.0496,-4.0512,-4.0642,-4.0732,-4.08,-4.0944,-4.103,-4.1109,-4.1109,-4.1109,-4.1109,-4.1109,-4.1109,-4.1087,-4.1066,-4.1057,-4.1028,-4.0921,-4.0894,-4.0886,-4.0824,-4.0749,-4.0694,-4.0694,-4.0595,0.0,0.0,-4.0496,-4.0496,-4.0496,-4.0854,-4.1135,-4.1111,-4.1797,-4.2347,-4.2302,-4.2574,-4.3092,-4.3933,-4.44,-4.4647,-4.4647,-4.5029,-4.5307,-4.5307,-4.5307,-4.5307,-4.5307,-4.5132,-4.5045,-4.5045,-4.477,-4.4599,-4.4599,-4.4206,-4.4005,-4.4005,-4.3666,-4.3699,-4.4103,-4.4103,-4.4525,-4.5333,-4.5718,-4.6342,-4.7113,-4.7516,-4.792,-4.8306,-4.8306,-4.8306,-4.8306,-4.8306,-4.8306,-4.8306,-4.8306,-4.8306,-4.8306,-4.0496,-4.0496,-4.0496,-4.0496,0.0,0.0,0.0,0.0,0.0,0.0,0.0,0.0,0.0,0.0,0.0,0.0,0.0,0.0,0.0,0.0,0.0,0.0,0.0,-4.0496,0.0,0.0,0.0,0.0,0.0,0.0,0.0,0.0,0.0,0.0,0.0,0.0,0.0,0.0,-4.0496,-4.0504,-4.0609,-4.0717,-4.0791,-4.094,-4.1025,-4.1099,-4.1282,-4.1461,-4.1597,-4.1597,-4.1597,-4.1597,-4.1597,-4.15,-4.1337,-4.1298,-4.1148,-4.1,-4.0883,-4.0815,-4.0746,-4.0736,-4.0636,-4.0534,0.0,0.0,0.0,-4.0496,-4.0496,-4.0496,-4.0496,-4.1034,-4.1423,-4.1251,-4.1881,-4.2287,-4.2105,-4.291,-4.3596,-4.3739,-4.4399,-4.4876,-4.5029,-4.5201,-4.5307,-4.5307,-4.5307,-4.5307,-4.5307,-4.5045,-4.4868,-4.48,-4.4374,-4.4121,-4.4079,-4.3747,-4.3599,-4.3599,-4.3513,-4.3828,-4.447,-4.4635,-4.5406,-4.6654,-4.6966,-4.7461,-4.8067,-4.8251,-4.8306,-4.8306,-4.8306,-4.8306,-4.8306,-4.8306,-4.8306,-4.8306,-4.0496,-4.0496,-4.0496,-4.0496,0.0,0.0,0.0,0.0,0.0,0.0,0.0,0.0,0.0,0.0,0.0,0.0,0.0,-4.0496,-4.0496,-4.0496,0.0,0.0,0.0,-4.0496,-4.0496,0.0,0.0,0.0,0.0,0.0,0.0,0.0,0.0,0.0,-4.0496,0.0,0.0,0.0,-4.0496,-4.0496,-4.0519,-4.0595,-4.0723,-4.0937,-4.0997,-4.1128,-4.1954,-4.2747,-4.3393,-4.3393,-4.3393,-4.3393,-4.3393,-4.2864,-4.2258,-4.2235,-4.1686,-4.1081,-4.1078,-4.102,-4.0933,-4.0815,-4.0726,-4.0642,-4.0527,0.0,-4.0496,-4.0496,0.0,-4.0496,-4.0496,0.0,0.0,-3.9692,-4.023,-4.0477,-3.9648,-4.088,-4.2135,-4.2851,-4.3023,-4.3367,-4.4083,-4.4857,-4.5307,-4.5307,-4.5307,-4.5307,-4.5307,-4.5256,-4.5109,-4.48,-4.4739,-4.4585,-4.436,-4.4075,-4.3942,-4.3942,-4.3649,-4.3551,-4.3644,-4.4378,-4.4801,-4.504,-4.647,-4.7149,-4.7278,-4.8012,-4.8306,-4.8306,-4.8306,-4.8306,-4.8306,-4.8306,-4.8306,-4.8306,-4.0496,-4.0496,-4.0496,-4.0496,0.0,0.0,0.0,0.0,0.0,0.0,0.0,0.0,-4.195,-4.2008,-4.2008,-4.2008,-4.1546,-4.147,-4.197,-4.1054,0.0,0.0,-4.0766,-4.0496,-4.0496,0.0,0.0,0.0,-4.0496,0.0,0.0,0.0,0.0,0.0,-4.0496,0.0,-4.0496,0.0,-4.0496,-4.0496,-4.0496,-4.0882,-4.1479,-4.1582,-4.202,-4.2627,-4.3015,-4.3391,-4.3705,-4.3705,-4.3705,-4.3705,-4.3705,-4.345,-4.3157,-4.3157,-4.2903,-4.2495,-4.1986,-4.182,-4.1601,-4.095,-4.0749,-4.0662,-4.0534,-4.0496,-4.0496,-4.0496,0.0,0.0,0.0,0.0,0.0,0.0,-4.0284,-4.0351,-3.9917,-4.0429,-4.115,-4.1944,-4.2488,-4.2928,-4.3271,-4.3634,-4.4036,-4.4513,-4.4551,-4.4762,-4.5269,-4.5307,-4.5235,-4.5098,-4.4891,-4.4739,-4.4624,-4.436,-4.4236,-4.4236,-4.3921,-4.3798,-4.3781,-4.395,-4.4268,-4.4745,-4.5406,-4.6232,-4.7131,-4.7461,-4.8177,-4.904,-4.904,-4.8746,-4.8306,-4.8306,-4.8306,-4.8306,-4.0496,0.0,0.0,0.0,0.0,0.0,0.0,0.0,0.0,0.0,0.0,-4.2412,-4.3028,-4.3104,-4.3104,-4.3104,-4.2527,-4.2431,-4.3066,-4.1912,-4.1393,-4.1769,-4.1181,-4.0746,-4.0516,-4.0496,-4.0496,0.0,0.0,0.0,0.0,0.0,0.0,0.0,0.0,-4.0496,-4.0496,-4.0496,-4.0496,-4.0516,-4.0766,-4.1605,-4.2714,-4.2573,-4.3143,-4.4055,-4.4055,-4.4211,-4.4406,-4.4406,-4.4406,-4.4406,-4.4406,-4.425,-4.4055,-4.4055,-4.3899,-4.3567,-4.2923,-4.2726,-4.2503,-4.1717,-4.1299,-4.1041,-4.0889,-4.0669,-4.0496,-4.0496,-4.0496,0.0,0.0,0.0,-4.0439,0.0,0.0,-4.0386,-4.0089,-4.0208,-4.0528,-4.1103,-4.1915,-4.2431,-4.2431,-4.266,-4.3138,-4.393,-4.4006,-4.4348,-4.5115,-4.5246,-4.5256,-4.5173,-4.5023,-4.4946,-4.4946,-4.465,-4.4506,-4.4506,-4.4236,-4.4079,-4.3989,-4.3749,-4.3913,-4.4378,-4.4617,-4.5351,-4.647,-4.6911,-4.7829,-4.8948,-4.9427,-4.9225,-4.8655,-4.8655,-4.8508,-4.8306,-4.0496,-4.0496,0.0,0.0,0.0,0.0,0.0,0.0,-4.1769,-4.1788,-4.2527,-4.3066,-4.3104,-4.3104,-4.3104,-4.3104,-4.3066,-4.3066,-4.3104,-4.3047,-4.2643,-4.1827,-4.1769,-4.1354,-4.0516,-4.0496,-4.0496,0.0,0.0,0.0,0.0,0.0,0.0,0.0,0.0,-4.0496,-4.0496,-4.0496,-4.0496,-4.0573,-4.1412,-4.2904,-4.4535,-4.3829,-4.4131,-4.4951,-4.4951,-4.55,-4.6222,-4.6222,-4.6222,-4.6222,-4.6222,-4.5636,-4.4951,-4.4951,-4.4367,-4.3686,-4.3666,-4.3665,-4.3604,-4.3363,-4.2675,-4.2003,-4.179,-4.1104,-4.0496,-4.0496,-4.0496,-4.0496,-4.0496,-4.0496,0.0,0.0,0.0,0.0,0.0,-3.987,-4.0372,-4.0339,-4.1055,-4.1533,-4.1533,-4.2297,-4.3138,0.0,-4.4006,-4.4236,-4.4775,-4.5121,-4.5162,-4.4831,-4.5121,-4.5267,-4.5267,-4.4957,-4.4776,-4.4776,-4.4506,-4.425,-4.4005,-4.3989,-4.3832,-4.3588,-4.436,-4.4728,-4.4893,-4.6452,-4.7131,-4.7333,-4.8967,-4.9574,-4.9555,-4.9555,-4.9022,-4.8306,-4.0496,0.0,0.0,0.0,-4.0496,-4.0689,-4.1277,-4.1604,-4.22,-4.3316,-4.3701,-4.4105,-4.4682,-4.4748,-4.4748,-4.4748,-4.422,-4.4143,-4.4729,-4.372,-4.3201,-4.3431,-4.2951,-4.2258,-4.1373,-4.1354,-4.1085,-4.0496,0.0,0.0,0.0,0.0,0.0,0.0,0.0,-4.0496,-4.0496,-4.0496,-4.0835,-4.1497,-4.298,-4.3975,-4.4562,-4.4385,-4.4975,-4.5851,-4.5851,-4.6046,-4.63,-4.63,-4.63,-4.63,-4.63,-4.6105,-4.5851,-4.5851,-4.5656,-4.5285,-4.4719,-4.4563,-4.4367,-4.3596,-4.318,-4.2909,-4.2722,-4.1989,-4.1354,-4.1354,-4.0893,-4.0496,-4.0496,-4.0496,0.0,0.0,0.0,0.0,0.0,-3.9684,-3.9468,-3.9431,-4.0196,-4.0711,-4.0711,-4.0979,0.0,0.0,-4.2889,0.0,-4.4244,-4.493,-4.5151,-4.48,-4.4922,-4.4887,-4.4714,-4.477,-4.4714,-4.4533,-4.4624,-4.4519,-4.426,-4.426,-4.4121,-4.3849,-4.4126,-4.4418,-4.4728,-4.5278,-4.614,-4.7204,-4.8324,-4.9077,-4.9665,-5.0196,-4.9866,-4.9077,-4.0496,-4.0496,-4.0496,-4.0496,-4.0766,-4.1258,-4.2124,-4.2508,-4.3085,-4.4162,-4.4566,-4.4979,-4.5537,-4.5594,-4.5594,-4.5594,-4.5094,-4.5124,-4.6009,-4.4759,-4.422,-4.4739,-4.397,-4.3124,-4.2277,-4.2258,-4.1835,-4.095,-4.095,-4.0804,0.0,0.0,0.0,0.0,0.0,-4.0669,-4.095,-4.095,-4.147,-4.2382,-4.3848,-4.4671,-4.5001,-4.5082,-4.5597,-4.624,-4.6277,-4.63,-4.63,-4.63,-4.63,-4.63,-4.63,-4.63,-4.63,-4.63,-4.63,-4.6183,-4.5617,-4.546,-4.5287,-4.4534,-4.413,-4.3845,-4.3641,-4.293,-4.2217,-4.1901,-4.1374,-4.0877,-4.0629,-4.0534,0.0,0.0,0.0,0.0,0.0,-3.9581,-3.9011,-3.9011,-3.9508,-3.9843,-3.9843,-4.011,-4.0635,-4.1437,0.0,0.0,0.0,-4.4491,-4.4827,-4.48,-4.4788,-4.4714,-4.4546,-4.4612,-4.4572,-4.4397,-4.4572,-4.4506,-4.4265,-4.4265,-4.4106,-4.383,-4.383,-4.3994,-4.4305,-4.458,-4.5296,-4.6342,-4.7443,-4.8398,-4.926,-5.0398,-5.0288,-4.9482,-4.0631,-4.0631,-4.065,-4.0689,-4.1335,-4.2162,-4.3028,-4.3816,-4.4316,-4.4355,-4.5133,-4.5671,-4.5671,-4.571,-4.5729,-4.5729,-4.5729,-4.6086,-4.6913,-4.6144,-4.5671,-4.5671,-4.4836,-4.3989,-4.3181,-4.3162,-4.2739,-4.1865,-4.1808,0.0,0.0,0.0,0.0,0.0,-4.0496,0.0,-4.1788,-4.1788,-4.2335,-4.3239,-4.4047,-4.4984,-4.5894,-4.5899,-4.5987,-4.6128,-4.6247,-4.63,-4.63,-4.63,-4.63,-4.63,-4.63,-4.63,-4.63,-4.63,-4.63,-4.63,-4.63,-4.63,-4.6271,-4.6138,-4.5482,-4.4799,-4.4601,-4.3905,-4.3034,-4.2215,-4.1919,-4.1601,-4.0887,-4.0619,-4.0496,0.0,0.0,0.0,-4.0405,-3.959,-3.8992,-3.8992,-3.9011,-3.9011,-3.9011,-3.9785,-4.0616,-4.138,0.0,0.0,0.0,-4.3814,-4.4225,-4.4724,-4.4781,-4.4788,-4.4776,-4.4533,-4.4411,-4.4397,-4.4411,-4.4294,-4.4036,-4.4036,-4.3846,-4.3513,-4.3513,-4.3532,-4.357,-4.4323,-4.4636,-4.48,-4.636,-4.7516,-4.8508,-5.0141,-5.027,-4.9537,-4.2431,-4.2431,-4.2624,-4.322,-4.3008,-4.3047,-4.3874,-4.4162,-4.4528,-4.519,-4.6028,-4.6567,-4.6567,-4.7105,-4.7451,-4.7451,-4.7451,-4.7548,-4.7778,-4.7028,-4.6567,-4.6567,-4.572,-4.4883,-4.4008,-4.3989,-4.3585,-4.2777,-4.2124,0.0,-4.145,0.0,0.0,0.0,0.0,0.0,-4.1788,-4.1788,-4.2643,-4.4066,-4.4921,-4.5495,-4.5835,-4.5886,-4.5987,-4.6128,-4.6247,-4.63,-4.63,-4.63,-4.63,-4.63,-4.63,-4.63,-4.63,-4.63,-4.63,-4.63,-4.63,-4.63,-4.6271,-4.6138,-4.5926,-4.5726,-4.5583,-4.4891,-4.4256,-4.4023,-4.2898,-4.1899,-4.1706,-4.1031,-4.0496,-4.0496,-4.0503,-4.0482,-4.0415,-3.9635,-3.9056,-3.9011,-3.9011,-3.9011,-3.9011,-3.9785,-4.0377,-4.0597,0.0,0.0,-4.2026,-4.3288,-4.3958,-4.391,-4.4485,-4.4701,-4.4506,-4.4624,-4.4599,-4.4397,-4.4599,-4.4559,-4.4289,-4.4289,-4.4132,-4.3878,-4.3878,-4.3732,-4.3533,-4.3718,-4.3809,-4.3901,-4.4929,-4.6526,-4.8434,-4.9499,-5.016,-5.0288,-4.3104,-4.3374,-4.3778,-4.422,-4.4239,-4.4355,-4.4797,-4.5182,-4.5605,-4.6105,-4.6894,-4.7432,-4.7432,-4.7836,-4.8105,-4.8105,-4.8105,-4.8259,-4.8644,-4.7894,-4.7432,-4.7432,-4.6624,-4.5759,-4.4893,-4.4874,-4.4451,-4.3624,-4.3124,0.0,-4.2354,0.0,0.0,0.0,0.0,-4.2104,-4.2931,-4.3297,-4.4008,-4.4913,-4.5402,-4.5704,0.0,-4.5897,-4.6013,-4.6206,-4.6273,-4.63,-4.63,-4.63,-4.63,-4.63,-4.63,-4.63,-4.63,-4.63,-4.63,-4.63,-4.63,-4.63,-4.6275,-4.6209,-4.6181,-4.6147,-4.6009,-4.5641,-4.5194,-4.4824,-4.3913,-4.2945,-4.2183,-4.1558,-4.1003,-4.0569,-4.0495,-4.0493,-4.0441,-3.9661,-3.9082,-3.9047,-3.902,-3.9011,-3.9011,-3.9785,-4.0253,-4.0128,-4.0547,0.0,0.0,-4.2574,-4.3458,-4.3756,-4.4431,-4.4726,-4.4572,-4.4612,-4.4546,-4.4397,-4.4546,-4.4546,-4.4397,-4.4397,-4.4265,-4.4005,-4.4005,-4.3814,-4.3515,-4.3515,-4.3515,-4.3588,-4.4397,-4.5957,-4.7865,-4.8728,-4.9536,-5.005,-4.3431,-4.3989,-4.4509,-4.4624,-4.5259,-4.5806,-4.5922,-4.649,-4.6942,-4.7038,-4.7778,-4.8279,-4.8279,-4.8375,-4.8432,-4.8432,-4.8432,-4.8759,-4.951,-4.8759,-4.8279,-4.8279,-4.7394,-4.6547,-4.5787,-4.5671,-4.5229,-4.447,-4.4355,0.0,0.0,0.0,0.0,0.0,0.0,0.0,0.0,-4.5229,-4.5594,-4.5594,-4.562,-4.574,-4.5905,-4.592,-4.6091,-4.63,-4.63,-4.63,-4.63,-4.63,-4.63,-4.63,-4.63,-4.63,-4.63,-4.63,-4.63,-4.63,-4.63,-4.63,-4.63,-4.63,-4.63,-4.6271,-4.6147,-4.6135,-4.5917,-4.5154,-4.4845,-4.4239,-4.2727,-4.2219,-4.1667,-4.0662,-4.0503,-4.0491,-4.0502,-3.981,-3.928,-3.9263,-3.92,0.0,-3.9164,-3.9862,-4.0186,-3.9924,-3.9903,-4.0206,0.0,0.0,-4.284,-4.3815,-4.4517,-4.4868,-4.4868,-4.4624,-4.4525,-4.4525,-4.4465,-4.4452,-4.4452,-4.443,-4.426,-4.4048,-4.402,-4.383,-4.3565,-4.3532,-4.3515,-4.3588,-4.4397,-4.5553,-4.6892,-4.781,-4.86,-4.9114,-4.5171,-4.5287,-4.5605,-4.6317,-4.6567,-4.6894,-4.7567,-4.724,-4.7135,-4.7798,-4.8644,-4.9163,-4.9163,-4.9798,-5.025,-5.025,-5.025,-5.0308,-5.0462,-4.9663,-4.9163,-4.9163,-4.7721,-4.6827,-4.6682,-4.597,-4.5537,-4.5364,-4.4643,0.0,0.0,0.0,0.0,0.0,0.0,0.0,-4.4355,-4.5229,0.0,-4.5603,-4.5712,-4.5829,-4.591,-4.6013,-4.615,-4.63,-4.63,-4.63,-4.63,-4.63,-4.63,-4.63,-4.63,-4.63,-4.63,-4.63,-4.63,-4.63,-4.63,-4.63,-4.63,-4.63,-4.63,-4.6298,-4.6273,-4.6251,-4.6212,-4.6076,-4.5373,-4.4685,-4.4373,-4.3053,-4.1667,-4.0662,-4.0508,-4.0511,-4.051,-4.0359,-4.0202,-4.0105,-4.0068,-4.007,-4.0081,-4.0205,-4.0186,-3.9924,-3.9903,-3.996,0.0,0.0,-4.2593,0.0,-4.4433,-4.5205,0.0,0.0,-4.514,-4.514,-4.4856,-4.4726,-4.4714,-4.4493,-4.4369,-4.4318,-4.4109,-4.3974,-4.3894,-4.3615,-4.3515,-4.3588,-4.4397,-4.4856,-4.5296,-4.6764,-4.7388,-4.77,-4.6182,-4.6278,-4.6547,-4.7375,-4.7528,-4.7817,-4.8644,-4.8452,-4.8336,-4.8721,-4.9529,-5.0067,-5.0067,-5.0462,-5.0712,-5.0712,-5.0712,-5.0712,-5.0712,-5.0308,-4.9875,-4.9413,-4.8625,-4.7798,-4.6923,-4.649,-4.6047,-4.5594,-4.519,0.0,0.0,0.0,0.0,0.0,0.0,-4.4605,0.0,0.0,-4.5594,-4.5612,-4.5742,-4.5828,-4.5915,-4.6049,-4.6181,-4.63,-4.63,-4.63,-4.63,-4.63,-4.63,-4.63,-4.63,-4.63,-4.63,-4.63,-4.63,-4.63,-4.63,-4.63,-4.63,-4.63,-4.63,-4.63,-4.63,-4.63,-4.63,-4.63,-4.5915,-4.5423,-4.4907,-4.3277,-4.1848,-4.1368,-4.0846,-4.0508,-4.0503,-4.0499,-4.0485,-4.0405,-4.0379,-4.0344,-4.029,-4.0177,-4.0039,-3.9914,-3.9903,-3.9903,0.0,0.0,-4.2517,0.0,0.0,0.0,-4.5307,0.0,-4.5307,-4.5297,-4.5151,-4.5057,-4.5045,-4.4929,-4.4758,-4.4599,-4.4471,-4.425,-4.3974,-4.3632,-4.3515,-4.3551,-4.392,-4.4342,-4.4874,-4.6507,-4.7094,-4.7278,-4.699,-4.7154,-4.7413,-4.824,-4.8375,-4.8663,-4.9529,-4.9683,-4.9683,-4.9683,-5.0269,-5.0712,-5.0712,-5.0712,-5.0712,-5.0712,-5.0712,-5.0712,-5.0712,-5.0712,-5.0385,-4.9702,-4.949,-4.8779,-4.7471,-4.7077,-4.6567,-4.5883,-4.5691,-4.5518,0.0,0.0,0.0,0.0,0.0,0.0,0.0,0.0,-4.5612,-4.5643,-4.5773,-4.5871,-4.5969,-4.6095,-4.6211,-4.63,-4.63,-4.63,-4.63,-4.63,-4.63,-4.63,-4.63,-4.63,-4.63,-4.63,-4.63,-4.63,-4.63,-4.63,-4.63,-4.63,-4.63,-4.63,-4.63,-4.63,-4.63,-4.63,-4.63,-4.5996,-4.4988,-4.3588,-4.2446,-4.2067,-4.1314,-4.0708,-4.0535,-4.0503,-4.0499,-4.0502,-4.0441,-4.0379,-4.0325,-4.012,-3.996,-3.9905,-3.984,-3.9829,-3.9903,0.0,0.0,0.0,0.0,-4.5084,-4.5194,0.0,-4.5307,-4.5307,-4.5307,-4.5307,-4.5307,-4.5307,-4.5162,-4.4891,-4.4831,-4.4538,-4.4064,-4.3749,-4.3599,-4.3599,-4.3532,-4.3883,-4.4654,-4.625,-4.6837,-4.6966,-4.7836,-4.799,-4.8259,-4.9125,-4.9279,-4.9567,-5.0462,-5.0577,-5.0577,-5.0577,-5.0654,-5.0712,-5.0712,-5.0712,-5.0712,-5.0712,-5.0712,-5.0712,-5.0712,-5.0712,-5.0654,-5.0577,-4.9817,-4.9336,-4.9163,-4.7682,-4.6846,-4.6778,-4.599,-4.521,0.0,0.0,0.0,0.0,0.0,0.0,0.0,-4.5594,-4.5668,-4.58,-4.5858,-4.5969,-4.6098,-4.6238,-4.6298,-4.63,-4.63,-4.63,-4.63,-4.63,-4.63,-4.63,-4.63,-4.63,-4.63,-4.63,-4.63,-4.63,-4.63,-4.63,-4.63,-4.63,-4.63,-4.63,-4.63,-4.63,-4.63,-4.63,-4.63,-4.5996,-4.4988,-4.461,-4.3901,-4.2279,-4.1815,-4.1393,-4.0612,-4.0489,-4.0492,-4.051,-4.0441,-4.0407,-4.0379,-4.0309,-4.0167,-3.992,-3.9667,-3.9647,-3.9892,0.0,0.0,-4.2322,-4.3501,-4.4369,-4.4837,-4.5151,-4.5307,-4.5307,-4.5307,-4.5307,-4.5307,-4.5307,-4.5267,-4.5235,-4.4934,-4.4624,-4.4346,-4.4079,-4.3958,-4.3926,-4.3615,-4.3551,-4.3809,-4.5424,-4.6012,-4.6232,-4.873,-4.8875,-4.9163,-5.0029,-5.0183,-5.0452,-5.1298,-5.1414,-5.1606,-5.2125,-5.176,-5.1625,-5.2145,-5.2202,-5.2202,-5.2202,-5.1722,-5.1414,-5.1414,-5.0971,-5.0712,-5.0712,-5.0366,-4.9933,-4.9413,-4.874,-4.7913,-4.6904,-4.6547,-4.5932,-4.5094,0.0,0.0,0.0,0.0,-4.5594,-4.5594,-4.5594,-4.5637,-4.5688,-4.5846,-4.593,-4.6,-4.6214,-4.63,-4.63,-4.63,-4.63,-4.63,-4.63,-4.63,-4.63,-4.63,-4.63,-4.63,-4.63,-4.63,-4.63,-4.63,-4.63,-4.63,-4.63,-4.63,-4.63,-4.63,-4.63,-4.63,-4.63,-4.63,-4.6179,-4.5772,-4.5157,-4.4457,-4.3735,-4.2593,-4.1681,-4.1335,-4.0843,-4.0508,-4.0511,-4.0487,-4.0463,-4.0458,-4.0252,-4.006,-3.9901,-3.981,-3.9785,-3.9903,0.0,0.0,-4.2574,0.0,-4.4872,-4.5109,-4.5235,-4.5307,-4.5307,-4.5307,-4.5307,-4.5307,-4.5307,-4.5307,-4.5286,-4.4946,-4.4739,-4.4612,-4.4346,-4.4151,-4.3989,-4.3862,-4.3682,-4.3698,-4.5314,-4.5902,-4.6122,-4.9686,-4.9807,-5.0048,-5.0894,-5.1048,-5.1337,-5.2154,-5.2269,-5.2596,-5.3472,-5.3049,-5.2799,-5.3164,-5.3203,-5.3203,-5.3203,-5.2635,-5.2173,-5.1923,-5.1375,-5.0952,-5.0712,-5.0712,-5.0423,-4.9798,-4.9529,-4.8817,-4.7644,-4.7135,-4.6451,-4.5594,0.0,0.0,0.0,-4.5594,-4.5594,-4.5594,-4.5594,-4.562,-4.5676,-4.584,-4.592,-4.5987,-4.6211,-4.63,-4.63,-4.63,-4.63,-4.63,-4.63,-4.63,-4.63,-4.63,-4.63,-4.63,-4.63,-4.63,-4.63,-4.63,-4.63,-4.63,-4.63,-4.63,-4.63,-4.63,-4.63,-4.63,-4.63,-4.63,-4.63,-4.63,-4.5624,-4.4977,-4.4744,-4.3478,-4.2354,-4.1865,-4.1277,-4.0785,-4.0535,-4.0473,-4.0468,-4.0507,-4.0252,-4.0041,-3.9932,-4.0125,-4.0244,0.0,0.0,0.0,0.0,0.0,0.0,-4.5143,-4.5246,-4.5307,-4.5307,-4.5307,-4.5307,-4.5307,-4.5307,-4.5307,-4.5297,-4.5045,-4.4946,-4.4934,-4.4643,-4.4402,-4.424,-4.4151,-4.3983,-4.3964,-4.5591,-4.6132,-4.6285,-5.072,-5.0784,-5.0933,-5.1731,-5.1885,-5.2173,-5.3049,-5.3183,-5.351,-5.4376,-5.4472,-5.4145,-5.3299,-5.3203,-5.3203,-5.3203,-5.3203,-5.2818,-5.1962,-5.1885,-5.1529,-5.0731,-5.0712,-5.0712,-5.0693,-4.9837,-4.9394,-4.9375,-4.7721,-4.6451,-4.5575,-4.472,-4.4778,-4.5594,-4.5594,-4.5594,-4.5594,-4.5594,-4.5676,-4.5794,-4.5875,-4.5983,-4.6105,-4.6245,-4.63,-4.63,-4.63,-4.63,-4.63,-4.63,-4.63,-4.63,-4.63,-4.63,-4.63,-4.63,-4.63,-4.63,-4.63,-4.63,-4.63,-4.63,-4.63,-4.63,-4.63,-4.63,-4.63,-4.63,-4.63,-4.63,-4.63,-4.6068,-4.5633,-4.4822,-4.4464,-4.3682,-4.2019,-4.1788,-4.147,-4.0593,-4.0427,-4.043,-4.0489,-4.0381,-4.0206,-4.0012,-4.0669,-4.1097,0.0,0.0,0.0,-4.3549,-4.3871,0.0,-4.48,-4.5132,-4.5307,-4.5307,-4.5307,-4.5307,-4.5307,-4.5307,-4.5307,-4.5307,-4.5297,-4.5297,-4.5256,-4.4934,-4.4788,-4.4763,-4.4493,-4.4383,-4.459,-4.6279,-4.6673,-4.6611,-5.1583,-5.1689,-5.1901,-5.2646,-5.2799,-5.3087,-5.3953,-5.4087,-5.4376,-5.5203,-5.5318,-5.5203,-5.4934,-5.4895,-5.4895,-5.4895,-5.4395,-5.3972,-5.3683,-5.2558,-5.1788,-5.1529,-5.0991,-5.0712,-5.0712,-5.0442,-4.999,-4.9394,-4.8875,-4.7875,-4.6471,-4.5586,-4.5325,-4.5594,-4.5594,-4.5594,-4.5594,-4.5594,-4.5629,-4.5676,-4.5794,-4.5875,-4.5983,-4.6105,-4.6216,-4.63,-4.63,-4.63,-4.63,-4.63,-4.63,-4.63,-4.63,-4.63,-4.63,-4.63,-4.63,-4.63,-4.63,-4.63,-4.63,-4.63,-4.63,-4.63,-4.63,-4.63,-4.63,-4.63,-4.63,-4.6273,-4.6178,-4.6013,-4.58,-4.5499,-4.4797,-4.4105,-4.3585,-4.2527,-4.17,-4.1412,-4.083,-4.0487,-4.0507,-4.0961,-4.0883,-4.0,-4.1217,0.0,0.0,0.0,0.0,0.0,-4.4529,0.0,-4.5132,-4.5246,-4.5307,-4.5307,-4.5307,-4.5307,-4.5307,-4.5307,-4.5307,-4.5307,-4.5307,-4.5307,-4.5297,-4.5184,-4.5011,-4.4788,-4.4701,-4.4917,-4.5425,-4.65,-4.704,-4.7367,-5.2588,-5.2609,-5.282,-5.357,-5.3683,-5.3972,-5.4818,-5.4953,-5.5126,-5.5626,-5.5703,-5.5703,-5.5703,-5.5703,-5.5703,-5.5703,-5.5241,-5.4818,-5.4511,-5.3164,-5.2231,-5.1904,-5.1125,-5.0712,-5.0712,-5.0712,-5.0442,-4.9894,-4.9548,-4.8702,-4.7336,-4.6797,-4.6374,-4.6086,-4.6086,-4.5913,-4.5594,-4.5594,-4.5594,-4.5612,-4.5768,-4.5858,-4.592,-4.6102,-4.6238,-4.63,-4.63,-4.63,-4.63,-4.63,-4.63,-4.63,-4.63,-4.63,-4.63,-4.63,-4.63,-4.63,-4.63,-4.63,-4.63,-4.63,-4.63,-4.63,-4.63,-4.63,-4.63,-4.63,-4.63,-4.6269,-4.6112,-4.5992,-4.5886,-4.5808,-4.5229,-4.4662,-4.4355,-4.3393,-4.2624,-4.2316,-4.1788,-4.1445,-4.1467,-4.186,-4.181,-4.1083,-4.2259,0.0,0.0,0.0,-4.3859,-4.4465,-4.501,-4.5307,-4.5307,-4.5307,-4.5307,-4.5307,-4.5307,-4.5307,-4.5307,-4.5307,-4.5307,-4.5307,-4.5307,-4.5307,-4.5307,-4.5307,-4.5173,-4.5,-4.5,-4.5399,-4.6094,-4.6932,-4.746,-4.79,-5.3718,-5.3589,-5.3735,-5.4456,-5.4587,-5.4838,-5.5588,-5.5703,-5.5703,-5.5703,-5.5703,-5.5703,-5.5703,-5.5703,-5.5703,-5.5703,-5.5703,-5.5376,-5.4626,-5.378,-5.2895,-5.2019,-5.1221,-5.077,-5.0712,-5.0712,-5.0712,-5.0712,-4.9817,-4.8971,-4.8202,-4.8125,-4.7702,-4.6981,-4.6981,-4.6528,-4.5768,-4.5768,-4.5748,-4.5717,-4.5899,-4.5947,-4.5925,-4.6178,-4.6277,-4.63,-4.63,-4.63,-4.63,-4.63,-4.63,-4.63,-4.63,-4.63,-4.63,-4.63,-4.63,-4.63,-4.63,-4.63,-4.63,-4.63,-4.63,-4.63,-4.63,-4.63,-4.63,-4.63,-4.63,-4.6267,-4.6105,-4.5987,-4.5881,-4.5794,-4.5684,-4.5325,-4.4489,-4.4335,-4.4028,-4.3278,-4.3071,-4.3024,-4.3096,-4.2964,-4.29,-4.2889,0.0,0.0,0.0,0.0,-4.4205,-4.5277,-4.5307,-4.5307,-4.5307,-4.5307,-4.5307,-4.5307,-4.5307,-4.5307,-4.5307,-4.5307,-4.5307,-4.5307,-4.5307,-4.5307,-4.5307,-4.5307,-4.5307,-4.5307,-4.5307,-4.5831,-4.668,-4.7471,-4.7934,-4.8277,-5.4502,-5.4569,-5.4727,-5.5314,-5.5415,-5.5472,-5.5665,-5.5703,-5.5703,-5.5703,-5.5703,-5.5703,-5.5703,-5.5703,-5.5703,-5.5703,-5.5703,-5.5607,-5.5434,-5.4645,-5.3799,-5.2933,-5.2068,-5.1337,-5.0712,-5.0712,-5.0712,-5.0712,-4.9817,-4.9298,-4.9086,-4.8413,-4.8009,-4.7817,-4.7817,-4.7702,-4.7509,-4.7509,-4.7144,-4.6595,-4.6634,-4.6355,-4.591,-4.5978,-4.6112,-4.63,-4.63,-4.63,-4.63,-4.63,-4.63,-4.63,-4.63,-4.63,-4.63,-4.63,-4.63,-4.63,-4.63,-4.63,-4.63,-4.63,-4.63,-4.63,-4.63,-4.63,-4.63,-4.63,-4.63,-4.6238,-4.5992,-4.592,-4.5832,-4.5665,-4.562,-4.5537,-4.5325,-4.472,-4.422,-4.4047,-4.3462,-4.3069,-4.3024,-4.353,-4.3589,0.0,0.0,-4.4704,-4.4045,-4.4567,-4.5025,-4.5277,-4.5307,-4.5307,-4.5307,-4.5307,-4.5307,-4.5307,-4.5307,-4.5307,-4.5307,-4.5307,-4.5307,-4.5307,-4.5307,-4.5307,-4.5307,-4.5307,-4.5307,-4.5307,-4.5307,-4.6194,-4.7479,-4.7433,-4.8102,-4.9008,-5.5492,-5.5493,-5.5511,-5.575,-5.5738,-5.5703,-5.5703,-5.5703,-5.5703,-5.5703,-5.5703,-5.5703,-5.5703,-5.5703,-5.5703,-5.5703,-5.5703,-5.5703,-5.5703,-5.4953,-5.428,-5.3818,-5.2577,-5.1692,-5.126,-5.0894,-5.0712,-5.0712,-5.0231,-4.999,-4.9971,-4.951,-4.9086,-4.8682,-4.8682,-4.8471,-4.8105,-4.8105,-4.789,-4.7552,-4.7612,-4.7449,-4.7148,-4.6816,-4.676,-4.6846,-4.6436,-4.63,-4.63,-4.63,-4.63,-4.63,-4.63,-4.63,-4.63,-4.63,-4.63,-4.63,-4.63,-4.63,-4.63,-4.63,-4.63,-4.63,-4.63,-4.63,-4.63,-4.63,-4.63,-4.6214,-4.594,-4.5899,-4.582,-4.5635,-4.5594,-4.5594,-4.5594,-4.519,-4.4893,-4.4893,-4.4509,-4.4231,-4.4194,-4.4526,-4.4547,-4.402,-4.4794,0.0,-4.4628,-4.5029,-4.5307,-4.5307,-4.5307,-4.5307,-4.5307,-4.5307,-4.5307,-4.5307,-4.5307,-4.5307,-4.5307,-4.5307,-4.5307,-4.5307,-4.5307,-4.5307,-4.5307,-4.5307,-4.5307,-4.5324,-4.5578,-4.6454,-4.7578,-4.7637,-4.8262,-4.9048,-5.6348,-5.6186,-5.605,-5.5921,-5.5789,-5.5703,-5.5703,-5.5703,-5.5703,-5.5703,-5.5703,-5.5703,-5.5703,-5.5703,-5.5703,-5.5703,-5.5703,-5.5703,-5.5703,-5.5049,-5.4626,-5.4511,-5.3087,-5.2231,-5.2096,-5.1298,-5.0827,-5.0712,-5.0712,-5.0712,-5.0712,-5.0712,-5.0308,-4.9606,-4.9606,-4.9183,-4.849,-4.849,-4.8491,-4.851,-4.8625,-4.8677,-4.8626,-4.7991,-4.7778,-4.7684,-4.6944,-4.6593,-4.6495,-4.6495,-4.6417,-4.63,-4.63,-4.63,-4.63,-4.63,-4.63,-4.63,-4.63,-4.63,-4.63,-4.63,-4.63,-4.63,-4.63,-4.63,-4.63,-4.63,-4.6277,-4.6184,-4.5959,-4.5889,-4.5821,-4.5627,-4.5594,-4.5594,-4.5594,0.0,-4.5594,-4.5594,-4.5594,-4.5594,-4.5594,-4.5485,-4.54,-4.54,-4.535,-4.5307,-4.5307,-4.5307,-4.5307,-4.5307,-4.5307,-4.5307,-4.5307,-4.5307,-4.5307,-4.5307,-4.5307,-4.5307,-4.5307,-4.5307,-4.5307,-4.5307,-4.5307,-4.5307,-4.5307,-4.5307,-4.5267,-4.529,-4.5878,-4.6568,-4.7297,-4.7834,-4.8343,-4.8799,-5.6348,-5.6186,-5.605,-5.5921,-5.5789,-5.5703,-5.5703,-5.5703,-5.5703,-5.5703,-5.5703,-5.5703,-5.5703,-5.5703,-5.5703,-5.5703,-5.5703,-5.5703,-5.5703,-5.5568,-5.5203,-5.453,-5.4241,-5.376,-5.301,-5.2154,-5.1375,-5.0712,-5.0712,-5.0712,-5.0712,-5.0712,-5.0635,-5.05,-5.05,-5.0423,-5.0308,-5.0308,-4.9956,-4.9412,-4.9415,-4.9132,-4.8697,-4.8571,-4.8569,-4.8603,-4.8466,-4.7978,-4.7391,-4.7391,-4.6905,-4.63,-4.63,-4.63,-4.63,-4.63,-4.63,-4.63,-4.63,-4.63,-4.63,-4.63,-4.63,-4.63,-4.63,-4.63,-4.63,-4.63,-4.6211,-4.6072,-4.5925,-4.5859,-4.5766,-4.5629,-4.5594,-4.5594,-4.5594,0.0,-4.5594,-4.5594,-4.5594,-4.5594,-4.5594,-4.5485,-4.54,-4.54,-4.535,-4.5307,-4.5307,-4.5307,-4.5307,-4.5307,-4.5307,-4.5307,-4.5307,-4.5307,-4.5307,-4.5307,-4.5307,-4.5307,-4.5307,-4.5307,-4.5307,-4.5307,-4.5307,-4.5307,-4.5307,-4.5307,-4.5132,-4.4962,-4.5786,-4.6445,-4.7018,-4.7492,-4.8146,-4.8764,-5.6475,-5.6266,-5.6078,-5.6027,-5.5845,-5.5703,-5.5703,-5.5703,-5.5703,-5.5703,-5.5703,-5.5703,-5.5703,-5.5703,-5.5703,-5.5703,-5.5703,-5.5703,-5.5703,-5.5703,-5.553,-5.5164,-5.4722,-5.4087,-5.3222,-5.2818,-5.2414,-5.2049,-5.1587,-5.1356,-5.1337,-5.0894,-5.0712,-5.0712,-5.0712,-5.0712,-5.0693,-5.0785,-5.0619,-5.0364,-5.0433,-5.0343,-5.0093,-4.9625,-4.9464,-4.9442,-4.8974,-4.8564,-4.8252,-4.8252,-4.7686,-4.7002,-4.7002,-4.6671,-4.63,-4.63,-4.63,-4.63,-4.63,-4.63,-4.63,-4.63,-4.63,-4.63,-4.63,-4.63,-4.6275,-4.6211,-4.6141,-4.6041,-4.5877,-4.5809,-4.5757,-4.562,-4.5594,-4.5594,-4.5594,-4.5594,-4.5594,-4.5594,-4.5594,-4.5594,-4.5594,-4.5485,-4.54,-4.54,-4.535,-4.5307,-4.5307,-4.5307,-4.5307,-4.5307,-4.5307,-4.5307,-4.5307,-4.5307,-4.5307,-4.5307,-4.5307,-4.5307,-4.5307,-4.5307,-4.5307,-4.5307,-4.5307,-4.5307,-4.5307,-4.5307,-4.5461,-4.5788,-4.6487,-4.7065,-4.7605,-4.8079,-4.8379,-4.8514,-5.6606,-5.6351,-5.6135,-5.6104,-5.5904,-5.5747,-5.5695,-5.5703,-5.5703,-5.5703,-5.5703,-5.5703,-5.5703,-5.5703,-5.5703,-5.5703,-5.5703,-5.5703,-5.5703,-5.5703,-5.5703,-5.5703,-5.5107,-5.4376,-5.353,-5.351,-5.3395,-5.3203,-5.2519,-5.2192,-5.2192,-5.1568,-5.1164,-5.0971,-5.0971,-5.0875,-5.0702,-5.081,-5.0908,-5.1014,-5.1099,-5.1252,-5.1336,-5.0651,-5.0397,-5.0319,-4.9638,-4.9267,-4.9091,-4.9091,-4.8564,-4.7879,-4.7879,-4.7412,-4.6846,-4.6651,-4.6456,-4.63,-4.63,-4.63,-4.63,-4.63,-4.63,-4.63,-4.63,-4.63,-4.6269,-4.6135,-4.6087,-4.6002,-4.5835,-4.5778,-4.5712,-4.5612,0.0,-4.5594,-4.5594,-4.5594,-4.5594,-4.5594,-4.5594,-4.5594,-4.5594,-4.5485,-4.54,-4.54,-4.535,-4.5307,-4.5307,-4.5307,-4.5307,-4.5307,-4.5307,-4.5307,-4.5307,-4.5307,-4.5307,-4.5307,-4.5307,-4.5307,-4.5307,-4.5307,-4.5307,-4.5307,-4.5307,-4.5307,-4.5307,-4.5488,-4.5914,-4.6496,-4.729,-4.7801,-4.8168,-4.8719,-4.8693,-4.842,-5.6606,-5.6439,-5.6252,-5.6116,-5.5982,-5.5835,-5.5716,-5.5703,-5.5703,-5.5703,-5.5703,-5.5703,-5.5703,-5.5703,-5.5703,-5.5703,-5.5703,-5.5703,-5.5703,-5.5703,-5.5703,-5.5703,-5.5645,-5.5222,-5.4414,-5.4395,-5.401,-5.3203,-5.3145,-5.3106,-5.3106,-5.3049,-5.2587,-5.1808,-5.1808,-5.1395,-5.0693,-5.0702,-5.0819,-5.1002,-5.1014,-5.1163,-5.1394,-5.1336,-5.1297,-5.1297,-5.1238,-5.0692,-5.0007,-5.0007,-4.9423,-4.8701,-4.8701,-4.8662,-4.8466,-4.7723,-4.6924,-4.63,-4.63,-4.63,-4.63,-4.63,-4.63,-4.63,-4.63,-4.63,-4.6269,-4.6135,-4.6,-4.5897,-4.5815,-4.5708,-4.5612,-4.5594,0.0,0.0,-4.5594,-4.5594,-4.5594,-4.5594,-4.5594,-4.5594,-4.5594,-4.5485,-4.54,-4.54,-4.535,-4.5307,-4.5307,-4.5307,-4.5307,-4.5307,-4.5307,-4.5307,-4.5307,-4.5307,-4.5307,-4.5307,-4.5307,-4.5307,-4.5307,-4.5307,-4.5307,-4.5307,-4.5307,-4.5307,-4.5364,-4.6099,-4.6302,-4.629,-4.7889,-4.8338,-4.8191,-4.8986,-4.9048,-4.8764,-5.6606,-5.6443,-5.6261,-5.6122,-5.599,-5.5844,-5.5726,-5.5703,-5.5703,-5.5703,-5.5703,-5.5703,-5.5703,-5.5703,-5.5703,-5.5703,-5.5703,-5.5703,-5.5703,-5.5703,-5.5703,-5.5703,-5.5703,-5.5549,-5.5241,-5.5241,-5.5068,-5.4741,-5.4241,-5.401,-5.3991,-5.3453,-5.3029,-5.2712,-5.2712,-5.2241,-5.1462,-5.1527,-5.1343,-5.1008,-5.1084,-5.1222,-5.1394,-5.1394,-5.1394,-5.1394,-5.1394,-5.1199,-5.0906,-5.0906,-5.034,-4.9616,-4.9616,-4.9247,-4.874,-4.8427,-4.7764,-4.712,-4.712,-4.671,-4.63,-4.63,-4.63,-4.63,-4.63,-4.624,-4.6141,-4.6,-4.5897,-4.5802,-4.5708,-4.5618,-4.5594,-4.5594,0.0,-4.5594,-4.5594,-4.5594,-4.5594,-4.5594,-4.5594,-4.5594,-4.5594,-4.5513,-4.5438,-4.541,-4.538,-4.5338,-4.5307,-4.5307,-4.5307,-4.5307,-4.5307,-4.5307,-4.5307,-4.5307,-4.5307,-4.5307,-4.5307,-4.5307,-4.5307,-4.5307,-4.5307,-4.5307,-4.5307,-4.5583,-4.6061,-4.6366,-4.7075,-4.8017,-4.8653,-4.9004,-4.9197,-4.9485,-4.9409,-4.9113,-5.6606,-5.6497,-5.6331,-5.6128,-5.6015,-5.5896,-5.5737,-5.5703,-5.5703,-5.5703,-5.5703,-5.5703,-5.5703,-5.5703,-5.5703,-5.5703,-5.5703,-5.5703,-5.5703,-5.5703,-5.5703,-5.5703,-5.5703,-5.5703,-5.5703,-5.5703,-5.5703,-5.5703,-5.5145,-5.4876,-5.4857,-5.426,-5.3857,-5.3606,-5.3606,-5.3126,-5.2299,-5.2404,-5.2016,-5.136,-5.1482,-5.1464,-5.1335,-5.1388,-5.1394,-5.1394,-5.1394,-5.1394,-5.1394,-5.1394,-5.1004,-5.0514,-5.0514,-4.9911,-4.9208,-4.9208,-4.8623,-4.7978,-4.7978,-4.7354,-4.6632,-4.6378,-4.6271,-4.624,-4.624,-4.6138,-4.6016,-4.5892,-4.5835,-4.5757,-4.5629,-4.5594,-4.5594,-4.5594,-4.5594,-4.5594,-4.5594,-4.5594,-4.5594,-4.5594,-4.5594,-4.5594,-4.5594,-4.555,-4.5485,-4.5429,-4.5409,-4.5359,-4.5307,-4.5307,-4.5307,-4.5307,-4.5307,-4.5307,-4.5307,-4.5307,-4.5307,-4.5307,-4.5307,-4.5307,-4.5307,-4.5307,-4.5307,-4.5307,-4.5564,-4.5984,-4.6538,-4.7092,-4.8009,-4.9129,-4.9366,-4.9661,-4.9955,-4.9955,-4.9744,-4.9468,-5.6606,-5.6606,-5.6491,-5.6166,-5.6097,-5.602,-5.5738,-5.5703,-5.5703,-5.5703,-5.5703,-5.5703,-5.5703,-5.5703,-5.5703,-5.5703,-5.5703,-5.5703,-5.5703,-5.5703,-5.5703,-5.5703,-5.5703,-5.5703,-5.5703,-5.5703,-5.5703,-5.5703,-5.5703,-5.5703,-5.5703,-5.5703,-5.5261,-5.4511,-5.4511,-5.403,-5.3222,-5.3222,-5.2772,-5.2124,-5.2266,-5.1866,-5.1211,-5.1357,-5.1414,-5.1394,-5.1394,-5.1394,-5.1394,-5.1394,-5.1394,-5.1394,-5.1394,-5.0809,-5.0104,-5.0104,-4.9481,-4.8818,-4.8818,-4.8211,-4.7391,-4.6534,-4.6206,-4.6098,-4.6098,-4.5996,-4.5886,-4.5815,-4.5807,-4.5757,-4.5629,-4.5594,-4.5594,-4.5594,-4.5594,-4.5594,-4.5594,-4.5594,-4.5594,-4.5594,-4.5594,-4.5594,-4.5594,-4.555,-4.5504,-4.5504,-4.5448,-4.5359,-4.5307,-4.5307,-4.5307,-4.5307,-4.5307,-4.5307,-4.5307,-4.5307,-4.5307,-4.5307,-4.5307,-4.5307,-4.5307,-4.5307,-4.5307,-4.5354,-4.6156,-4.6519,-4.6653,-4.8391,-4.911,-4.9186,-4.9996,-5.0302,-5.0302,-5.0302,-5.0088,-4.9784,-5.6606,-5.6606,-5.6525,-5.629,-5.6158,-5.6029,-5.5863,-5.5768,-5.5703,-5.5703,-5.5703,-5.5703,-5.5703,-5.5703,-5.5703,-5.5703,-5.5703,-5.5703,-5.5703,-5.5703,-5.5703,-5.5703,-5.5703,-5.5703,-5.5703,-5.5703,-5.5703,-5.5703,-5.5703,-5.5703,-5.5703,-5.5703,-5.5568,-5.5338,-5.5338,-5.4876,-5.4107,-5.4107,-5.3687,-5.3014,-5.3165,-5.2766,-5.2123,-5.2255,-5.1921,-5.1394,-5.1394,-5.1394,-5.1394,-5.1394,-5.1394,-5.1394,-5.1394,-5.1219,-5.1004,-5.1004,-5.0399,-4.9688,-4.9591,-4.8974,-4.8152,-4.7297,-4.6583,-4.6087,-4.5983,-4.5881,-4.5815,-4.5794,-4.5739,-4.5654,-4.5603,-4.5594,-4.5594,-4.5594,-4.5594,-4.5594,-4.5594,-4.5594,-4.5594,-4.5594,-4.5594,-4.5594,-4.5594,-4.5577,-4.5559,-4.5504,-4.5448,-4.5359,-4.5307,-4.5307,-4.5307,-4.5307,-4.5307,-4.5307,-4.5307,-4.5307,-4.5307,-4.5307,-4.5307,-4.5307,-4.5326,-4.587,-4.6137,-4.6194,-4.7035,-4.7761,-4.8353,-4.8899,-4.9423,-4.9977,-5.0206,-5.0302,-5.0278,-5.0038,-5.0019,-5.0076,-5.6606,-5.6606,-5.6523,-5.6276,-5.6152,-5.6049,-5.5844,-5.5748,-5.5703,-5.5703,-5.5703,-5.5703,-5.5703,-5.5703,-5.5703,-5.5703,-5.5703,-5.5703,-5.5703,-5.5703,-5.5703,-5.5703,-5.5703,-5.5703,-5.5703,-5.5703,-5.5703,-5.5703,-5.5703,-5.5703,-5.5703,-5.5703,-5.5703,-5.5703,-5.5703,-5.5434,-5.4972,-5.4972,-5.4555,-5.3931,-5.4057,-5.3661,-5.3023,-5.3152,-5.2897,-5.239,-5.2038,-5.1902,-5.1863,-5.1511,-5.1394,-5.1394,-5.1394,-5.1394,-5.139,-5.1333,-5.0954,-5.0511,-5.0376,-4.9741,-4.8992,-4.8409,-4.7368,-4.6434,-4.6348,-4.6014,-4.5712,-4.5712,-4.5671,-4.5594,-4.5594,-4.5594,-4.5594,-4.5594,-4.5594,-4.5594,-4.5594,-4.5594,-4.5594,-4.5594,-4.5594,-4.5594,-4.5594,-4.5594,-4.5577,-4.5504,-4.5448,-4.537,-4.5338,-4.5317,-4.5307,-4.5307,-4.5307,-4.5449,-4.5774,-4.5774,-4.5774,-4.5774,-4.5774,-4.5965,-4.6309,-4.6787,-4.7005,-4.7062,-4.7933,-4.8602,-4.9129,-4.9442,-4.9862,-5.0302,-5.0302,-5.0302,-5.0278,-5.0076,-5.0132,-5.0224,-5.6606,-5.6606,-5.6494,-5.6189,-5.611,-5.6027,-5.5769,-5.5716,-5.5703,-5.5703,-5.5703,-5.5703,-5.5703,-5.5703,-5.5703,-5.5703,-5.5703,-5.5703,-5.5703,-5.5703,-5.5703,-5.5703,-5.5703,-5.5703,-5.5703,-5.5703,-5.5703,-5.5703,-5.5703,-5.5703,-5.5703,-5.5703,-5.5703,-5.5703,-5.5703,-5.5703,-5.5703,-5.5703,-5.5345,-5.4793,-5.4962,-5.4569,-5.3911,-5.4067,-5.4068,-5.3893,-5.3093,-5.2821,-5.2685,-5.1804,-5.1453,-5.1394,-5.1394,-5.1394,-5.1367,-5.1245,-5.1203,-5.1163,-5.1025,-5.046,-4.9866,-4.9729,-4.8446,-4.7194,-4.7117,-4.6378,-4.5729,-4.5729,-4.5652,-4.5594,-4.5594,-4.5594,-4.5594,-4.5594,-4.5594,-4.5594,-4.5594,-4.5594,-4.5594,-4.5594,-4.5594,-4.5594,-4.5594,-4.5594,-4.5577,-4.5504,-4.5438,-4.54,-4.5408,-4.5338,-4.5326,-4.5392,-4.5411,-4.5793,-4.6615,-4.6615,-4.6615,-4.6615,-4.6615,-4.7035,-4.7788,-4.7884,-4.7922,-4.796,-4.8831,-4.9224,-4.9263,-4.9996,-5.0302,-5.0302,-5.0302,-5.0302,-5.0302,-5.0278,-5.0267,-5.0212,-5.6606,-5.6606,-5.658,-5.6494,-5.6261,-5.6078,-5.6015,-5.5826,-5.5703,-5.5703,-5.5703,-5.5703,-5.5703,-5.5703,-5.5703,-5.5703,-5.5703,-5.5703,-5.5703,-5.5703,-5.5703,-5.5703,-5.5703,-5.5703,-5.5703,-5.5703,-5.5703,-5.5703,-5.5703,-5.5703,-5.5703,-5.5703,-5.5703,-5.5703,-5.5703,-5.5703,-5.5703,-5.5703,-5.5619,-5.5509,-5.5734,-5.5372,-5.47,-5.4928,-5.4596,-5.3971,-5.3795,-5.3717,-5.358,-5.2702,-5.196,-5.1394,-5.1394,-5.1394,-5.1367,-5.1245,-5.1203,-5.1165,-5.0978,-5.0785,-5.0631,-5.0496,-4.9652,-4.8699,-4.8025,-4.7228,-4.6624,-4.6624,-4.6086,-4.5594,-4.5594,-4.5594,-4.5594,-4.5594,-4.5594,-4.5594,-4.5594,-4.5594,-4.5594,-4.5594,-4.5594,-4.5594,-4.5594,-4.5594,-4.5577,-4.5504,-4.5438,-4.54,-4.5408,-4.5338,-4.5583,-4.6214,-4.6233,-4.6653,-4.7502,-4.7521,-4.7521,-4.7521,-4.7521,-4.7616,-4.7807,-4.8506,-4.8812,-4.885,-4.9671,-5.0034,-5.0054,-5.0225,-5.0302,-5.0302,-5.0302,-5.0302,-5.0278,-5.0012,-4.9916,-4.983,-5.6606,-5.6606,-5.6577,-5.6475,-5.6261,-5.6071,-5.6001,-5.5836,-5.5703,-5.5703,-5.5703,-5.5703,-5.5703,-5.5703,-5.5703,-5.5703,-5.5703,-5.5703,-5.5703,-5.5703,-5.5703,-5.5703,-5.5703,-5.5703,-5.5703,-5.5703,-5.5703,-5.5703,-5.5703,-5.5703,-5.5703,-5.5703,-5.5703,-5.5703,-5.5703,-5.5703,-5.5703,-5.5703,-5.5769,-5.5904,-5.6037,-5.5936,-5.5723,-5.5862,-5.565,-5.5181,-5.4771,-5.4342,-5.3932,-5.3463,-5.2741,-5.2019,-5.2019,-5.1691,-5.1284,-5.1146,-5.1078,-5.1017,-5.0839,-5.081,-5.0784,-5.0721,-5.0366,-4.9779,-4.8913,-4.8067,-4.7471,-4.7471,-4.7105,-4.6682,-4.6297,-4.622,-4.6086,-4.5671,-4.5594,-4.5594,-4.5594,-4.5594,-4.5594,-4.5594,-4.5594,-4.5594,-4.5594,-4.5594,-4.5586,-4.5559,-4.5851,-4.6023,-4.6013,-4.6313,-4.6691,-4.7111,-4.7131,-4.7551,-4.8411,-4.843,-4.8621,-4.9003,-4.8602,-4.8621,-4.9022,-4.9461,-4.9671,-4.9691,-5.0111,-5.0302,-5.0302,-5.0302,-5.0302,-5.0302,-5.0302,-5.0302,-5.0248,-4.991,-4.9603,-4.9271,-5.6606,-5.6606,-5.6553,-5.6383,-5.6232,-5.6084,-5.5943,-5.5817,-5.5726,-5.5695,-5.5703,-5.5703,-5.5703,-5.5703,-5.5703,-5.5703,-5.5703,-5.5703,-5.5703,-5.5703,-5.5703,-5.5703,-5.5703,-5.5703,-5.5703,-5.5703,-5.5703,-5.5703,-5.5703,-5.5703,-5.5703,-5.5703,-5.5703,-5.5703,-5.5703,-5.5703,-5.5714,-5.5726,-5.5844,-5.6049,-5.6104,-5.6295,-5.6523,-5.658,-5.6606,-5.6508,-5.5786,-5.4966,-5.4225,-5.4225,-5.3639,-5.2919,-5.2919,-5.2239,-5.1401,-5.1256,-5.1069,-5.0874,-5.075,-5.0712,-5.0712,-5.0712,-5.0712,-5.0519,-4.9779,-4.8952,-4.8317,-4.8317,-4.8202,-4.7894,-4.7231,-4.7096,-4.6874,-4.6144,-4.5922,-4.5825,-4.5825,-4.5691,-4.5594,-4.5594,-4.5729,-4.5883,-4.6018,-4.6037,-4.6037,-4.6037,-4.657,-4.6915,-4.6915,-4.7471,-4.7865,-4.8028,-4.8028,-4.8449,-4.9301,-4.932,-4.9633,-5.0283,-4.9614,-4.9652,-5.0302,-5.0302,-5.0302,-5.0302,-5.0302,-5.0302,-5.0302,-5.0302,-5.0302,-5.0302,-5.0302,-5.0259,-5.0169,-4.9757,-4.9271,-4.8799,-5.6606,-5.6606,-5.6584,-5.6558,-5.6406,-5.6237,-5.6091,-5.5951,-5.5836,-5.5716,-5.5703,-5.5703,-5.5703,-5.5703,-5.5703,-5.5703,-5.5703,-5.5703,-5.5703,-5.5703,-5.5703,-5.5703,-5.5703,-5.5703,-5.5703,-5.5703,-5.5703,-5.5703,-5.5703,-5.5703,-5.5703,-5.5703,-5.5703,-5.5703,-5.5703,-5.5703,-5.5724,-5.5817,-5.5827,-5.5789,-5.6135,-5.6232,-5.6195,-5.6491,-5.6606,-5.6586,-5.6469,-5.5864,-5.5123,-5.5123,-5.4537,-5.3815,-5.3815,-5.3136,-5.2301,-5.2161,-5.1541,-5.0874,-5.075,-5.0712,-5.0712,-5.0712,-5.0712,-5.0673,-5.0558,-4.9856,-4.9221,-4.9221,-4.8625,-4.8067,-4.7971,-4.7952,-4.7894,-4.7778,-4.7182,-4.6721,-4.6721,-4.6086,-4.5594,-4.5594,-4.6278,-4.7009,-4.7702,-4.7759,-4.7759,-4.7759,-4.7799,-4.7816,-4.7816,-4.7807,-4.8162,-4.8888,-4.8919,-4.9308,-5.013,-5.0149,-5.0187,-5.0302,-5.0187,-5.0187,-5.0302,-5.0302,-5.0302,-5.0302,-5.0302,-5.0302,-5.0302,-5.0302,-5.0302,-5.0302,-5.0302,-5.0132,-4.9784,-4.9161,-4.8866,-4.8764,-5.7992,-5.7992,-5.7836,-5.7367,-5.7125,-5.684,-5.631,-5.6022,-5.588,-5.5817,-5.5748,-5.5703,-5.5703,-5.5703,-5.5703,-5.5703,-5.5703,-5.5703,-5.5703,-5.5703,-5.5703,-5.5703,-5.5703,-5.5703,-5.5703,-5.5703,-5.5934,-5.6426,-5.5934,-5.5703,-5.5703,-5.5703,-5.5703,-5.5703,-5.5703,-5.5703,-5.5695,-5.5768,-5.5845,-5.5946,-5.6116,-5.6266,-5.641,-5.6548,-5.6606,-5.6606,-5.6606,-5.6352,-5.602,-5.602,-5.5454,-5.4708,-5.4635,-5.3931,-5.3086,-5.2951,-5.2213,-5.1451,-5.1395,-5.1029,-5.0712,-5.0712,-5.0712,-5.0712,-5.0712,-5.0404,-5.0125,-5.0125,-4.9817,-4.9394,-4.8913,-4.8836,-4.8663,-4.8182,-4.7798,-4.7567,-4.7567,-4.724,-4.699,-4.699,-4.7336,-4.7721,-4.8067,-4.8105,-4.8105,-4.8105,-4.849,-4.8709,-4.8679,-4.9034,-4.9419,-4.9748,-4.9767,-4.9939,-5.0302,-5.0302,-5.0302,-5.0302,-5.0302,-5.0302,-5.0302,-5.0302,-5.0302,-5.0302,-5.0302,-5.0302,-5.0302,-5.0302,-5.0302,-5.029,-5.0088,-4.9702,-4.9209,-4.89,-4.8676,-4.8495]},{"header":{"parameterUnit":"m.s-1","parameterCategory":1,"la1":30.6,"la2":28.766,"lo1":-90.7593,"lo2":-88.6598,"dy":0.0162,"dx":0.0183,"nx":116,"ny":114,"refTime":"2024-02-16T06:00:00:Z","depth":0,"parameterNumber":3,"parameterNumberName":"V-component_of_WINDS"},"data":[0.0,0.0,0.0,0.0,0.0,0.0,0.0,0.0,0.0,0.0,0.0,0.0,0.0,0.0,0.0,0.0,0.0,0.0,0.0,0.0,0.0,0.0,0.0,0.0,0.0,0.0,0.0,0.0,0.0,0.0,0.0,0.0,0.0,0.0,0.0,0.0,0.0,0.0,0.0,0.0,0.0,0.0,0.0,0.0,0.0,0.0,0.0,0.0,0.0,0.0,0.0,0.0,0.0,0.0,0.0,0.0,0.0,0.0,0.0,0.0,0.0,0.0,0.0,0.0,0.0,0.0,0.0,0.0,0.0,0.0,0.0,0.0,0.0,0.0,0.0,0.0,0.0,0.0,0.0,0.0,0.0,0.0,0.0,0.0,0.0,0.0,0.0,0.0,0.0,0.0,0.0,0.0,0.0,0.0,0.0,0.0,0.0,0.0,0.0,0.0,0.0,0.0,0.0,0.0,0.0,0.0,0.0,0.0,0.0,0.0,0.0,0.0,0.0,0.0,0.0,0.0,0.0,0.0,0.0,0.0,0.0,0.0,0.0,0.0,0.0,0.0,0.0,0.0,0.0,0.0,0.0,0.0,0.0,0.0,0.0,0.0,0.0,0.0,0.0,0.0,0.0,0.0,0.0,0.0,0.0,0.0,0.0,0.0,0.0,0.0,0.0,0.0,0.0,0.0,0.0,0.0,0.0,0.0,0.0,0.0,0.0,0.0,0.0,0.0,0.0,0.0,0.0,0.0,0.0,0.0,0.0,0.0,0.0,0.0,0.0,0.0,0.0,0.0,0.0,0.0,0.0,0.0,0.0,0.0,0.0,0.0,0.0,0.0,0.0,0.0,0.0,0.0,0.0,0.0,0.0,0.0,0.0,0.0,0.0,0.0,0.0,0.0,0.0,0.0,0.0,0.0,0.0,0.0,0.0,0.0,0.0,0.0,0.0,0.0,0.0,0.0,0.0,0.0,0.0,0.0,0.0,0.0,0.0,0.0,0.0,0.0,0.0,0.0,0.0,0.0,0.0,0.0,0.0,0.0,0.0,0.0,0.0,0.0,0.0,0.0,0.0,0.0,0.0,0.0,0.0,0.0,0.0,0.0,0.0,0.0,0.0,0.0,0.0,0.0,0.0,0.0,0.0,0.0,0.0,0.0,0.0,0.0,0.0,0.0,0.0,0.0,0.0,0.0,0.0,0.0,0.0,0.0,0.0,0.0,0.0,0.0,0.0,0.0,0.0,0.0,0.0,0.0,0.0,0.0,0.0,0.0,0.0,0.0,0.0,0.0,0.0,0.0,0.0,0.0,0.0,0.0,0.0,0.0,0.0,0.0,0.0,0.0,0.0,0.0,0.0,0.0,0.0,0.0,0.0,0.0,0.0,0.0,0.0,0.0,0.0,0.0,0.0,0.0,0.0,0.0,0.0,0.0,0.0,0.0,0.0,0.0,0.0,0.0,0.0,0.0,0.0,0.0,0.0,0.0,0.0,0.0,0.0,0.0,0.0,0.0,0.0,0.0,0.0,0.0,0.0,0.0,0.0,0.0,0.0,0.0,0.0,0.0,0.0,0.0,0.0,0.0,0.0,0.0,0.0,0.0,0.0,0.0,0.0,0.0,0.0,0.0,0.0,0.0,0.0,0.0,0.0,0.0,0.0,0.0,0.0,0.0,0.0,0.0,0.0,0.0,0.0,0.0,0.0,0.0,0.0,0.0,0.0,0.0,0.0,0.0,0.0,0.0,0.0,0.0,0.0,0.0,0.0,0.0,0.0,0.0,0.0,0.0,0.0,0.0,0.0,0.0,0.0,0.0,0.0,0.0,0.0,0.0,0.0,0.0,0.0,0.0,0.0,0.0,0.0,0.0,0.0,0.0,0.0,0.0,0.0,0.0,0.0,0.0,0.0,0.0,0.0,0.0,0.0,0.0,0.0,0.0,0.0,0.0,0.0,0.0,0.0,0.0,0.0,0.0,0.0,0.0,0.0,0.0,0.0,0.0,0.0,0.0,0.0,0.0,0.0,0.0,0.0,0.0,0.0,0.0,0.0,0.0,0.0,0.0,0.0,0.0,0.0,0.0,0.0,0.0,0.0,0.0,0.0,0.0,0.0,0.0,0.0,0.0,0.0,0.0,0.0,0.0,0.0,0.0,0.0,0.0,0.0,0.0,0.0,0.0,0.0,0.0,0.0,0.0,0.0,0.0,0.0,0.0,0.0,0.0,0.0,0.0,0.0,0.0,0.0,0.0,0.0,0.0,0.0,0.0,0.0,0.0,0.0,0.0,0.0,0.0,0.0,0.0,0.0,0.0,0.0,0.0,0.0,0.0,0.0,0.0,0.0,0.0,0.0,0.0,0.0,0.0,0.0,0.0,0.0,0.0,0.0,0.0,0.0,0.0,0.0,0.0,0.0,0.0,0.0,0.0,0.0,0.0,0.0,0.0,0.0,0.0,0.0,0.0,0.0,0.0,0.0,0.0,0.0,0.0,0.0,0.0,0.0,0.0,0.0,0.0,0.0,0.0,0.0,0.0,0.0,0.0,0.0,0.0,0.0,0.0,0.0,0.0,0.0,0.0,0.0,0.0,0.0,0.0,0.0,0.0,0.0,0.0,0.0,0.0,0.0,0.0,0.0,0.0,0.0,0.0,0.0,0.0,0.0,0.0,0.0,0.0,0.0,0.0,0.0,0.0,0.0,0.0,0.0,0.0,0.0,0.0,0.0,0.0,0.0,0.0,0.0,0.0,0.0,0.0,0.0,0.0,0.0,0.0,0.0,0.0,0.0,0.0,0.0,0.0,0.0,0.0,0.0,0.0,0.0,0.0,0.0,0.0,0.0,0.0,0.0,0.0,0.0,0.0,0.0,0.0,0.0,0.0,0.0,0.0,0.0,0.0,0.0,0.0,0.0,0.0,0.0,0.0,0.0,0.0,0.0,0.0,0.0,0.0,0.0,0.0,0.0,0.0,0.0,0.0,0.0,0.0,0.0,0.0,0.0,0.0,0.0,0.0,0.0,0.0,0.0,0.0,0.0,0.0,0.0,0.0,0.0,0.0,0.0,0.0,0.0,0.0,0.0,0.0,0.0,0.0,0.0,0.0,0.0,0.0,0.0,0.0,0.0,0.0,0.0,0.0,0.0,0.0,0.0,0.0,0.0,0.0,0.0,0.0,0.0,0.0,0.0,0.0,0.0,0.0,0.0,0.0,0.0,0.0,0.0,0.0,0.0,0.0,0.0,0.0,0.0,0.0,0.0,0.0,0.0,0.0,0.0,0.0,0.0,0.0,0.0,0.0,0.0,0.0,0.0,0.0,0.0,0.0,0.0,0.0,0.0,0.0,0.0,0.0,0.0,0.0,0.0,0.0,0.0,0.0,0.0,0.0,0.0,0.0,0.0,0.0,0.0,0.0,0.0,0.0,0.0,0.0,0.0,0.0,0.0,0.0,0.0,0.0,0.0,0.0,0.0,0.0,0.0,0.0,0.0,0.0,0.0,0.0,0.0,0.0,0.0,0.0,0.0,0.0,0.0,0.0,0.0,0.0,0.0,0.0,0.0,0.0,0.0,0.0,0.0,0.0,0.0,0.0,0.0,0.0,0.0,0.0,0.0,0.0,0.0,0.0,0.0,0.0,0.0,0.0,0.0,0.0,0.0,0.0,0.0,0.0,0.0,0.0,0.0,0.0,0.0,0.0,0.0,0.0,0.0,0.0,0.0,0.0,0.0,0.0,0.0,0.0,0.0,0.0,0.0,0.0,0.0,0.0,0.0,0.0,0.0,0.0,0.0,0.0,0.0,0.0,0.0,0.0,0.0,0.0,0.0,0.0,0.0,0.0,0.0,0.0,0.0,0.0,0.0,0.0,0.0,0.0,0.0,0.0,0.0,0.0,0.0,0.0,0.0,0.0,0.0,0.0,0.0,0.0,0.0,0.0,0.0,0.0,0.0,0.0,0.0,0.0,0.0,0.0,0.0,0.0,0.0,0.0,0.0,0.0,0.0,0.0,0.0,0.0,0.0,0.0,0.0,0.0,0.0,0.0,0.0,0.0,0.0,0.0,0.0,0.0,0.0,0.0,0.0,0.0,0.0,0.0,0.0,0.0,0.0,0.0,0.0,0.0,0.0,0.0,0.0,0.0,0.0,0.0,0.0,0.0,0.0,0.0,0.0,0.0,0.0,0.0,0.0,0.0,0.0,0.0,0.0,0.0,0.0,0.0,0.0,0.0,0.0,0.0,0.0,0.0,0.0,0.0,0.0,0.0,0.0,0.0,0.0,0.0,0.0,0.0,0.0,0.0,0.0,0.0,0.0,0.0,0.0,0.0,0.0,0.0,0.0,0.0,0.0,0.0,0.0,0.0,0.0,0.0,0.0,0.0,0.0,0.0,0.0,0.0,0.0,0.0,0.0,0.0,0.0,0.0,0.0,0.0,0.0,0.0,0.0,0.0,0.0,0.0,0.0,0.0,0.0,0.0,0.0,0.0,0.0,0.0,0.0,0.0,0.0,0.0,0.0,0.0,0.0,0.0,0.0,0.0,0.0,0.0,0.0,0.0,0.0,0.0,0.0,0.0,0.0,0.0,0.0,0.0,0.0,0.0,0.0,0.0,0.0,0.0,0.0,0.0,0.0,0.0,0.0,0.0,0.0,0.0,0.0,0.0,0.0,0.0,0.0,0.0,0.0,0.0,0.0,0.0,0.0,0.0,0.0,0.0,0.0,0.0,0.0,0.0,0.0,0.0,0.0,0.0,0.0,0.0,0.0,0.0,0.0,0.0,0.0,0.0,0.0,0.0,0.0,0.0,0.0,0.0,0.0,0.0,0.0,0.0,0.0,0.0,0.0,0.0,0.0,0.0,0.0,0.0,0.0,0.0,0.0,0.0,0.0,0.0,0.0,0.0,0.0,0.0,0.0,0.0,0.0,0.0,0.0,0.0,0.0,0.0,0.0,0.0,0.0,0.0,0.0,0.0,0.0,0.0,0.0,0.0,0.0,0.0,0.0,0.0,0.0,0.0,0.0,0.0,0.0,0.0,0.0,0.0,0.0,0.0,0.0,0.0,0.0,0.0,0.0,0.0,0.0,0.0,0.0,0.0,0.0,0.0,0.0,0.0,0.0,0.0,0.0,0.0,0.0,0.0,0.0,0.0,0.0,0.0,0.0,0.0,0.0,0.0,0.0,0.0,0.0,0.0,0.0,0.0,0.0,0.0,0.0,0.0,0.0,0.0,0.0,0.0,0.0,0.0,0.0,0.0,0.0,0.0,0.0,0.0,0.0,0.0,0.0,0.0,0.0,0.0,0.0,0.0,0.0,0.0,0.0,0.0,0.0,0.0,0.0,0.0,0.0,0.0,0.0,0.0,0.0,0.0,0.0,0.0,0.0,0.0,0.0,0.0,0.0,0.0,0.0,0.0,0.0,0.0,0.0,0.0,0.0,0.0,0.0,0.0,0.0,0.0,0.0,0.0,0.0,0.0,0.0,0.0,0.0,0.0,0.0,0.0,0.0,0.0,0.0,0.0,0.0,0.0,0.0,0.0,0.0,0.0,0.0,0.0,0.0,0.0,0.0,0.0,0.0,0.0,0.0,0.0,0.0,0.0,0.0,0.0,0.0,0.0,0.0,0.0,0.0,0.0,0.0,0.0,0.0,0.0,0.0,0.0,0.0,0.0,0.0,0.0,0.0,0.0,0.0,0.0,0.0,0.0,0.0,0.0,0.0,0.0,0.0,0.0,0.0,0.0,0.0,0.0,0.0,0.0,0.0,0.0,0.0,0.0,0.0,0.0,0.0,0.0,0.0,0.0,0.0,0.0,0.0,0.0,0.0,0.0,0.0,0.0,0.0,0.0,0.0,0.0,0.0,0.0,0.0,0.0,0.0,0.0,0.0,0.0,0.0,0.0,0.0,0.0,0.0,0.0,0.0,0.0,0.0,0.0,0.0,0.0,0.0,0.0,0.0,0.0,0.0,0.0,0.0,0.0,0.0,0.0,0.0,0.0,0.0,0.0,0.0,0.0,0.0,0.0,0.0,0.0,0.0,0.0,0.0,0.0,0.0,0.0,0.0,0.0,0.0,0.0,0.0,0.0,0.0,0.0,0.0,0.0,0.0,0.0,0.0,0.0,-1.5908,-1.5784,0.0,0.0,0.0,0.0,0.0,0.0,0.0,0.0,0.0,0.0,0.0,0.0,0.0,0.0,0.0,0.0,0.0,0.0,0.0,0.0,0.0,0.0,0.0,0.0,0.0,0.0,-0.7988,-0.7988,-0.7988,-0.7988,-0.7988,-0.7988,-0.8137,-0.8283,-0.8382,-0.8432,-0.8482,-0.8627,-0.8333,-0.8283,-0.8432,-0.8829,-0.913,-0.943,0.0,0.0,0.0,0.0,0.0,0.0,0.0,0.0,0.0,0.0,0.0,0.0,0.0,0.0,0.0,0.0,0.0,0.0,0.0,0.0,0.0,0.0,0.0,0.0,0.0,0.0,0.0,0.0,0.0,0.0,0.0,0.0,0.0,0.0,0.0,0.0,0.0,0.0,0.0,0.0,0.0,0.0,0.0,0.0,0.0,0.0,0.0,0.0,0.0,0.0,0.0,0.0,0.0,0.0,0.0,0.0,0.0,0.0,0.0,0.0,0.0,0.0,0.0,0.0,0.0,0.0,0.0,0.0,0.0,0.0,-1.6029,-1.5887,0.0,0.0,0.0,0.0,0.0,0.0,0.0,0.0,0.0,0.0,0.0,0.0,0.0,0.0,0.0,0.0,0.0,0.0,0.0,0.0,0.0,0.0,0.0,-0.7988,-0.7988,-0.7988,-0.7988,-0.7988,-0.7988,-0.7988,-0.7988,-0.7988,-0.7988,-0.8088,-0.8333,-0.8137,-0.8088,-0.8333,-0.8088,-0.8137,-0.8333,-0.8577,-0.8779,-0.9084,0.0,0.0,0.0,0.0,0.0,0.0,0.0,0.0,0.0,0.0,0.0,0.0,0.0,0.0,0.0,0.0,0.0,0.0,0.0,0.0,0.0,0.0,0.0,0.0,0.0,0.0,0.0,0.0,0.0,0.0,0.0,0.0,0.0,0.0,0.0,0.0,0.0,0.0,0.0,0.0,0.0,0.0,0.0,0.0,0.0,0.0,0.0,0.0,0.0,0.0,0.0,0.0,0.0,0.0,0.0,0.0,0.0,0.0,0.0,0.0,0.0,0.0,0.0,0.0,-1.6494,-1.6494,-1.6541,-1.6494,-1.6359,-1.6211,-1.6083,-1.5945,-1.5792,-1.5899,0.0,0.0,0.0,0.0,0.0,0.0,0.0,0.0,0.0,0.0,0.0,0.0,0.0,0.0,0.0,0.0,0.0,0.0,0.0,0.0,0.0,-0.7988,-0.7988,-0.7988,-0.7988,-0.7988,-0.7988,-0.7988,-0.7988,-0.7988,-0.7988,-0.8041,-0.8038,-0.8041,-0.8041,-0.8038,-0.8041,-0.8041,-0.8038,-0.8088,-0.8237,-0.8531,-0.873,0.0,0.0,0.0,0.0,0.0,0.0,0.0,0.0,0.0,0.0,0.0,0.0,0.0,0.0,0.0,0.0,0.0,0.0,0.0,0.0,0.0,0.0,0.0,0.0,0.0,0.0,0.0,0.0,0.0,0.0,0.0,0.0,0.0,0.0,0.0,0.0,0.0,0.0,0.0,0.0,0.0,0.0,0.0,-0.9673,-0.9772,0.0,0.0,0.0,0.0,0.0,0.0,0.0,0.0,0.0,0.0,0.0,0.0,0.0,-1.6224,-1.6224,-1.6021,-1.6021,-1.6265,-1.6021,-1.6021,-1.6224,-1.6021,-1.6021,-1.6177,-1.5934,0.0,-1.6028,-1.581,0.0,0.0,0.0,0.0,0.0,0.0,0.0,0.0,0.0,0.0,0.0,0.0,0.0,0.0,0.0,0.0,0.0,0.0,0.0,0.0,0.0,-0.7988,-0.7988,-0.7988,-0.7988,-0.7988,-0.7988,-0.7988,-0.7988,-0.7988,-0.7988,-0.7988,-0.7988,-0.7988,-0.7988,-0.7988,-0.7988,-0.7988,-0.7988,-0.7988,-0.8088,-0.8184,-0.8287,-0.8531,-0.8825,-0.8825,0.0,0.0,0.0,0.0,0.0,0.0,0.0,0.0,0.0,0.0,0.0,0.0,0.0,0.0,0.0,0.0,0.0,0.0,0.0,0.0,0.0,0.0,0.0,0.0,0.0,0.0,0.0,0.0,0.0,0.0,0.0,0.0,0.0,0.0,0.0,0.0,0.0,0.0,0.0,-1.0984,-1.157,-1.216,-1.2775,-1.3349,0.0,0.0,0.0,0.0,0.0,0.0,0.0,0.0,0.0,-1.6224,-1.6224,-1.6211,-1.6278,-1.6127,-1.6214,-1.648,-1.6368,-1.6375,-1.648,-1.6375,-1.6375,-1.6473,-1.6375,-1.6447,-1.6642,-1.6163,-1.6083,-1.6281,0.0,0.0,0.0,0.0,-1.6118,-1.5969,0.0,0.0,0.0,0.0,0.0,0.0,0.0,0.0,0.0,0.0,0.0,0.0,-0.7988,-0.7988,-0.7988,-0.7988,-0.7988,-0.7988,-0.7988,-0.7988,-0.7988,-0.7988,-0.7988,-0.7988,-0.7988,-0.7988,-0.8008,-0.8099,-0.8099,-0.8116,-0.8153,-0.8153,-0.8153,-0.8153,-0.8153,-0.831,-0.8577,-0.8577,-0.8577,0.0,0.0,0.0,0.0,0.0,0.0,0.0,0.0,0.0,0.0,0.0,0.0,0.0,0.0,0.0,0.0,0.0,0.0,0.0,0.0,0.0,0.0,0.0,0.0,0.0,0.0,0.0,0.0,0.0,0.0,0.0,0.0,0.0,0.0,0.0,0.0,0.0,0.0,-1.1853,-1.2732,-1.3757,-1.4334,-1.4813,0.0,0.0,0.0,0.0,0.0,0.0,-1.6334,-1.6341,-1.6327,-1.6347,-1.6354,-1.6359,-1.638,-1.6386,-1.6493,-1.6707,-1.6707,-1.6707,-1.6707,-1.6707,-1.6707,-1.6707,-1.6707,-1.6807,-1.698,-1.6456,-1.6286,-1.6422,-1.6482,-1.6395,-1.6239,-1.6292,-1.6183,-1.5986,0.0,0.0,0.0,0.0,0.0,0.0,0.0,0.0,0.0,0.0,0.0,-0.7988,-0.7988,-0.7988,-0.7988,-0.7988,-0.7988,-0.7988,-0.7988,-0.7988,-0.7988,-0.7988,-0.7988,-0.7988,-0.7988,-0.7988,-0.8113,-0.831,-0.831,-0.833,-0.8459,-0.8459,-0.8459,-0.8459,-0.8459,-0.8303,-0.8038,-0.8038,-0.8038,-0.8038,0.0,0.0,0.0,0.0,0.0,0.0,0.0,0.0,0.0,0.0,0.0,0.0,0.0,0.0,0.0,0.0,0.0,0.0,0.0,0.0,0.0,0.0,0.0,0.0,0.0,0.0,0.0,0.0,0.0,0.0,0.0,0.0,0.0,0.0,0.0,0.0,0.0,0.0,0.0,-1.2678,-1.3709,0.0,0.0,0.0,0.0,-1.6218,-1.665,-1.6871,-1.669,-1.6655,-1.6681,-1.6653,-1.666,-1.6673,-1.6687,-1.6687,-1.6693,-1.6707,-1.6707,-1.6707,-1.6707,-1.6707,-1.6707,-1.6707,-1.6707,-1.6707,-1.668,-1.6422,-1.6538,-1.6891,-1.6422,-1.6353,-1.6608,-1.6857,-1.6943,-1.6976,0.0,0.0,0.0,0.0,0.0,0.0,0.0,0.0,-0.7988,-0.7988,-0.7988,-0.7988,-0.7988,-0.7988,-0.7988,-0.7988,-0.7988,-0.7988,-0.7988,-0.7988,-0.7988,-0.7988,-0.7988,-0.8085,-0.8184,-0.8275,-0.835,-0.8408,-0.8408,-0.8482,-0.8628,-0.8628,-0.8628,-0.8628,-0.8628,-0.8516,-0.8316,-0.8228,-0.8187,-0.818,-0.8179,-0.8333,0.0,0.0,0.0,0.0,0.0,0.0,0.0,0.0,0.0,0.0,0.0,0.0,0.0,0.0,0.0,0.0,0.0,0.0,0.0,0.0,0.0,0.0,0.0,0.0,0.0,0.0,0.0,0.0,0.0,0.0,0.0,0.0,0.0,0.0,0.0,0.0,0.0,-1.4663,-1.5159,0.0,-1.5302,-1.6101,-1.6608,-1.6519,-1.669,-1.684,-1.6956,-1.6808,-1.6699,-1.67,-1.6894,-1.7081,-1.7268,-1.7455,-1.7649,-1.7856,-1.7856,-1.7856,-1.7856,-1.7856,-1.7856,-1.7842,-1.7635,-1.7549,-1.7508,-1.7085,-1.687,-1.6781,-1.6587,-1.6589,-1.6687,-1.6785,-1.6792,-1.6856,0.0,0.0,0.0,0.0,0.0,0.0,0.0,0.0,-0.7988,-0.7988,-0.7988,-0.7988,-0.7988,-0.7988,-0.7988,-0.7988,-0.7988,-0.7988,-0.7988,-0.7988,-0.8012,-0.8116,-0.8163,-0.8235,-0.834,-0.8486,-0.8584,-0.8635,-0.8686,-0.8788,-0.8937,-0.8937,-0.8937,-0.8937,-0.8937,-0.8879,-0.8774,-0.8577,-0.8435,-0.833,-0.8177,-0.8363,-0.8757,0.0,0.0,0.0,0.0,0.0,0.0,0.0,0.0,0.0,0.0,0.0,0.0,0.0,0.0,0.0,0.0,0.0,0.0,0.0,0.0,0.0,0.0,0.0,0.0,0.0,0.0,0.0,0.0,0.0,0.0,0.0,0.0,0.0,0.0,-1.3644,-1.4908,-1.5255,-1.5871,-1.6177,-1.5979,-1.6496,-1.6777,-1.6728,-1.6799,-1.6951,-1.7255,-1.7109,-1.7094,-1.7301,-1.7502,-1.7749,-1.7889,-1.8076,-1.8283,-1.849,-1.849,-1.849,-1.849,-1.849,-1.849,-1.8477,-1.827,-1.8176,-1.815,-1.7816,-1.7482,-1.7268,-1.686,-1.6757,-1.6864,-1.6957,-1.7007,-1.7129,0.0,0.0,0.0,0.0,0.0,0.0,0.0,-0.7988,-0.7988,-0.7988,-0.7988,-0.7988,-0.7988,-0.7988,-0.7988,-0.7988,-0.7988,-0.7992,-0.7995,-0.7995,-0.8116,-0.8323,-0.8414,-0.8489,-0.8496,-0.8645,-0.8801,-0.8898,-0.9093,-0.9296,-0.9388,-0.9388,-0.9388,-0.9388,-0.9388,-0.9388,-0.9361,-0.9076,-0.8781,-0.8496,-0.8391,-0.848,-0.8714,0.0,0.0,0.0,0.0,0.0,0.0,0.0,0.0,0.0,0.0,0.0,0.0,0.0,0.0,0.0,0.0,0.0,0.0,0.0,0.0,0.0,0.0,0.0,0.0,0.0,0.0,0.0,0.0,0.0,0.0,0.0,0.0,0.0,-1.1219,-1.2101,-1.3178,-1.4208,-1.5525,-1.6286,-1.6286,-1.6815,-1.6991,-1.6734,-1.7011,-1.7276,-1.7635,-1.7609,-1.7883,-1.847,-1.8497,-1.8504,-1.8504,-1.851,-1.8517,-1.8517,-1.8517,-1.8517,-1.8517,-1.8517,-1.8517,-1.8517,-1.851,-1.8504,-1.8504,-1.8497,-1.849,-1.8377,-1.7201,-1.6904,-1.7161,-1.7391,-1.7683,-1.7931,0.0,0.0,0.0,0.0,0.0,0.0,0.0,-0.7988,-0.7988,-0.7988,-0.7988,-0.7988,-0.7988,-0.7988,-0.7988,-0.7988,-0.7988,-0.8039,-0.8201,-0.8208,-0.8272,-0.8418,-0.8567,0.0,-0.8811,-0.8957,-0.9106,-0.9259,-0.93,-0.9398,-0.9547,-0.9547,-0.9547,-0.9547,-0.9547,-0.9486,-0.9374,-0.9293,-0.9211,-0.9093,-0.8615,-0.8584,-0.8883,0.0,0.0,0.0,0.0,0.0,0.0,0.0,0.0,0.0,0.0,0.0,0.0,0.0,0.0,0.0,0.0,0.0,0.0,0.0,0.0,0.0,0.0,0.0,0.0,0.0,0.0,0.0,0.0,0.0,0.0,0.0,-1.0672,-1.1702,-1.2219,-1.3372,-1.4576,-1.5612,-1.6259,-1.6587,-1.6587,-1.7099,-1.7504,-1.7608,-1.7915,-1.8232,-1.8551,-1.8346,-1.8317,-1.8484,-1.8698,-1.8804,-1.8804,-1.9018,-1.9125,-1.9125,-1.9125,-1.9125,-1.9125,-1.9125,-1.9125,-1.9118,-1.8898,-1.8804,-1.8784,-1.8577,-1.849,-1.8437,-1.7889,-1.7682,-1.7761,-1.763,-1.7575,-1.7645,0.0,0.0,0.0,0.0,0.0,0.0,0.0,-0.7988,-0.7988,-0.7988,-0.7988,-0.7988,-0.7988,-0.7988,-0.7988,-0.7988,-0.7988,-0.8106,-0.831,-0.8387,0.0,0.0,0.0,-0.8937,-0.9025,-0.9235,-0.9388,-0.9476,-0.9537,-0.9612,-0.9696,-0.9696,-0.9696,-0.9696,-0.9696,-0.9649,-0.9561,-0.9503,-0.9476,-0.9442,-0.9025,-0.8951,-0.9083,-0.9015,-0.924,-0.9521,-0.9523,-0.959,-0.9579,-0.9579,0.0,0.0,0.0,0.0,0.0,0.0,0.0,0.0,0.0,0.0,0.0,0.0,0.0,0.0,0.0,0.0,0.0,0.0,0.0,0.0,0.0,0.0,0.0,0.0,-1.0774,-1.1738,-1.2243,-1.3801,-1.5152,-1.5761,-1.6568,-1.7074,-1.7074,-1.7615,-1.8017,-1.8185,-1.8406,-1.8593,-1.8881,-1.8727,-1.8731,-1.8851,-1.9025,-1.9112,-1.9112,-1.9279,-1.9424,-1.9424,-1.9424,-1.9424,-1.9424,-1.9424,-1.9424,-1.9417,-1.9185,-1.9112,-1.9098,-1.8931,-1.8858,-1.8818,0.0,0.0,0.0,0.0,-1.8496,-1.8489,0.0,0.0,0.0,0.0,0.0,0.0,0.0,-0.7988,-0.7988,-0.7988,-0.7988,-0.7988,-0.7988,-0.7988,-0.7988,-0.7988,-0.7988,-0.8113,-0.8282,0.0,0.0,-0.8733,-0.9005,-0.9217,-0.9234,-0.9462,-0.9615,-0.9635,-0.9758,-0.9822,-0.9822,-0.9822,-0.9822,-0.9822,-0.9822,-0.9822,-0.9812,-0.9686,-0.9635,-0.9618,-0.9466,-0.9339,-0.9258,-0.9076,-0.9227,-0.9485,-0.9544,-0.9585,-0.9652,-0.9583,0.0,0.0,0.0,0.0,0.0,0.0,0.0,0.0,0.0,0.0,0.0,0.0,0.0,0.0,0.0,0.0,0.0,0.0,0.0,0.0,0.0,0.0,0.0,0.0,-1.0982,-1.1795,-1.2161,-1.4014,-1.5311,-1.5281,-1.6665,-1.7649,-1.7682,-1.8203,-1.8544,-1.8544,-1.8571,-1.8704,-1.8958,-1.8978,0.0,0.0,0.0,-1.9424,-1.9424,-1.9424,-1.9424,-1.9424,-1.9424,-1.9424,-1.9424,-1.9424,-1.9424,-1.9424,-1.9424,-1.9424,-1.9424,-1.9424,-1.9424,-1.9312,-1.8758,-1.8684,-1.8919,-1.9477,-1.9697,-1.9716,0.0,0.0,0.0,0.0,0.0,0.0,0.0,-0.7988,-0.7988,-0.7988,-0.7988,-0.7988,-0.7988,-0.7988,-0.7988,-0.7988,-0.7988,-0.8153,0.0,0.0,0.0,0.0,-0.9059,-0.9268,-0.9334,-0.9517,-0.9666,-0.9781,-0.9805,-0.9822,-0.9822,-0.9822,-0.9822,-0.9822,-0.9822,-0.9822,-0.9819,-0.9791,-0.9781,-0.9768,-0.9625,-0.9439,-0.9258,-0.9523,-0.9561,-0.9538,-0.9733,-0.9813,-0.9815,-0.9673,-0.9579,-0.9579,-0.9579,0.0,0.0,0.0,0.0,0.0,0.0,0.0,0.0,0.0,0.0,0.0,0.0,0.0,0.0,0.0,0.0,0.0,0.0,0.0,0.0,-1.1139,-1.1733,-1.2805,-1.4883,-1.5678,-1.5999,-1.5787,-1.703,-1.805,-1.829,-1.8637,-1.8838,-1.8838,-1.9065,-1.9219,-1.9279,-1.9279,-1.9305,-1.9424,-1.9424,-1.9424,-1.9424,-1.9424,-1.9424,-1.9424,-1.9424,0.0,-1.9424,-1.9424,-1.9424,-1.9424,-1.9424,-1.9424,-1.9424,-1.9424,-1.9424,-1.939,-1.8978,-1.8698,-1.8594,-1.8919,-1.9085,-1.9133,0.0,0.0,0.0,0.0,0.0,0.0,0.0,-0.7988,-0.7988,-0.7988,-0.7988,-0.7988,-0.7988,-0.7988,-0.7988,-0.7988,-0.8109,-0.8218,0.0,-0.8584,0.0,0.0,0.0,-0.9361,-0.9381,-0.9602,-0.9751,-0.9822,-0.9822,-0.9822,-0.9822,-0.9822,-0.9822,-0.9822,-0.9822,-0.9822,-0.9822,-0.9822,-0.9822,-0.9815,-0.9744,-0.9581,-0.9415,-0.9469,-0.9504,-0.954,-0.9639,-0.978,-0.9872,-0.9786,-0.9697,-0.9579,-0.9579,-0.9579,-0.9579,0.0,0.0,0.0,0.0,0.0,0.0,0.0,0.0,0.0,0.0,0.0,0.0,0.0,0.0,-0.9758,-0.9758,0.0,-1.0261,-1.0923,-1.1755,-1.2822,-1.4234,-1.5626,-1.6631,-1.7114,-1.7967,-1.8544,-1.8691,-1.8971,-1.9145,-1.9145,-1.9285,-1.9424,-1.9424,-1.9424,-1.9424,-1.9424,-1.9424,-1.9424,-1.9424,-1.9424,-1.9424,-1.9424,-1.9424,-1.9424,-1.9424,-1.9424,-1.9424,-1.9424,-1.9424,-1.9424,-1.9424,-1.9424,-1.9424,-1.9352,-1.9205,-1.9058,-1.8981,-1.9258,-1.9364,-1.94,0.0,0.0,0.0,0.0,0.0,0.0,0.0,-0.7988,-0.7988,-0.7988,-0.7988,-0.7988,-0.7988,-0.7988,-0.7988,-0.7988,-0.8153,0.0,0.0,0.0,0.0,0.0,0.0,0.0,0.0,-0.9642,-0.9791,-0.9822,-0.9822,-0.9822,-0.9822,-0.9822,-0.9822,-0.9822,-0.9822,-0.9822,-0.9822,-0.9822,-0.9822,-0.9822,-0.9822,-0.972,-0.9537,-0.935,-0.936,-0.954,-0.9531,-0.9632,-0.9831,-0.9845,-0.972,-0.9579,-0.9579,-0.9579,-0.9579,-0.9579,-0.9579,0.0,0.0,0.0,0.0,0.0,0.0,0.0,0.0,-0.9579,-0.9587,-0.9669,-0.9786,-0.9896,-0.9933,-1.0087,-1.0379,-1.072,-1.1543,-1.2404,-1.3206,-1.4856,-1.6535,-1.8134,-1.8642,-1.8945,-1.9005,-1.9225,-1.9424,-1.9424,-1.9424,-1.9424,-1.9424,-1.9424,-1.9424,-1.9424,-1.9424,-1.9424,-1.9424,-1.9424,-1.9424,-1.9424,-1.9424,-1.9424,-1.9424,-1.9424,-1.9424,-1.9424,-1.9424,-1.9424,-1.9424,-1.9424,-1.9424,-1.9424,-1.9424,-1.9424,-1.9424,-1.97,-1.9815,-1.9839,0.0,0.0,0.0,0.0,0.0,0.0,0.0,0.0,-0.7988,-0.7988,-0.7988,-0.7988,-0.7988,-0.7988,-0.7988,-0.7988,0.0,0.0,0.0,0.0,0.0,0.0,0.0,0.0,0.0,0.0,0.0,-0.9822,-0.9822,-0.9822,-0.9822,-0.9822,-0.9822,-0.9822,-0.9822,-0.9822,-0.9822,-0.9822,-0.9822,-0.9822,-0.9822,-0.9652,-0.9401,-0.9367,-0.9478,-0.9566,-0.9504,-0.9606,-0.9692,-0.9583,-0.957,-0.9579,-0.9579,-0.9579,-0.9579,-0.9579,0.0,-0.9579,-0.9579,-0.9579,-0.9579,-0.9579,-0.9579,-0.9579,0.0,-0.9579,-0.9669,-0.9823,-0.9872,-0.9937,-1.0151,-1.0282,-1.0778,-1.1977,-1.1581,-1.2007,-1.45,-1.4235,-1.4734,-1.7282,-1.8358,-1.9025,-1.9292,-1.941,-1.9424,-1.9424,-1.9424,-1.9424,-1.9424,-1.9424,-1.9424,-1.9424,-1.9424,-1.9424,-1.9424,-1.9424,-1.9424,-1.9424,-1.9424,-1.9424,-1.9424,-1.9424,-1.9424,-1.9424,-1.9424,-1.9424,-1.9424,-1.9424,-1.9424,-1.9424,-1.9424,-1.9424,-1.9424,-1.97,-1.9815,-1.9866,0.0,0.0,0.0,0.0,0.0,0.0,0.0,0.0,0.0,-0.7988,-0.7988,-0.7988,-0.7988,-0.7988,-0.7988,0.0,0.0,0.0,0.0,0.0,0.0,0.0,0.0,0.0,0.0,0.0,0.0,0.0,-0.9781,-0.9822,-0.9822,-0.9822,-0.9822,-0.9822,-0.9822,-0.9822,-0.9822,-0.9822,-0.9822,-0.9815,-0.973,-0.9625,-0.9496,-0.9317,-0.9322,-0.9405,-0.9625,-0.9765,0.0,0.0,-0.9827,-0.9762,-0.9661,-0.9579,-0.9579,-0.9579,-0.9579,0.0,-0.9579,-0.9579,-0.9579,-0.9579,-0.9579,-0.9652,-0.9754,-0.9778,-0.9827,-1.001,-1.0132,-1.0229,-1.0306,-1.0465,-1.0807,-1.1479,-1.195,-1.2685,-1.396,-1.4466,-1.5108,-1.6267,-1.7422,-1.8455,-1.9294,-1.9424,-1.9424,-1.9424,-1.9424,-1.9424,-1.9424,-1.9424,-1.9424,-1.9424,-1.9424,-1.9424,-1.9424,-1.9424,-1.9424,-1.9424,-1.9424,-1.9424,-1.9424,-1.9424,-1.9424,-1.9424,-1.9424,-1.9424,-1.9424,-1.9424,-1.9424,-1.9424,-1.9424,-1.9424,-1.9424,-1.954,-1.9591,-1.9591,0.0,0.0,0.0,0.0,0.0,0.0,0.0,0.0,0.0,0.0,-0.7988,-0.7988,-0.7988,-0.7988,-0.7988,0.0,0.0,0.0,0.0,0.0,0.0,0.0,0.0,0.0,0.0,0.0,0.0,0.0,0.0,0.0,-0.9764,-0.9802,-0.9822,-0.9822,-0.9822,-0.9798,-0.9764,-0.9764,-0.9737,-0.969,-0.9588,-0.952,-0.9459,-0.9296,-0.9212,-0.9245,-0.9566,-0.9733,0.0,0.0,-0.9954,-0.9791,-0.9665,-0.9579,-0.9579,-0.9579,-0.9661,-0.9689,-0.9591,-0.9661,-0.9697,-0.9697,-0.9697,-0.9746,-0.992,-0.9961,-1.0014,-1.0201,-1.0343,-1.0395,-1.0443,-1.0647,-1.083,-1.1009,-1.1981,-1.2748,-1.2953,-1.3877,-1.4684,-1.5035,-1.6214,-1.7461,-1.8765,-1.9185,-1.9424,-1.9424,-1.9424,-1.9424,-1.9424,-1.9424,-1.9424,-1.9424,-1.9424,-1.9424,-1.9424,-1.9424,-1.9424,-1.9424,-1.9424,-1.9424,-1.9424,-1.9424,-1.9424,-1.9424,-1.9424,-1.9424,-1.9424,-1.9424,-1.9424,-1.9424,-1.9424,-1.9424,-1.9424,-1.9424,-1.9424,-1.9424,0.0,0.0,0.0,0.0,0.0,0.0,0.0,0.0,0.0,0.0,0.0,0.0,0.0,0.0,0.0,0.0,0.0,0.0,0.0,0.0,0.0,0.0,0.0,0.0,0.0,0.0,0.0,0.0,0.0,0.0,0.0,-0.9754,-0.9822,-0.9822,-0.9822,-0.9744,-0.9615,-0.9615,-0.953,-0.9395,-0.9391,-0.9357,-0.9221,-0.9214,-0.9137,-0.9118,-0.9322,0.0,0.0,0.0,-0.9674,-0.9583,-0.9579,-0.9579,0.0,-0.9579,-0.9746,-0.9839,-0.9673,-0.975,-0.9876,-0.9876,-0.9876,-0.9925,-1.0163,-1.0204,-1.0205,-1.0387,-1.0379,-1.0485,-1.0651,-1.0834,-1.1017,-1.1187,-1.137,-1.1616,-1.18,-1.1893,-1.2367,-1.3605,-1.4857,-1.6161,-1.7455,-1.8648,-1.9424,-1.9424,-1.9424,-1.9424,-1.9424,-1.9424,-1.9424,-1.9424,-1.9424,-1.9424,-1.9424,-1.9424,-1.9424,-1.9424,-1.9424,-1.9424,-1.9424,-1.9424,-1.9424,-1.9424,-1.9424,-1.9424,-1.9424,-1.9424,-1.9424,-1.9424,-1.9424,-1.9424,-1.9424,-1.9424,-1.9424,-1.9424,0.0,0.0,0.0,0.0,0.0,0.0,0.0,0.0,0.0,0.0,0.0,0.0,0.0,0.0,0.0,0.0,0.0,0.0,0.0,0.0,0.0,0.0,0.0,0.0,0.0,0.0,0.0,0.0,0.0,0.0,0.0,0.0,0.0,-0.953,-0.953,-0.9503,-0.9459,-0.9459,-0.9429,-0.9371,-0.9326,-0.914,-0.8998,-0.8896,-0.8787,-0.8776,0.0,0.0,0.0,0.0,0.0,-0.9778,-0.9665,-0.9579,-0.9648,-0.9766,-0.9839,-0.99,-0.9965,-0.9933,-0.9916,-1.009,-1.0118,-1.0115,-1.0302,-1.0343,-1.0391,-1.057,-1.0704,-1.0806,-1.0867,-1.1021,-1.1196,-1.1374,-1.2156,-1.2563,-1.1872,-1.2548,-1.3195,-1.3665,-1.4798,-1.6101,-1.7396,-1.8648,-1.9424,-1.9424,-1.9424,-1.9424,-1.9424,-1.9424,-1.9424,-1.9424,-1.9424,-1.9424,-1.9424,-1.9424,-1.9424,-1.9424,-1.9424,-1.9424,-1.9424,-1.9424,-1.9424,-1.9424,-1.9424,-1.9424,-1.9424,-1.9424,-1.9424,-1.9424,-1.9424,-1.9424,-1.9424,-1.9424,-1.9424,-1.9424,0.0,0.0,0.0,0.0,0.0,0.0,0.0,0.0,0.0,0.0,0.0,0.0,0.0,0.0,0.0,0.0,0.0,0.0,0.0,0.0,0.0,0.0,0.0,0.0,0.0,0.0,0.0,0.0,0.0,0.0,0.0,0.0,0.0,0.0,-0.93,-0.9273,-0.9222,-0.9164,-0.914,-0.913,-0.903,-0.8889,-0.8842,-0.8686,-0.8586,0.0,0.0,0.0,0.0,0.0,-0.9843,-0.9774,-0.9661,-0.9669,-0.973,-0.9778,-0.9929,-1.0079,-1.0067,-1.0071,-1.0107,-1.0229,-1.0257,-1.0306,-1.0485,-1.0526,-1.0558,-1.0668,-1.0789,-1.0871,-1.0871,-1.1013,-1.1191,-1.137,-1.2156,-1.2504,-1.1872,-1.2487,-1.3015,-1.3015,-1.4565,-1.5924,-1.675,-1.8415,-1.9424,-1.9424,-1.9424,-1.9424,-1.9424,-1.9424,-1.9424,-1.9424,-1.9424,-1.9424,-1.9424,-1.9424,-1.9424,-1.9424,-1.9424,-1.9424,-1.9424,-1.9424,-1.9424,-1.9424,-1.9424,-1.9424,-1.9424,-1.9424,-1.9424,-1.9424,-1.9424,-1.9424,-1.9424,-1.9424,-1.9424,-1.9424,0.0,0.0,0.0,0.0,0.0,0.0,0.0,0.0,0.0,0.0,0.0,0.0,0.0,0.0,0.0,0.0,0.0,0.0,0.0,0.0,0.0,0.0,0.0,0.0,0.0,0.0,0.0,0.0,0.0,0.0,0.0,0.0,0.0,0.0,-0.9176,-0.9042,-0.8851,-0.876,-0.8699,-0.8686,-0.854,-0.8564,-0.8672,-0.8526,0.0,0.0,0.0,0.0,0.0,0.0,-0.9762,-0.9579,-0.9579,-0.9746,-0.9851,-0.9689,-0.9958,-1.0347,-1.0006,-1.0168,-1.0383,-1.0391,-1.0395,-1.0489,-1.0655,-1.0692,-1.0692,-1.0692,-1.07,-1.0708,-1.0708,-1.0858,-1.1037,-1.1208,-1.1382,-1.1565,-1.1752,-1.1776,-1.1837,-1.1897,-1.4093,-1.5634,-1.5688,-1.7941,-1.9424,-1.9424,-1.9424,-1.9424,-1.9424,-1.9424,-1.9424,-1.9424,-1.9424,-1.9424,-1.9424,-1.9424,-1.9424,-1.9424,-1.9424,-1.9424,-1.9424,-1.9424,-1.9424,-1.9424,-1.9424,-1.9424,-1.9424,-1.9424,-1.9424,-1.9424,-1.9424,-1.9424,-1.9424,-1.9424,-1.9424,-1.9424,0.0,0.0,0.0,0.0,0.0,0.0,0.0,0.0,0.0,0.0,0.0,0.0,0.0,0.0,0.0,0.0,0.0,0.0,0.0,0.0,0.0,0.0,0.0,0.0,0.0,0.0,0.0,0.0,0.0,0.0,0.0,0.0,0.0,0.0,0.0,-0.8632,-0.8598,-0.8557,-0.854,-0.8537,0.0,-0.8442,-0.8377,0.0,0.0,0.0,0.0,0.0,0.0,0.0,-0.9665,-0.9579,-0.9579,-0.9746,-0.9876,-0.9831,-1.0014,-1.0241,-1.0282,-1.031,-1.0465,-1.0595,-1.0627,-1.0639,-1.068,-1.0692,-1.0692,-1.0692,-1.0802,-1.0899,-1.0899,-1.1041,-1.1216,-1.1399,-1.1468,-1.1565,-1.1752,-1.1776,-1.213,-1.3075,-1.4624,-1.5983,-1.6921,-1.8473,-1.9424,-1.9424,-1.9424,-1.9424,-1.9424,-1.9424,-1.9424,-1.9424,-1.9424,-1.9424,-1.9424,-1.9424,-1.9424,-1.9424,-1.9424,-1.9424,-1.9424,-1.9424,-1.9424,-1.9424,-1.9424,-1.9424,-1.9424,-1.9424,-1.9424,-1.9424,-1.9424,-1.9424,-1.9424,-1.9424,-1.9424,-1.9424,0.0,0.0,0.0,0.0,0.0,0.0,0.0,0.0,0.0,0.0,0.0,0.0,0.0,0.0,0.0,0.0,0.0,0.0,0.0,0.0,0.0,0.0,0.0,0.0,0.0,0.0,0.0,0.0,0.0,0.0,0.0,0.0,0.0,0.0,0.0,-0.8387,-0.8384,0.0,0.0,0.0,0.0,0.0,0.0,0.0,0.0,0.0,0.0,0.0,0.0,0.0,0.0,-0.9579,-0.9579,-0.9746,-0.9868,-0.9795,-1.0014,-1.0286,-1.031,-1.0428,-1.057,-1.0668,-1.0692,-1.0692,-1.0692,-1.0692,-1.0692,-1.0692,-1.0773,-1.0846,-1.0846,-1.0928,-1.1049,-1.1236,-1.133,-1.1443,-1.163,-1.1723,-1.2074,-1.2784,-1.3968,-1.5268,-1.6514,-1.7812,-1.8829,-1.9366,-1.9424,-1.9424,-1.9424,-1.9424,-1.9424,-1.9424,-1.9424,-1.9424,-1.9424,-1.9424,-1.9424,-1.9424,-1.9424,-1.9424,-1.9424,-1.9424,-1.9424,-1.9424,-1.9424,-1.9424,-1.9424,-1.9424,-1.9424,-1.9424,-1.9424,-1.9424,-1.9424,-1.9424,-1.9424,-1.9424,0.0,0.0,0.0,0.0,0.0,0.0,0.0,0.0,0.0,0.0,0.0,0.0,0.0,0.0,0.0,0.0,0.0,0.0,0.0,0.0,0.0,0.0,0.0,0.0,0.0,0.0,0.0,0.0,0.0,0.0,0.0,0.0,0.0,0.0,0.0,0.0,0.0,0.0,0.0,0.0,0.0,0.0,0.0,0.0,0.0,0.0,0.0,0.0,0.0,0.0,-0.9579,-0.9579,-0.9579,-0.973,-0.9819,-0.9669,-0.9942,-1.0363,-1.0205,-1.042,-1.0692,-1.0692,-1.0692,-1.0692,-1.0692,-1.0692,-1.0692,-1.0692,-1.0692,-1.0692,-1.0692,-1.0692,-1.0753,-1.0996,-1.1114,-1.1285,-1.1472,-1.1658,-1.1776,-1.1776,-1.29,-1.4202,-1.5451,-1.675,-1.8046,-1.9307,-1.9424,-1.9424,-1.9424,-1.9424,-1.9424,-1.9424,-1.9424,-1.9424,-1.9424,-1.9424,-1.9424,-1.9424,-1.9424,-1.9424,-1.9424,-1.9424,-1.9424,-1.9424,-1.9424,-1.9424,-1.9424,-1.9424,-1.9424,-1.9424,-1.9424,-1.9424,-1.9424,-1.9424,-1.9424,-1.9424,0.0,0.0,0.0,0.0,0.0,0.0,0.0,0.0,0.0,0.0,0.0,0.0,0.0,0.0,0.0,0.0,0.0,0.0,0.0,0.0,0.0,0.0,0.0,0.0,0.0,0.0,0.0,0.0,0.0,0.0,0.0,0.0,0.0,0.0,0.0,0.0,0.0,0.0,0.0,0.0,0.0,0.0,0.0,0.0,0.0,0.0,0.0,0.0,0.0,0.0,-0.943,-0.9579,-0.9579,-0.9599,-0.9665,-0.9587,-0.9904,-1.0253,-1.0224,-1.042,-1.0692,-1.0692,-1.0692,-1.0692,-1.0692,-1.0692,-1.0692,-1.0692,-1.0692,-1.0692,-1.0692,-1.0692,-1.0753,-1.0996,-1.1114,-1.1285,-1.1472,-1.1658,-1.1776,-1.1776,-1.29,-1.4202,-1.5451,-1.675,-1.8046,-1.9307,-1.9424,-1.9424,-1.9424,-1.9424,-1.9424,-1.9424,-1.9424,-1.9424,-1.9424,-1.9424,-1.9424,-1.9424,-1.9424,-1.9424,-1.9424,-1.9424,-1.9424,-1.9424,-1.9424,-1.9424,-1.9424,-1.9424,-1.9424,-1.9424,-1.9424,-1.9424,-1.9424,-1.9424,-1.9424,-1.9424,0.0,0.0,0.0,0.0,0.0,0.0,0.0,0.0,0.0,0.0,-1.3014,0.0,0.0,0.0,0.0,0.0,0.0,0.0,0.0,0.0,0.0,0.0,0.0,0.0,0.0,0.0,0.0,0.0,0.0,0.0,0.0,0.0,0.0,0.0,0.0,0.0,0.0,0.0,0.0,0.0,0.0,0.0,0.0,0.0,0.0,0.0,0.0,0.0,0.0,0.0,-0.9385,-0.9579,-0.9579,-0.9579,-0.9579,-0.9579,-0.9815,-1.0018,-1.0018,-1.0282,-1.0558,-1.0558,-1.0627,-1.0668,-1.0578,-1.0558,-1.0534,-1.0436,-1.0416,-1.0416,-1.0416,-1.0493,-1.0586,-1.0676,-1.0915,-1.1151,-1.133,-1.1516,-1.1667,-1.1764,-1.2367,-1.3495,-1.5391,-1.6161,-1.7285,-1.9249,-1.9424,-1.9424,-1.9424,-1.9424,-1.9424,-1.9424,-1.9424,-1.9424,-1.9424,-1.9424,-1.9424,-1.9424,-1.9424,-1.9424,-1.9424,-1.9424,-1.9424,-1.9424,-1.9424,-1.9424,-1.9424,-1.9424,-1.9424,-1.9424,-1.9424,-1.9424,-1.9424,-1.9424,-1.9424,-1.9424,0.0,0.0,0.0,0.0,0.0,0.0,0.0,0.0,-1.428,-1.422,-1.4032,-1.3152,-1.1214,-1.0202,0.0,0.0,0.0,0.0,0.0,0.0,0.0,0.0,0.0,0.0,0.0,0.0,0.0,-0.7894,0.0,0.0,0.0,0.0,0.0,0.0,0.0,0.0,0.0,0.0,0.0,0.0,0.0,0.0,0.0,0.0,0.0,0.0,0.0,0.0,0.0,0.0,-0.9331,-0.9579,-0.9579,-0.9579,-0.9579,-0.9579,-0.975,-0.9884,-0.9884,-1.0128,-1.0375,-1.0375,-1.0481,-1.0542,-1.0408,-1.0375,-1.0335,-1.0245,-1.0212,-1.0212,-1.0212,-1.0278,-1.0387,-1.0375,-1.07,-1.0984,-1.1191,-1.1382,-1.1569,-1.1756,-1.1776,-1.2788,-1.5337,-1.5575,-1.6638,-1.9191,-1.9424,-1.9424,-1.9424,-1.9424,-1.9424,-1.9424,-1.9424,-1.9424,-1.9424,-1.9424,-1.9424,-1.9424,-1.9424,-1.9424,-1.9424,-1.9424,-1.9424,-1.9424,-1.9424,-1.9424,-1.9424,-1.9424,-1.9424,-1.9424,-1.9424,-1.9424,-1.9424,-1.9424,-1.9424,-1.9424,0.0,0.0,0.0,0.0,0.0,0.0,0.0,0.0,-1.4214,-1.3972,-1.3924,-1.3298,-1.1785,-1.0923,0.0,0.0,0.0,0.0,0.0,0.0,0.0,0.0,0.0,0.0,0.0,0.0,0.0,-0.7641,-0.7641,0.0,0.0,0.0,0.0,0.0,0.0,-0.7634,0.0,0.0,0.0,0.0,0.0,0.0,0.0,0.0,0.0,0.0,0.0,0.0,0.0,0.0,0.0,-0.9579,-0.9579,-0.9579,-0.9579,-0.9579,-0.975,-0.9884,-0.9884,-1.0082,-1.0241,-1.0241,-1.0253,-1.0257,-1.0245,-1.0241,-1.0237,-1.0216,-1.0212,-1.0212,-1.0212,-1.0228,-1.0241,-1.0354,0.0,-1.0838,-1.1175,-1.1382,-1.1569,-1.1756,-1.1776,-1.2788,-1.5337,-1.5575,-1.6638,-1.9191,-1.9424,-1.9424,-1.9424,-1.9424,-1.9424,-1.9424,-1.9424,-1.9424,-1.9424,-1.9424,-1.9424,-1.9424,-1.9424,-1.9424,-1.9424,-1.9424,-1.9424,-1.9424,-1.9424,-1.9424,-1.9424,-1.9424,-1.9424,-1.9424,-1.9424,-1.9424,-1.9424,-1.9424,-1.9424,-1.9424,0.0,0.0,0.0,0.0,0.0,0.0,0.0,-1.4298,-1.4201,-1.3942,-1.3767,-1.3156,-1.1843,-1.078,0.0,0.0,0.0,0.0,0.0,0.0,0.0,0.0,0.0,0.0,0.0,0.0,-0.7506,-0.76,-0.76,0.0,0.0,0.0,0.0,0.0,0.0,-0.755,-0.7461,0.0,0.0,0.0,0.0,0.0,0.0,0.0,0.0,0.0,0.0,0.0,-0.8577,0.0,0.0,0.0,-0.9476,-0.948,0.0,0.0,-0.9677,-0.973,-0.973,-0.986,-0.9994,-0.9994,-1.0131,-1.0184,-1.0073,-0.9994,-0.9965,-0.9864,-0.9839,-0.9839,-0.9839,-0.9925,-1.0054,-1.0241,0.0,0.0,-1.1021,-1.122,-1.1403,-1.1585,-1.1707,-1.2487,-1.4262,-1.4441,-1.5505,-1.8052,-1.8946,-1.9424,-1.9424,-1.9424,-1.9424,-1.9424,-1.9424,-1.9424,-1.9424,-1.9424,-1.9424,-1.9424,-1.9424,-1.9424,-1.9424,-1.9424,-1.9424,-1.9424,-1.9424,-1.9424,-1.9424,-1.9424,-1.9424,-1.9424,-1.9424,-1.9424,-1.9424,-1.9424,-1.9424,-1.9424,0.0,0.0,0.0,0.0,0.0,0.0,-1.4298,-1.4232,-1.3992,-1.3444,-1.3374,-1.2703,-1.0972,-1.0231,-0.9401,-0.8193,0.0,0.0,0.0,0.0,0.0,0.0,0.0,0.0,0.0,0.0,-0.7356,-0.7465,-0.7465,-0.7465,0.0,0.0,-0.7465,-0.7465,0.0,0.0,0.0,0.0,0.0,0.0,0.0,0.0,0.0,0.0,0.0,0.0,0.0,0.0,0.0,0.0,0.0,0.0,0.0,0.0,0.0,0.0,-0.9579,-0.9579,-0.9579,-0.9713,-0.9811,-0.9811,-0.9908,-0.9969,-0.9839,-0.9811,-0.9774,-0.9652,-0.9579,-0.9579,-0.9579,-0.9726,-0.9888,0.0,0.0,-1.0497,-1.0967,-1.1114,-1.1289,-1.148,-1.1663,-1.2311,-1.361,-1.4376,-1.5558,-1.7396,-1.8706,-1.9424,-1.9424,-1.9424,-1.9424,-1.9424,-1.9424,-1.9424,-1.9424,-1.9424,-1.9424,-1.9424,-1.9424,-1.9424,-1.9424,-1.9424,-1.9424,-1.9424,-1.9424,-1.9424,-1.9424,-1.9424,-1.9424,-1.9424,-1.9424,-1.9424,-1.9424,-1.9424,-1.9424,-1.9424,0.0,0.0,0.0,0.0,0.0,0.0,0.0,-1.4075,-1.3484,-1.2288,-1.2691,-1.1954,-0.8872,-0.9362,-0.9139,-0.7272,0.0,0.0,0.0,0.0,0.0,0.0,0.0,0.0,0.0,0.0,0.0,-0.7102,-0.7102,-0.7102,-0.7102,-0.7102,-0.7102,-0.7102,0.0,0.0,0.0,0.0,0.0,0.0,0.0,0.0,0.0,0.0,0.0,0.0,0.0,0.0,0.0,0.0,0.0,0.0,0.0,0.0,0.0,0.0,-0.9579,-0.9579,-0.9579,-0.9579,-0.9579,-0.9579,-0.9583,-0.9583,-0.9579,-0.9579,-0.9579,-0.9579,-0.9579,-0.9579,-0.9579,-0.9579,-0.9746,-1.0155,0.0,0.0,-1.0891,-1.1114,-1.1289,-1.148,-1.1663,-1.2311,-1.361,-1.5972,-1.7455,-1.7513,-1.8706,-1.9424,-1.9424,-1.9424,-1.9424,-1.9424,-1.9424,-1.9424,-1.9424,-1.9424,-1.9424,-1.9424,-1.9424,-1.9424,-1.9424,-1.9424,-1.9424,-1.9424,-1.9424,-1.9424,-1.9424,-1.9424,-1.9424,-1.9424,-1.9424,-1.9424,-1.9424,-1.9424,-1.9424,-1.9424,0.0,0.0,0.0,0.0,0.0,0.0,0.0,0.0,-1.365,-1.2888,-1.2948,-1.2168,-0.9733,-0.9705,-0.9139,-0.7272,0.0,0.0,0.0,0.0,0.0,0.0,0.0,0.0,0.0,0.0,0.0,-0.7095,-0.7095,-0.7095,-0.7095,-0.7095,-0.7095,-0.7095,-0.7095,-0.7095,0.0,0.0,0.0,0.0,0.0,0.0,0.0,0.0,0.0,0.0,0.0,0.0,0.0,0.0,0.0,0.0,0.0,0.0,0.0,-0.9476,-0.9579,-0.9579,-0.9579,-0.9579,-0.9579,-0.9579,-0.9579,-0.9579,-0.9579,-0.9579,-0.9579,-0.9579,-0.9579,-0.9579,-0.9579,-0.9579,-0.9746,-1.0155,0.0,0.0,0.0,-1.1037,-1.1244,-1.1301,-1.1585,-1.1953,-1.2367,-1.4738,-1.622,-1.622,-1.8175,-1.9424,-1.9424,-1.9424,-1.9424,-1.9424,-1.9424,-1.9424,-1.9424,-1.9424,-1.9424,-1.9424,-1.9424,-1.9424,-1.9424,-1.9424,-1.9424,-1.9424,-1.9424,-1.9424,-1.9424,-1.9424,-1.9424,-1.9424,-1.9424,-1.9424,-1.9424,-1.9424,-1.9424,-1.9424,0.0,0.0,0.0,0.0,0.0,0.0,0.0,0.0,-1.3467,-1.2676,-1.2806,-1.2061,-0.9637,-0.9705,-0.9139,-0.7272,0.0,0.0,0.0,0.0,0.0,0.0,0.0,0.0,0.0,0.0,-0.7095,-0.7095,-0.7095,-0.7095,-0.7095,-0.7095,-0.7095,-0.7095,-0.7095,-0.7095,0.0,0.0,0.0,0.0,0.0,0.0,-0.7105,0.0,0.0,0.0,0.0,0.0,0.0,0.0,0.0,0.0,0.0,0.0,0.0,0.0,-0.9529,-0.9579,-0.9579,-0.9579,-0.9579,-0.9579,-0.9579,-0.9579,-0.9579,0.0,0.0,0.0,0.0,0.0,0.0,-0.9579,-0.9746,-1.0155,-1.0212,0.0,-1.0639,-1.0997,-1.1273,-1.1415,-1.1634,-1.1776,-1.1776,-1.3674,-1.4857,-1.4857,-1.7226,-1.8706,-1.8706,-1.9127,-1.9424,-1.9424,-1.9424,-1.9424,-1.9424,-1.9424,-1.9424,-1.9424,-1.9424,-1.9424,-1.9424,-1.9424,-1.9424,-1.9424,-1.9424,-1.9424,0.0,-1.9424,-1.9424,-1.9424,-1.9424,-1.9424,-1.9424,-1.9424,-1.9424,-1.9424,0.0,0.0,0.0,0.0,0.0,0.0,0.0,0.0,0.0,0.0,0.0,-1.1531,-0.8803,-0.9274,0.0,0.0,0.0,0.0,0.0,0.0,0.0,0.0,0.0,0.0,0.0,-0.7095,-0.7095,-0.7095,-0.7095,-0.7095,-0.7095,-0.7095,-0.7095,-0.7095,-0.7095,0.0,0.0,0.0,0.0,0.0,-0.7095,-0.7095,0.0,0.0,0.0,0.0,0.0,0.0,0.0,0.0,0.0,0.0,0.0,0.0,0.0,0.0,0.0,0.0,0.0,-0.9579,-0.9579,-0.9579,-0.9579,-0.9579,-0.9579,0.0,0.0,0.0,0.0,0.0,0.0,0.0,0.0,-1.0155,-1.0212,-1.0339,-1.0639,-1.0997,-1.1362,-1.1732,-1.1776,-1.1776,-1.1776,-1.296,-1.3725,-1.3725,-1.6031,-1.7513,-1.7513,-1.8706,-1.9424,-1.9424,-1.9424,-1.9424,-1.9424,-1.9424,-1.9424,-1.9424,-1.9424,-1.9424,-1.9424,-1.9424,-1.9424,-1.9424,-1.9424,-1.9424,-1.9424,-1.9424,-1.9424,-1.9424,-1.9424,-1.9424,-1.9424,-1.9424,-1.9424,-1.9424,0.0,0.0,0.0,0.0,0.0,0.0,0.0,0.0,0.0,0.0,0.0,-1.0842,-0.8715,-0.8715,0.0,0.0,0.0,0.0,0.0,0.0,0.0,0.0,0.0,0.0,0.0,-0.7095,-0.7095,-0.7095,-0.7095,-0.7095,-0.7095,-0.7095,-0.7095,-0.7095,-0.7095,0.0,0.0,0.0,0.0,0.0,-0.7095,-0.7095,0.0,0.0,0.0,0.0,-0.737,-0.7522,0.0,0.0,0.0,0.0,0.0,0.0,0.0,0.0,-0.9236,-0.9335,-0.9529,0.0,-0.9579,-0.9579,-0.9579,-0.9579,0.0,0.0,0.0,0.0,0.0,0.0,0.0,0.0,0.0,-1.0155,-1.0212,-1.0339,-1.0639,-1.0997,-1.1362,-1.1732,-1.1776,-1.1776,-1.1776,-1.296,-1.3725,-1.3725,-1.6031,-1.7513,-1.7513,-1.8706,-1.9424,-1.9424,-1.9424,-1.9424,-1.9424,-1.9424,-1.9424,-1.9424,-1.9424,-1.9424,-1.9424,-1.9424,-1.9424,-1.9424,-1.9424,-1.9424,-1.9424,-1.9424,-1.9424,-1.9424,-1.9424,-1.9424,-1.9424,-1.9424,-1.9424,-1.9424,0.0,0.0,0.0,0.0,0.0,0.0,0.0,0.0,0.0,0.0,0.0,0.0,0.0,0.0,0.0,0.0,0.0,0.0,0.0,0.0,0.0,0.0,0.0,0.0,0.0,-0.7095,-0.7095,-0.7095,-0.7095,-0.7095,-0.7095,-0.7095,-0.7095,-0.7095,-0.7095,0.0,0.0,0.0,0.0,-0.7095,-0.7095,0.0,0.0,0.0,0.0,0.0,-0.7316,-0.7424,0.0,-0.7887,-0.7966,-0.7946,0.0,0.0,0.0,0.0,-0.9084,-0.9266,-0.9429,-0.9563,-0.9608,-0.9522,-0.9502,-0.9482,-0.9405,0.0,0.0,0.0,0.0,0.0,0.0,0.0,0.0,-1.0167,-1.0233,-1.044,-1.0875,-1.1102,-1.1362,-1.1732,-1.1776,-1.1776,-1.1776,-1.2427,-1.2844,-1.2844,-1.4674,-1.6037,-1.6632,-1.7818,-1.8829,-1.9366,-1.9424,-1.9424,-1.9424,-1.9424,-1.9424,-1.9424,-1.9424,-1.9424,-1.9424,-1.9424,-1.9424,-1.9424,-1.9424,-1.9424,-1.9424,-1.9424,-1.9424,-1.9424,-1.9424,-1.9424,-1.9424,-1.9424,-1.9424,-1.9424,0.0,0.0,0.0,0.0,0.0,0.0,0.0,0.0,0.0,0.0,0.0,0.0,0.0,0.0,0.0,0.0,0.0,0.0,0.0,0.0,0.0,0.0,0.0,0.0,0.0,-0.7095,-0.7095,-0.7095,-0.7095,-0.7095,-0.7095,-0.7095,-0.7095,-0.7095,-0.7095,0.0,0.0,0.0,-0.7095,-0.7095,-0.7095,0.0,0.0,0.0,0.0,0.0,0.0,0.0,0.0,-0.7658,-0.776,-0.7801,-0.7884,0.0,0.0,0.0,0.0,0.0,-0.9312,-0.9429,-0.9457,-0.9352,-0.9363,-0.9331,-0.9165,0.0,0.0,0.0,0.0,0.0,0.0,-0.9786,0.0,-1.0168,-1.0355,-1.0597,-1.1151,-1.1224,-1.1362,-1.1732,-1.1776,-1.1776,-1.1776,-1.1776,-1.1776,-1.1776,-1.296,-1.4262,-1.5515,-1.6809,-1.8052,-1.9366,-1.9424,-1.9424,-1.9424,-1.9424,-1.9424,-1.9424,-1.9424,-1.9424,-1.9424,-1.9424,-1.9424,-1.9424,-1.9424,0.0,-1.9424,-1.9424,-1.9424,-1.9424,-1.9424,-1.9424,-1.9424,-1.9424,-1.9424,-1.9424,0.0,0.0,0.0,0.0,0.0,0.0,0.0,0.0,0.0,0.0,0.0,0.0,0.0,0.0,0.0,0.0,0.0,0.0,0.0,0.0,0.0,0.0,0.0,0.0,0.0,0.0,0.0,0.0,0.0,0.0,-0.7095,-0.7095,-0.7095,-0.7095,-0.7095,-0.7095,-0.7095,-0.7095,-0.7095,-0.7095,-0.7095,0.0,0.0,0.0,0.0,0.0,0.0,0.0,0.0,-0.747,-0.7526,-0.7638,-0.7658,0.0,0.0,0.0,0.0,0.0,-0.9,-0.9008,-0.8879,-0.9094,-0.9137,-0.9169,0.0,0.0,0.0,0.0,0.0,0.0,0.0,-0.9868,-0.9998,-1.0339,-1.0538,-1.0785,-1.1167,-1.1224,-1.1362,-1.1732,-1.1776,-1.1776,-1.1776,-1.1776,-1.1776,-1.1776,-1.296,-1.4262,-1.5515,-1.6809,-1.8052,-1.9366,-1.9424,-1.9424,-1.9424,-1.9424,-1.9424,-1.9424,-1.9424,-1.9424,-1.9424,-1.9424,-1.9424,-1.9424,-1.9424,-1.9424,-1.9424,-1.9424,-1.9424,-1.9424,-1.9424,-1.9424,-1.9424,-1.9424,-1.9424,-1.9424,0.0,0.0,0.0,0.0,0.0,0.0,0.0,0.0,0.0,0.0,0.0,0.0,0.0,0.0,0.0,0.0,0.0,0.0,0.0,0.0,0.0,0.0,0.0,0.0,0.0,0.0,0.0,0.0,0.0,-0.7095,-0.7095,-0.7095,-0.7095,-0.7095,0.0,-0.7095,-0.7095,-0.7095,-0.7095,-0.7095,0.0,0.0,0.0,0.0,0.0,0.0,0.0,0.0,0.0,0.0,-0.7417,-0.7492,-0.7573,0.0,0.0,0.0,0.0,0.0,-0.8698,-0.8762,-0.8804,-0.89,-0.8926,-0.8897,0.0,0.0,0.0,0.0,0.0,0.0,0.0,0.0,-1.0152,-1.0513,-1.0639,-1.0818,-1.1171,-1.1224,-1.1362,-1.1732,-1.1776,-1.1776,-1.1776,-1.1776,-1.1776,-1.1776,-1.296,-1.3963,-1.456,-1.645,-1.7753,-1.835,-1.9062,-1.9424,-1.9424,-1.9424,-1.9424,-1.9424,-1.9424,-1.9424,-1.9424,-1.9424,-1.9424,-1.9424,0.0,-1.9424,-1.9424,-1.9424,-1.9424,-1.9424,-1.9424,-1.9424,-1.9424,-1.9424,-1.9424,-1.9424,0.0,0.0,0.0,0.0,0.0,0.0,0.0,0.0,0.0,0.0,0.0,0.0,0.0,0.0,0.0,0.0,0.0,0.0,0.0,0.0,0.0,0.0,0.0,0.0,0.0,0.0,-0.7095,-0.7095,-0.7095,-0.7095,-0.7095,-0.7095,-0.7095,-0.7095,0.0,-0.7095,-0.7095,-0.7095,-0.7095,-0.7095,0.0,0.0,0.0,0.0,0.0,0.0,0.0,0.0,0.0,0.0,0.0,0.0,0.0,0.0,0.0,-0.7816,-0.8044,-0.8245,-0.8393,-0.8534,-0.8677,-0.8717,0.0,0.0,0.0,0.0,0.0,0.0,0.0,0.0,0.0,-1.0188,-1.0375,-1.0647,-1.0692,-1.0818,-1.1171,-1.1224,-1.1362,-1.1732,-1.1776,-1.1776,-1.1776,-1.1776,-1.1893,-1.2191,-1.3135,-1.3959,-1.4555,-1.645,-1.763,-1.7929,-1.8887,-1.9424,-1.9424,-1.9424,-1.9424,-1.9424,-1.9424,-1.9424,-1.9424,-1.9424,-1.9424,-1.9424,-1.9424,-1.9424,-1.9424,-1.9424,-1.9424,-1.9424,-1.9424,-1.9424,-1.9424,-1.9424,-1.9424,-1.9424,0.0,0.0,0.0,0.0,0.0,0.0,0.0,0.0,0.0,0.0,0.0,0.0,0.0,0.0,0.0,0.0,0.0,0.0,0.0,0.0,0.0,0.0,0.0,0.0,0.0,-0.7095,-0.7095,-0.7095,-0.7095,-0.7095,-0.7095,-0.7095,-0.7095,-0.7095,0.0,-0.7095,-0.7095,-0.7095,-0.7095,-0.7095,-0.7095,0.0,0.0,0.0,0.0,0.0,0.0,0.0,0.0,0.0,0.0,0.0,0.0,0.0,-0.7177,-0.745,-0.7712,-0.7974,-0.818,-0.8216,-0.8255,-0.8419,0.0,0.0,0.0,0.0,0.0,-0.9571,0.0,0.0,0.0,-1.0424,-1.0664,-1.0688,-1.0692,-1.0818,-1.1171,-1.1224,-1.1362,-1.1732,-1.1776,-1.1776,-1.1776,-1.1776,-1.2311,-1.349,-1.3665,-1.4733,-1.7097,-1.7396,-1.8052,-1.9249,-1.9366,-1.9424,-1.9424,-1.9424,-1.9424,-1.9424,-1.9424,-1.9424,-1.9424,-1.9424,-1.9424,-1.9424,-1.9424,-1.9424,-1.9424,-1.9424,-1.9424,-1.9424,-1.9424,-1.9424,-1.9424,-1.9424,-1.9424,-1.9424,0.0,0.0,0.0,0.0,0.0,0.0,0.0,0.0,0.0,0.0,0.0,0.0,0.0,0.0,0.0,0.0,0.0,0.0,0.0,0.0,0.0,0.0,0.0,-0.7095,-0.7095,-0.7095,-0.7095,-0.7095,-0.7095,-0.7095,-0.7095,-0.7095,0.0,0.0,0.0,-0.7095,-0.7095,-0.7095,-0.7095,-0.7095,-0.7095,-0.7095,0.0,0.0,0.0,0.0,0.0,0.0,0.0,0.0,-0.7095,-0.7095,0.0,0.0,0.0,0.0,-0.7544,-0.7896,-0.7984,-0.8113,-0.8267,-0.8543,0.0,0.0,0.0,0.0,-0.9575,-0.9754,-0.9839,0.0,0.0,-1.053,-1.0692,-1.0692,-1.0789,-1.0948,-1.1187,-1.1321,-1.1488,-1.1748,-1.1776,-1.1776,-1.1776,-1.1776,-1.2307,-1.3605,-1.4441,-1.5273,-1.6279,-1.7818,-1.8532,-1.8227,-1.9004,-1.9424,-1.9424,-1.9424,-1.9424,-1.9424,-1.9424,-1.9424,-1.9424,-1.9424,-1.9424,-1.9424,-1.9424,-1.9424,-1.9424,-1.9424,-1.9424,-1.9424,-1.9424,-1.9424,-1.9424,-1.9424,-1.9424,-1.9424,0.0,0.0,0.0,0.0,0.0,0.0,0.0,0.0,0.0,0.0,0.0,0.0,0.0,0.0,0.0,0.0,0.0,0.0,0.0,0.0,0.0,0.0,0.0,-0.7095,-0.7095,-0.7095,-0.7095,-0.7095,-0.7095,-0.7095,-0.7095,0.0,0.0,0.0,0.0,-0.7095,-0.7095,-0.7095,-0.7095,-0.7095,-0.7095,-0.7095,0.0,0.0,0.0,0.0,0.0,0.0,0.0,0.0,-0.7095,-0.7095,0.0,0.0,0.0,0.0,-0.7411,-0.7768,-0.7768,-0.7978,-0.8218,0.0,0.0,0.0,0.0,0.0,-0.9677,-0.9847,-0.9977,-1.0152,-1.0461,-1.0611,-1.0692,-1.0692,-1.0846,-1.1029,-1.12,-1.1382,-1.1569,-1.1756,-1.1776,-1.1776,-1.1776,-1.1776,-1.2307,-1.3605,-1.4857,-1.5806,-1.6161,-1.8233,-1.901,-1.811,-1.8946,-1.9424,-1.9424,-1.9424,-1.9424,-1.9424,-1.9424,-1.9424,-1.9424,-1.9424,-1.9424,-1.9424,-1.9424,-1.9424,-1.9424,-1.9424,-1.9424,-1.9424,-1.9424,-1.9424,-1.9424,-1.9424,-1.9424,-1.9424,0.0,0.0,0.0,0.0,0.0,0.0,0.0,0.0,0.0,0.0,0.0,0.0,0.0,0.0,0.0,0.0,0.0,0.0,0.0,0.0,0.0,0.0,0.0,-0.7095,-0.7095,-0.7095,-0.7095,-0.7095,-0.7095,-0.7095,-0.7095,-0.7095,0.0,0.0,0.0,-0.7095,-0.7095,-0.7095,-0.7095,-0.7095,-0.7095,-0.7095,-0.7095,0.0,0.0,0.0,0.0,0.0,0.0,0.0,-0.7095,-0.7095,0.0,0.0,0.0,0.0,-0.7279,-0.7507,-0.7507,-0.78,-0.8051,0.0,0.0,0.0,0.0,0.0,-0.9681,-0.9855,-1.018,-1.0435,-1.066,-1.0692,-1.0692,-1.0692,-1.0846,-1.1029,-1.12,-1.1382,-1.1569,-1.1756,-1.1776,-1.1776,-1.1776,-1.1776,-1.2307,-1.3605,-1.4857,-1.6161,-1.7455,-1.8706,-1.9366,-1.9424,-1.9424,-1.9424,-1.9424,-1.9424,-1.9424,-1.9424,-1.9424,-1.9424,-1.9424,-1.9424,-1.9424,-1.9424,-1.9424,-1.9424,-1.9424,-1.9424,-1.9424,-1.9424,-1.9424,-1.9424,-1.9424,-1.9424,-1.9424,-1.9424,0.0,0.0,0.0,0.0,0.0,0.0,0.0,0.0,0.0,0.0,0.0,0.0,0.0,0.0,0.0,0.0,0.0,0.0,0.0,0.0,0.0,0.0,0.0,0.0,0.0,0.0,-0.7095,-0.7095,-0.7095,-0.7095,0.0,0.0,0.0,-0.7095,0.0,0.0,-0.7095,-0.7095,-0.7095,-0.7095,-0.7095,-0.6697,-0.6207,0.0,0.0,0.0,0.0,0.0,0.0,0.0,0.0,0.0,0.0,0.0,0.0,-0.7095,-0.7279,-0.7551,-0.7724,-0.7792,0.0,-0.8109,0.0,0.0,0.0,0.0,0.0,0.0,-1.0456,-1.0631,-1.0684,-1.0692,-1.0692,-1.0692,-1.0846,-1.1029,-1.12,-1.1382,-1.1569,-1.1756,-1.1776,-1.1776,-1.1776,-1.1776,-1.2307,-1.3605,-1.4023,-1.5208,-1.739,-1.787,-1.8467,-1.9366,-1.9424,-1.9424,-1.9424,-1.9424,-1.9424,-1.9424,-1.9424,-1.9424,-1.9424,-1.9424,-1.9424,-1.9424,-1.9424,-1.9424,-1.9424,-1.9424,-1.9424,-1.9424,-1.9424,-1.9424,-1.9424,-1.9424,-1.9424,-1.9424,0.0,0.0,0.0,0.0,0.0,0.0,0.0,0.0,0.0,0.0,-0.7929,-0.7709,0.0,0.0,0.0,0.0,0.0,0.0,0.0,0.0,0.0,0.0,0.0,0.0,0.0,-0.7095,-0.7095,0.0,0.0,0.0,0.0,0.0,0.0,-0.7095,0.0,-0.7095,-0.7095,-0.7095,-0.7095,-0.7095,-0.7095,-0.6517,-0.5808,0.0,0.0,0.0,0.0,0.0,0.0,0.0,0.0,0.0,0.0,0.0,0.0,-0.7095,-0.7231,-0.7367,-0.7544,-0.7614,0.0,-0.7944,-0.8137,-0.8434,-0.8938,0.0,0.0,0.0,-1.0521,-1.0692,-1.0692,-1.0692,-1.0692,-1.0692,-1.0846,-1.1005,-1.111,-1.1277,-1.1459,-1.1646,-1.1667,-1.1695,-1.1768,-1.1776,-1.2134,-1.29,-1.343,-1.4376,-1.5913,-1.645,-1.7337,-1.859,-1.8648,-1.8887,-1.9424,-1.9424,-1.9424,-1.9424,-1.9424,-1.9424,-1.9424,-1.9424,-1.9424,-1.9424,-1.9424,-1.9424,-1.9424,-1.9424,-1.9424,-1.9424,-1.9424,-1.9424,-1.9424,-1.9424,-1.9424,-1.9424,0.0,0.0,-0.7095,-0.7095,0.0,0.0,0.0,0.0,0.0,0.0,-0.7095,-0.7095,0.0,0.0,0.0,0.0,0.0,0.0,0.0,0.0,0.0,0.0,0.0,0.0,0.0,0.0,0.0,0.0,0.0,0.0,0.0,0.0,-0.7095,-0.7095,0.0,-0.7095,-0.7095,-0.7095,-0.7095,-0.7095,-0.7095,-0.6517,-0.5808,-0.6741,0.0,0.0,0.0,0.0,0.0,0.0,0.0,0.0,0.0,0.0,-0.7095,-0.7095,-0.7095,-0.7095,-0.7139,0.0,0.0,-0.7641,-0.8014,0.0,-0.9272,-0.9812,-1.0168,-1.0237,0.0,-1.0692,-1.0692,-1.0692,-1.0692,-1.0692,-1.0834,-1.1008,-1.1024,-1.1102,-1.1269,-1.1451,-1.1472,-1.1541,-1.1711,-1.1727,-1.1727,-1.1727,-1.2846,-1.3549,-1.3668,-1.4855,-1.6093,-1.7382,-1.7557,-1.8152,-1.9285,-1.9312,-1.9325,-1.9325,-1.941,-1.9424,-1.9424,-1.9424,-1.9424,-1.9424,-1.9424,-1.9424,-1.9424,-1.9424,-1.9424,-1.9424,-1.9424,-1.9424,-1.9424,-1.9424,-1.9424,-1.9424,0.0,0.0,-0.7095,-0.7095,0.0,0.0,0.0,0.0,0.0,0.0,0.0,0.0,0.0,0.0,0.0,0.0,0.0,0.0,0.0,0.0,0.0,0.0,0.0,0.0,0.0,0.0,0.0,0.0,0.0,0.0,0.0,0.0,0.0,-0.7095,0.0,-0.7095,-0.7095,-0.7095,-0.7095,-0.7095,-0.7095,-0.6517,-0.5808,-0.6741,-0.6517,0.0,0.0,0.0,0.0,0.0,0.0,0.0,-0.7095,-0.7095,-0.7095,-0.7095,-0.7095,-0.7143,-0.737,-0.7417,0.0,0.0,-0.8104,-0.8489,-0.887,-0.9418,-0.9995,-1.0294,-1.0546,-1.0637,-1.0421,-1.0586,-1.0637,-1.0421,-1.0614,-1.0802,-1.1004,-1.1001,-1.1086,-1.1261,-1.1281,-1.1297,-1.1338,-1.1342,-1.1342,-1.1342,-1.157,-1.2142,-1.3178,-1.438,-1.5585,-1.6839,-1.7816,-1.8447,-1.8677,-1.8905,-1.9018,-1.9025,-1.9259,-1.9424,-1.9424,-1.9424,-1.9424,-1.9424,-1.9424,-1.9424,-1.9424,-1.9424,-1.9424,-1.9424,-1.9424,-1.9424,-1.9424,-1.9424,-1.9424,-1.9424,0.0,0.0,0.0,0.0,0.0,0.0,0.0,0.0,0.0,0.0,0.0,0.0,0.0,0.0,0.0,0.0,-0.7095,0.0,0.0,0.0,-0.7095,-0.7095,0.0,0.0,0.0,0.0,0.0,0.0,0.0,0.0,0.0,0.0,0.0,-0.7095,0.0,-0.7095,-0.7095,-0.7095,-0.7095,-0.7095,-0.7095,-0.6517,-0.5808,-0.6741,-0.6517,-0.5808,-0.6741,0.0,0.0,0.0,0.0,0.0,0.0,0.0,-0.7095,-0.7095,-0.7095,-0.7139,-0.7279,0.0,0.0,-0.7783,0.0,-0.8333,-0.8726,-0.9124,-0.9617,-1.0213,-1.0509,-1.0637,-1.0366,-1.0417,-1.0472,-1.0312,-1.0421,-1.0563,-1.0822,-1.0838,-1.0903,-1.1082,-1.1102,-1.1135,-1.1212,-1.1224,-1.1224,-1.1224,-1.1733,-1.2355,-1.3041,-1.4169,-1.5361,-1.6608,-1.7235,-1.786,-1.849,-1.8644,-1.8718,-1.8718,-1.8871,-1.9018,-1.9158,-1.9299,-1.9424,-1.9424,-1.9424,-1.9424,-1.9424,-1.9424,-1.9424,-1.9424,-1.9424,-1.9424,-1.9424,-1.9424,-1.9424,-1.9424,0.0,0.0,0.0,0.0,0.0,0.0,0.0,0.0,0.0,0.0,0.0,0.0,0.0,0.0,-0.7095,0.0,0.0,0.0,0.0,-0.7095,-0.7095,-0.7095,0.0,0.0,0.0,0.0,0.0,0.0,0.0,0.0,0.0,0.0,0.0,-0.7095,0.0,-0.7095,-0.7095,-0.7095,-0.7095,-0.7095,-0.7095,-0.6517,-0.5808,-0.6741,-0.6517,-0.5808,-0.6741,-0.7095,-0.7095,-0.7095,0.0,0.0,0.0,0.0,-0.7095,-0.7095,-0.7095,-0.7095,0.0,0.0,-0.7438,-0.7706,-0.7889,0.0,-0.8673,-0.8955,-0.9324,-0.9979,-1.04,-1.0546,-1.0253,-1.0257,-1.0257,-1.0202,-1.0257,-1.0366,-1.0637,-1.0692,-1.0749,-1.0903,-1.0923,-1.0976,-1.1114,-1.1131,-1.1131,-1.1131,-1.203,-1.2706,-1.2876,-1.3994,-1.5171,-1.647,-1.6691,-1.7257,-1.833,-1.839,-1.841,-1.841,-1.8464,-1.8617,-1.8858,-1.9105,-1.9272,-1.9424,-1.9424,-1.9424,-1.9424,-1.9424,-1.9424,-1.9424,-1.9424,-1.9424,-1.9424,-1.9424,-1.9424,-1.9424,0.0,0.0,0.0,0.0,0.0,0.0,0.0,0.0,0.0,0.0,-0.7095,-0.7095,0.0,0.0,0.0,-0.7095,-0.7095,0.0,-0.7095,0.0,0.0,0.0,0.0,0.0,0.0,0.0,0.0,0.0,0.0,0.0,0.0,0.0,0.0,-0.7095,0.0,0.0,-0.7095,-0.7095,-0.7095,-0.7095,-0.7095,-0.6517,-0.5808,-0.6741,-0.6517,-0.5808,-0.6741,-0.7095,-0.7095,-0.7095,-0.7095,0.0,0.0,0.0,-0.7095,-0.7095,-0.7095,-0.7095,0.0,0.0,-0.7414,0.0,-0.7736,-0.8021,0.0,0.0,-0.9235,-0.9815,-1.0213,-1.0297,-0.9955,-1.0091,-1.0202,-0.9926,-1.0091,-1.0366,-1.0637,-1.0692,-1.07,-1.0724,-1.0729,-1.0741,-1.0761,-1.0761,-1.0761,-1.0761,-1.0927,-1.1414,-1.2443,-1.3583,-1.4715,-1.5964,-1.6938,-1.7536,-1.7702,-1.7969,-1.8096,-1.8083,-1.8357,-1.851,-1.8551,-1.8591,-1.8885,-1.9424,-1.9424,-1.9424,-1.9424,-1.9424,-1.9424,-1.9424,-1.9424,-1.9424,-1.9424,-1.9424,-1.9424,-1.9424,0.0,0.0,0.0,0.0,0.0,0.0,0.0,0.0,0.0,0.0,0.0,-0.7095,0.0,0.0,0.0,0.0,0.0,0.0,-0.7095,-0.7095,0.0,0.0,0.0,0.0,0.0,0.0,0.0,0.0,0.0,0.0,0.0,-0.7095,-0.7095,0.0,0.0,0.0,0.0,0.0,0.0,-0.7095,-0.7095,0.0,0.0,-0.6741,-0.6517,-0.5764,-0.6163,-0.665,-0.7007,-0.6476,-0.6653,-0.7095,-0.7095,0.0,0.0,0.0,-0.7095,0.0,-0.7095,-0.7255,-0.7453,0.0,-0.7706,-0.7945,-0.8442,-0.8635,-0.8912,-0.956,-0.9812,-0.9898,-0.9896,-1.005,-1.014,-1.0076,-1.0202,-1.0366,-1.0637,-1.0692,-1.0692,-1.0692,-1.0692,-1.0692,-1.0692,-1.0692,-1.0692,-1.0692,-1.1286,-1.2146,-1.3275,-1.446,-1.5642,-1.6829,-1.7312,-1.7582,-1.7582,-1.7716,-1.7782,-1.7776,-1.7916,-1.8076,-1.8243,-1.8243,-1.8477,-1.8878,-1.8878,-1.8965,-1.9118,-1.9118,-1.9219,-1.9424,-1.9424,-1.9424,-1.9424,-1.9424,-1.9424,-1.9424,0.0,0.0,0.0,0.0,0.0,0.0,0.0,0.0,0.0,0.0,0.0,0.0,0.0,0.0,0.0,0.0,0.0,0.0,-0.7095,0.0,0.0,0.0,0.0,0.0,0.0,0.0,0.0,0.0,0.0,0.0,-0.7095,-0.7095,-0.7095,0.0,-0.7095,0.0,0.0,0.0,0.0,0.0,-0.683,-0.6163,-0.5406,-0.6115,-0.5805,-0.5006,-0.5272,-0.5938,-0.6653,-0.5941,-0.634,-0.7095,-0.7095,-0.7095,0.0,0.0,0.0,0.0,0.0,0.0,-0.735,-0.7502,-0.7651,-0.7845,0.0,0.0,-0.8613,-0.9291,-0.9419,-0.956,-0.991,-0.9947,-0.9972,-1.0105,-1.0124,-1.0248,-1.0564,-1.0627,-1.0643,-1.0688,-1.0692,-1.0692,-1.0692,-1.0692,-1.0692,-1.0692,-1.15,-1.2467,-1.3593,-1.4781,-1.5962,-1.7153,-1.747,-1.7582,-1.7582,-1.7582,-1.7582,-1.7582,-1.7582,-1.7702,-1.7876,-1.7876,-1.805,-1.827,-1.8424,-1.8611,-1.8818,-1.8818,-1.8945,-1.9152,-1.9225,-1.9259,-1.9265,-1.9397,-1.9424,-1.9424,0.0,0.0,0.0,0.0,0.0,0.0,0.0,0.0,0.0,0.0,0.0,0.0,0.0,0.0,0.0,-0.7095,0.0,0.0,0.0,0.0,0.0,0.0,0.0,0.0,0.0,0.0,0.0,0.0,0.0,0.0,-0.7095,-0.7095,-0.7095,-0.7095,-0.7095,-0.7095,-0.7095,0.0,0.0,0.0,-0.6118,-0.5225,-0.4376,-0.4423,-0.3846,-0.3179,-0.4067,-0.4959,-0.5764,-0.5719,-0.634,-0.7095,-0.7095,-0.7095,-0.7095,0.0,0.0,0.0,0.0,-0.7102,0.0,-0.7346,-0.7499,0.0,0.0,0.0,-0.8535,-0.9095,-0.9198,-0.9348,-0.9829,-0.9796,-0.9706,-0.9717,-0.9717,-0.9881,-1.037,-1.0395,-1.0509,-1.0672,-1.0692,-1.0692,-1.0692,-1.0692,-1.0692,-1.0692,-1.0747,-1.1286,-1.2413,-1.3545,-1.4728,-1.5968,-1.7047,-1.7582,-1.7582,-1.7582,-1.7582,-1.7582,-1.7582,-1.7589,-1.7609,-1.7609,-1.7615,-1.7662,-1.8237,-1.8497,-1.851,-1.851,-1.8524,-1.8564,-1.8838,-1.8945,-1.8978,-1.9265,-1.9424,-1.9424,0.0,0.0,0.0,0.0,0.0,0.0,0.0,0.0,0.0,0.0,0.0,0.0,0.0,-0.7095,-0.7095,-0.7095,-0.7095,0.0,0.0,0.0,0.0,0.0,0.0,0.0,0.0,0.0,0.0,0.0,0.0,-0.7095,-0.7095,-0.7095,-0.7095,-0.7095,-0.7095,-0.7095,-0.7095,-0.7095,0.0,-0.7007,-0.6074,-0.5137,-0.4289,-0.4289,-0.3712,-0.2956,-0.3267,-0.4024,-0.4779,-0.4779,-0.5045,-0.5534,-0.6738,-0.6697,-0.634,-0.6918,-0.7095,0.0,0.0,0.0,0.0,-0.7333,-0.7456,-0.7562,-0.7856,-0.8031,-0.8287,-0.8829,-0.9064,-0.9229,-0.963,-0.9762,-0.9868,-0.9984,-1.0008,-1.008,-1.0253,-1.0262,-1.0282,-1.0343,-1.0404,-1.0404,-1.0404,-1.0404,-1.0404,-1.0404,-1.0404,-1.0873,-1.202,-1.2573,-1.3763,-1.5666,-1.6253,-1.6882,-1.7582,-1.7582,-1.7582,-1.7582,-1.7582,-1.7582,-1.7582,-1.7582,-1.7582,-1.7595,-1.7809,-1.8023,-1.8203,-1.8203,-1.8317,-1.8504,-1.8604,-1.8644,-1.8657,-1.8764,-1.8804,-1.8831,0.0,0.0,0.0,0.0,0.0,-0.7095,0.0,0.0,0.0,0.0,0.0,0.0,0.0,0.0,-0.7095,-0.7095,-0.7095,-0.7095,-0.7095,-0.7095,0.0,0.0,0.0,0.0,0.0,0.0,0.0,0.0,0.0,0.0,0.0,-0.7095,-0.7095,-0.7095,-0.7095,-0.7095,0.0,0.0,0.0,-0.7007,-0.5716,-0.5048,-0.4648,-0.371,-0.3132,-0.2867,-0.251,-0.2999,-0.3846,-0.3846,-0.4022,-0.4512,-0.5758,-0.5938,-0.5897,-0.683,-0.7095,0.0,-0.7095,0.0,0.0,0.0,-0.7333,-0.7467,-0.7621,-0.7818,-0.8062,-0.8501,-0.8827,-0.911,-0.9401,-0.9672,-0.9839,-0.9965,-0.9981,-1.0002,-1.0114,-1.0118,-1.0143,-1.0208,-1.0212,-1.0212,-1.0212,-1.0212,-1.0212,-1.0212,-1.0212,-1.0521,-1.1291,-1.1836,-1.3106,-1.54,-1.5621,-1.6227,-1.7435,-1.7494,-1.7482,-1.7582,-1.7582,-1.7582,-1.7582,-1.7582,-1.7582,-1.7582,-1.7582,-1.7702,-1.7889,-1.7889,-1.8009,-1.8196,-1.8303,-1.8343,-1.8357,-1.8457,-1.849,-1.8517,0.0,-0.7095,-0.7095,-0.7095,-0.7095,-0.7095,0.0,0.0,0.0,0.0,0.0,0.0,0.0,0.0,0.0,-0.7095,-0.7095,-0.7095,-0.7095,-0.7095,0.0,0.0,0.0,0.0,0.0,0.0,0.0,0.0,0.0,0.0,0.0,0.0,-0.7095,-0.7095,-0.7095,-0.7095,-0.7095,0.0,-0.7095,-0.6918,-0.509,-0.487,-0.5361,-0.2508,-0.2017,-0.2732,-0.1749,-0.2017,-0.2867,-0.2911,-0.3489,-0.4245,-0.4287,-0.4959,-0.5897,-0.683,-0.7095,0.0,0.0,0.0,0.0,0.0,-0.7255,-0.7412,-0.7415,-0.7597,-0.7856,-0.8152,-0.8517,-0.8874,-0.913,-0.9426,-0.9579,-0.9579,-0.9579,-0.9685,-0.9851,-0.9876,-0.9945,-1.018,-1.02,-1.02,-1.02,-1.02,-1.02,-1.02,-1.02,-1.0196,-1.0248,-1.1329,-1.2977,-1.5083,-1.519,-1.5827,-1.7134,-1.7186,-1.7333,-1.7569,-1.7569,-1.7575,-1.7582,-1.7582,-1.7582,-1.7582,-1.7582,-1.7582,-1.7582,-1.7582,-1.7582,-1.7609,-1.7916,-1.7975,-1.8015,-1.8357,-1.8464,-1.8464,-0.7095,-0.7095,-0.7095,-0.7095,-0.7095,-0.7095,0.0,0.0,0.0,0.0,0.0,0.0,0.0,0.0,0.0,-0.7095,-0.7095,-0.7095,-0.7095,-0.7095,-0.7095,-0.7095,0.0,0.0,0.0,0.0,0.0,0.0,0.0,0.0,0.0,0.0,0.0,0.0,-0.7095,-0.7095,-0.7095,-0.7095,-0.7095,-0.7007,-0.5805,-0.5048,-0.4512,-0.3044,-0.2196,-0.1793,-0.148,-0.1569,-0.1928,-0.2644,-0.2598,-0.2462,-0.3844,-0.4959,0.0,-0.683,0.0,0.0,-0.7095,0.0,0.0,0.0,0.0,0.0,-0.7346,-0.7519,-0.7753,-0.799,-0.8295,-0.8643,-0.8968,-0.92,-0.9385,-0.9579,-0.9579,-0.9595,-0.9693,-0.9697,-0.9717,-0.977,-0.9774,-0.9774,-0.9774,-0.9774,-0.9774,-0.9774,-0.9774,-1.0121,-1.0902,-1.2844,-1.3925,-1.3902,-1.5437,-1.6086,-1.5757,-1.6467,-1.6981,-1.732,-1.732,-1.7434,-1.7582,-1.7582,-1.7582,-1.7582,-1.7582,-1.7582,-1.7582,-1.7582,-1.7582,-1.7589,-1.7675,-1.7709,-1.7722,-1.7802,-1.7836,-1.7862,-0.7095,-0.7095,-0.7095,-0.7095,-0.7095,-0.7095,0.0,0.0,0.0,0.0,0.0,0.0,0.0,0.0,0.0,-0.7095,-0.7095,-0.7095,-0.7095,-0.7095,-0.7095,-0.7095,0.0,0.0,0.0,0.0,0.0,0.0,0.0,0.0,0.0,0.0,0.0,0.0,-0.7095,-0.7095,0.0,-0.7095,-0.7095,-0.7007,-0.5672,-0.5003,-0.4692,-0.2955,-0.2152,-0.1973,-0.1569,-0.1391,-0.148,-0.2061,-0.1883,-0.1659,-0.3221,-0.4069,-0.4783,-0.6118,0.0,0.0,0.0,0.0,0.0,0.0,0.0,0.0,-0.7255,-0.7394,-0.7552,-0.7734,-0.8021,-0.8308,-0.8552,-0.8865,-0.9172,-0.9319,-0.9481,-0.9579,-0.9579,-0.9579,-0.9579,-0.9579,-0.9579,-0.9579,-0.9579,-0.9579,-0.9579,-0.9579,-0.9579,-0.9867,-1.0498,-1.2273,-1.3199,-1.3091,-1.4794,-1.571,-1.5675,-1.6229,-1.6673,-1.7018,-1.7018,-1.7172,-1.7454,-1.7454,-1.7468,-1.7582,-1.7582,-1.7582,-1.7582,-1.7582,-1.7582,-1.7582,-1.7582,-1.7582,-1.7582,-1.7582,-1.7582,-1.7609,0.0,-0.7095,-0.7095,-0.7095,-0.7095,0.0,0.0,0.0,0.0,0.0,0.0,0.0,0.0,0.0,0.0,0.0,-0.7095,-0.7095,-0.7095,-0.7095,0.0,0.0,0.0,0.0,0.0,0.0,0.0,0.0,0.0,0.0,0.0,0.0,0.0,0.0,-0.7095,-0.7095,-0.7095,-0.7095,-0.7095,-0.6962,-0.5179,-0.4914,-0.5272,-0.2597,-0.2062,-0.2598,-0.1704,-0.1391,-0.1391,-0.1391,-0.1391,-0.1569,-0.2598,-0.2911,-0.3269,-0.5006,-0.5542,0.0,0.0,0.0,0.0,0.0,-0.7007,0.0,-0.7095,-0.7248,-0.7346,-0.7346,-0.7649,-0.7944,-0.7991,-0.85,-0.8896,-0.8944,-0.9267,-0.9534,-0.9571,-0.9579,-0.9579,-0.9579,-0.9579,-0.9579,-0.9579,-0.9579,-0.9579,-0.9579,-0.9727,-0.9772,-0.9772,-1.0788,-1.1755,-1.2684,-1.3757,-1.4896,-1.6073,-1.6177,-1.6366,-1.666,-1.666,-1.6814,-1.7152,-1.7186,-1.734,-1.7535,-1.7569,-1.7582,-1.7582,-1.7582,-1.7582,-1.7582,-1.7582,-1.7582,-1.7582,-1.7582,-1.7582,-1.7582,-0.7095,-0.7095,-0.7095,-0.7095,0.0,0.0,0.0,0.0,0.0,0.0,0.0,0.0,0.0,0.0,0.0,0.0,0.0,-0.7095,-0.7095,0.0,0.0,0.0,0.0,0.0,0.0,0.0,0.0,0.0,0.0,0.0,0.0,0.0,0.0,0.0,-0.7095,-0.7095,-0.7095,-0.7095,-0.7095,-0.7007,-0.5894,-0.5092,-0.4423,-0.3089,-0.224,-0.1659,-0.148,-0.1391,-0.1391,-0.1391,-0.1391,-0.1569,-0.2598,-0.2911,-0.3135,-0.4245,-0.4556,-0.4601,-0.4779,0.0,-0.5985,-0.5985,-0.6564,0.0,-0.7095,-0.7119,-0.7139,-0.7139,-0.7354,-0.7597,-0.7777,-0.8048,-0.8251,-0.8483,-0.8694,-0.9052,-0.9538,-0.9579,-0.9579,-0.9579,-0.9579,-0.9579,-0.9579,-0.9579,-0.9579,-0.9579,-1.04,-1.0886,-1.0886,-1.1853,-1.2484,-1.2678,-1.3757,-1.4418,-1.4714,-1.5482,-1.6066,-1.6359,-1.6359,-1.6513,-1.68,-1.7092,-1.7233,-1.73,-1.7534,-1.7582,-1.7582,-1.7582,-1.7582,-1.7582,-1.7582,-1.7582,-1.7582,-1.7582,-1.7582,-1.7582,-0.7095,-0.7095,-0.7095,-0.7095,0.0,0.0,0.0,0.0,0.0,0.0,0.0,0.0,0.0,0.0,0.0,0.0,0.0,0.0,0.0,0.0,0.0,0.0,0.0,0.0,0.0,0.0,0.0,0.0,0.0,0.0,0.0,0.0,0.0,0.0,0.0,0.0,0.0,-0.7095,-0.7095,-0.7007,-0.6074,-0.5137,-0.4198,-0.3267,-0.2285,-0.1391,-0.1391,-0.1391,-0.1391,-0.1391,-0.1391,-0.148,-0.1973,-0.2152,-0.233,-0.331,-0.3623,-0.3712,-0.4156,-0.5003,-0.5719,-0.5719,-0.6384,0.0,0.0,-0.7095,-0.7095,-0.7095,-0.7204,-0.7299,-0.7434,-0.7699,-0.7944,-0.8079,-0.842,-0.8816,-0.9088,-0.9336,-0.949,-0.949,-0.9571,-0.9579,-0.9579,-0.9579,-0.9579,-0.9579,-1.0109,-1.04,-1.04,-1.137,-1.195,-1.195,-1.3463,-1.4298,-1.4298,-1.5302,-1.5905,-1.6052,-1.6052,-1.6206,-1.65,-1.6697,-1.6924,-1.7206,-1.7353,-1.7501,-1.7582,-1.7582,-1.7582,-1.7582,-1.7582,-1.7582,-1.7582,-1.7582,-1.7582,-1.7582,-0.7095,-0.7095,-0.7095,-0.7095,0.0,0.0,0.0,0.0,0.0,0.0,0.0,0.0,0.0,0.0,0.0,0.0,0.0,0.0,0.0,0.0,0.0,0.0,0.0,-0.7095,0.0,0.0,0.0,0.0,0.0,0.0,0.0,0.0,0.0,0.0,0.0,0.0,0.0,0.0,-0.7095,-0.7051,-0.6296,-0.5406,-0.4467,-0.3312,-0.2374,-0.166,-0.1487,-0.1403,-0.1407,-0.1407,-0.1407,-0.1407,-0.1407,-0.1404,-0.1579,-0.239,-0.2607,-0.2777,-0.3532,-0.4425,-0.5184,-0.5408,-0.6118,-0.6874,0.0,0.0,0.0,-0.7095,-0.7095,-0.7095,-0.7095,-0.742,-0.7677,-0.7645,-0.8093,-0.8459,-0.8471,-0.8925,-0.9267,-0.9347,-0.9437,-0.9539,-0.9571,-0.9608,-0.9579,-0.9579,-0.9579,-0.9579,-0.9579,-1.04,-1.0979,-1.117,-1.2829,-1.3806,-1.4004,-1.501,-1.5493,-1.5493,-1.573,-1.5952,-1.6186,-1.6246,-1.6583,-1.7038,-1.7152,-1.7333,-1.7554,-1.7562,-1.7582,-1.7582,-1.7582,-1.7582,-1.7582,-1.7582,-1.7582,-1.7582,-0.7095,-0.7095,-0.7095,-0.7095,0.0,0.0,0.0,0.0,0.0,0.0,0.0,0.0,0.0,0.0,0.0,0.0,0.0,-0.7095,-0.7095,-0.7095,0.0,0.0,0.0,-0.7095,-0.7095,0.0,0.0,0.0,0.0,0.0,0.0,0.0,0.0,0.0,-0.7095,0.0,0.0,0.0,-0.7095,-0.7095,-0.6962,-0.6384,-0.5361,-0.3582,-0.2822,-0.2606,-0.1786,-0.1493,-0.1468,-0.1468,-0.1468,-0.1468,-0.1468,-0.1497,-0.1522,-0.1613,-0.1638,-0.1614,-0.1704,-0.2464,-0.3401,-0.4245,-0.5181,-0.6074,-0.6918,0.0,-0.7095,-0.7095,0.0,-0.7095,-0.7095,0.0,0.0,-0.7043,-0.7365,-0.7639,-0.7707,-0.8224,-0.8716,-0.9108,-0.9145,-0.9218,-0.942,-0.9535,-0.9579,-0.9579,-0.9579,-0.9579,-0.9579,-0.9723,-1.0207,-1.117,-1.1414,-1.1999,-1.2877,-1.395,-1.449,-1.449,-1.535,-1.5798,-1.5885,-1.6152,-1.6362,-1.6449,-1.6971,-1.7219,-1.7266,-1.7475,-1.7582,-1.7582,-1.7582,-1.7582,-1.7582,-1.7582,-1.7582,-1.7582,-0.7095,-0.7095,-0.7095,-0.7095,0.0,0.0,0.0,0.0,0.0,0.0,0.0,0.0,-0.7397,-0.7407,-0.7407,-0.7407,-0.7326,-0.7312,-0.74,-0.7193,0.0,0.0,-0.7142,-0.7095,-0.7095,0.0,0.0,0.0,-0.7095,0.0,0.0,0.0,0.0,0.0,-0.7095,0.0,-0.7095,0.0,-0.7095,-0.7095,-0.7095,-0.6567,-0.5599,-0.4233,-0.303,-0.2047,-0.1643,-0.1515,-0.1478,-0.1478,-0.1478,-0.1478,-0.1478,-0.1517,-0.1507,-0.1507,-0.1498,-0.1438,-0.1466,-0.2146,-0.3137,-0.4078,-0.5003,-0.5941,-0.6874,-0.7095,-0.7095,-0.7095,0.0,0.0,0.0,0.0,0.0,0.0,-0.7285,-0.757,-0.7759,-0.8088,-0.8466,-0.8868,-0.9031,-0.9125,-0.9198,-0.9275,-0.936,-0.9462,-0.947,-0.9514,-0.9571,-0.9579,-0.9821,-1.0256,-1.0881,-1.1414,-1.1853,-1.2877,-1.3366,-1.3366,-1.443,-1.4921,-1.4968,-1.5671,-1.6112,-1.6286,-1.6583,-1.6884,-1.7213,-1.7333,-1.7535,-1.7849,-1.7849,-1.7742,-1.7582,-1.7582,-1.7582,-1.7582,-0.7095,0.0,0.0,0.0,0.0,0.0,0.0,0.0,0.0,0.0,0.0,-0.7478,-0.7587,-0.76,-0.76,-0.76,-0.7499,-0.7482,-0.7594,-0.739,-0.7299,-0.7412,-0.7261,-0.7139,-0.7098,-0.7095,-0.7095,0.0,0.0,0.0,0.0,0.0,0.0,0.0,0.0,-0.7095,-0.7095,-0.7095,-0.7095,-0.7098,-0.7142,-0.6497,-0.5339,-0.4334,-0.2922,-0.1538,-0.1538,-0.1544,-0.1551,-0.1551,-0.1551,-0.1551,-0.1551,-0.1545,-0.1538,-0.1538,-0.1533,-0.1521,-0.1499,-0.2006,-0.2832,-0.4063,-0.4842,-0.5631,-0.6888,-0.7125,-0.7095,-0.7095,-0.7095,0.0,0.0,0.0,-0.7085,0.0,0.0,-0.7485,-0.7793,-0.7998,-0.8291,-0.869,-0.8909,-0.9019,-0.9019,-0.9068,-0.9169,-0.9388,-0.9404,-0.9578,-1.0002,-0.9772,-0.9723,-1.0015,-1.0498,-1.0739,-1.0739,-1.1755,-1.229,-1.229,-1.3366,-1.4004,-1.4346,-1.5064,-1.5658,-1.6152,-1.6239,-1.6563,-1.6971,-1.7132,-1.7408,-1.7816,-1.7929,-1.7856,-1.7709,-1.7709,-1.7655,-1.7582,-0.7095,-0.7095,0.0,0.0,0.0,0.0,0.0,0.0,-0.7412,-0.7415,-0.7499,-0.7594,-0.76,-0.76,-0.76,-0.76,-0.7594,-0.7594,-0.76,-0.759,-0.7519,-0.7422,-0.7412,-0.7292,-0.7098,-0.7095,-0.7095,0.0,0.0,0.0,0.0,0.0,0.0,0.0,0.0,-0.7095,-0.7095,-0.7095,-0.7095,-0.7109,-0.7302,-0.6269,-0.4534,-0.3449,-0.2458,-0.1619,-0.1619,-0.1589,-0.1614,-0.1614,-0.1614,-0.1614,-0.1614,-0.1594,-0.1619,-0.1619,-0.1549,-0.1478,-0.1477,-0.1525,-0.2047,-0.408,-0.4485,-0.4878,-0.6946,-0.7248,-0.7095,-0.7095,-0.7095,-0.7095,-0.7095,-0.7095,0.0,0.0,0.0,0.0,0.0,-0.7795,-0.8076,-0.8528,-0.8727,-0.8828,-0.8828,-0.8991,-0.9169,0.0,-0.9404,-0.9908,-1.1112,-1.0158,-1.0064,-1.1126,-1.0158,-0.9673,-0.9673,-1.069,-1.1268,-1.1268,-1.229,-1.3318,-1.4298,-1.4346,-1.4879,-1.5811,-1.6146,-1.6335,-1.6395,-1.6965,-1.7213,-1.7286,-1.7822,-1.7982,-1.7975,-1.7975,-1.7842,-1.7582,-0.7095,0.0,0.0,0.0,-0.7095,-0.7129,-0.7278,-0.7336,-0.7441,-0.7638,-0.7706,-0.7777,-0.7879,-0.784,-0.784,-0.784,-0.7797,-0.7784,-0.7837,-0.7709,-0.7617,-0.7658,-0.7573,-0.7451,-0.7295,-0.7292,-0.7244,-0.7095,0.0,0.0,0.0,0.0,0.0,0.0,0.0,-0.7095,-0.7095,-0.7095,-0.72,-0.727,-0.6807,-0.6229,-0.5521,-0.4469,-0.3046,-0.1601,-0.1601,-0.1608,-0.1617,-0.1617,-0.1617,-0.1617,-0.1617,-0.161,-0.1601,-0.1601,-0.1594,-0.1581,-0.1562,-0.1556,-0.2034,-0.4102,-0.4538,-0.5031,-0.7053,-0.7404,-0.7292,-0.7292,-0.721,-0.7095,-0.7095,-0.7095,0.0,0.0,0.0,0.0,0.0,-0.8029,-0.8209,-0.8381,-0.8544,-0.8653,-0.8653,-0.871,0.0,0.0,-0.9116,0.0,-0.9961,-0.9755,-1.0113,-1.117,-1.0837,-1.0984,-1.1668,-1.137,-1.1512,-1.2193,-1.1853,-1.2242,-1.3216,-1.3216,-1.3806,-1.4831,-1.4925,-1.5457,-1.6335,-1.6536,-1.6851,-1.7239,-1.7589,-1.7862,-1.8015,-1.827,-1.815,-1.7862,-0.7095,-0.7095,-0.7095,-0.7095,-0.7142,-0.7275,-0.7428,-0.7495,-0.7597,-0.7787,-0.7858,-0.788,-0.7978,-0.7988,-0.7988,-0.7988,-0.7901,-0.7957,-0.8113,-0.7892,-0.7797,-0.7889,-0.7753,-0.7604,-0.7455,-0.7451,-0.7377,-0.7221,-0.7221,-0.7149,0.0,0.0,0.0,0.0,0.0,-0.7125,-0.7221,-0.7221,-0.7312,-0.7425,-0.6945,-0.6328,-0.5625,-0.4937,-0.3639,-0.212,-0.1717,-0.1617,-0.1617,-0.1617,-0.1617,-0.1617,-0.1617,-0.1617,-0.1617,-0.1617,-0.1617,-0.1613,-0.1593,-0.1588,-0.2027,-0.37,-0.4055,-0.456,-0.662,-0.6992,-0.6875,-0.6871,-0.7063,-0.707,-0.6662,-0.6874,0.0,0.0,0.0,0.0,0.0,-0.8143,-0.8292,-0.8292,-0.8398,-0.8514,-0.8514,-0.8571,-0.8637,-0.8808,0.0,0.0,0.0,-0.966,-1.004,-1.117,-1.1219,-1.1512,-1.2145,-1.1901,-1.2047,-1.2678,-1.2047,-1.229,-1.327,-1.327,-1.3854,-1.4825,-1.4825,-1.531,-1.6126,-1.6226,-1.6543,-1.6924,-1.7326,-1.7615,-1.7929,-1.8343,-1.8303,-1.7949,-0.7119,-0.7119,-0.7122,-0.7129,-0.7288,-0.7434,-0.7587,-0.7726,-0.7814,-0.7821,-0.7907,-0.8002,-0.8002,-0.8008,-0.8012,-0.8012,-0.8012,-0.8126,-0.8272,-0.8136,-0.8002,-0.8002,-0.7906,-0.7756,-0.7614,-0.7611,-0.7536,-0.7429,-0.7419,0.0,0.0,0.0,0.0,0.0,-0.7095,0.0,-0.7415,-0.7415,-0.7465,-0.7624,-0.7767,-0.6623,-0.4874,-0.4824,-0.4124,-0.3074,-0.1969,-0.1617,-0.1617,-0.1617,-0.1617,-0.1617,-0.1617,-0.1617,-0.1617,-0.1617,-0.1617,-0.1617,-0.1617,-0.1617,-0.1869,-0.2923,-0.3081,-0.3575,-0.5674,-0.6024,-0.5905,-0.5839,-0.6639,-0.7008,-0.5883,-0.6479,-0.7095,0.0,0.0,0.0,-0.7808,-0.81,-0.8288,-0.8288,-0.8292,-0.8292,-0.8292,-0.8502,-0.8633,-0.8796,0.0,0.0,0.0,-0.9914,-0.9956,-1.1151,-1.1165,-1.1219,-1.1268,-1.2193,-1.263,-1.2678,-1.263,-1.3173,-1.4202,-1.4202,-1.4777,-1.573,-1.573,-1.5737,-1.5804,-1.6132,-1.6301,-1.6306,-1.6931,-1.7353,-1.7655,-1.825,-1.8297,-1.7969,-0.7482,-0.7482,-0.7516,-0.7621,-0.7584,-0.759,-0.7736,-0.7787,-0.7851,-0.7917,-0.8116,-0.8211,-0.8211,-0.8306,-0.8367,-0.8367,-0.8367,-0.8384,-0.8425,-0.8292,-0.8211,-0.8211,-0.8062,-0.7864,-0.776,-0.7756,-0.7685,-0.7543,-0.7428,0.0,-0.7309,0.0,0.0,0.0,0.0,0.0,-0.7415,-0.7415,-0.7519,-0.777,-0.787,-0.7155,-0.5882,-0.5127,-0.4124,-0.3074,-0.1969,-0.1617,-0.1617,-0.1617,-0.1617,-0.1617,-0.1617,-0.1617,-0.1617,-0.1617,-0.1617,-0.1617,-0.1617,-0.1617,-0.1869,-0.2923,-0.3161,-0.3498,-0.4841,-0.5065,-0.4945,-0.4919,-0.56,-0.6122,-0.5815,-0.6499,-0.7095,-0.7095,-0.7279,-0.7503,-0.7856,-0.7974,-0.8079,-0.8292,-0.8292,-0.8292,-0.8292,-0.8502,-0.8629,-0.8629,0.0,0.0,-0.9317,-0.9399,-0.9896,-1.0948,-1.1143,-1.156,-1.229,-1.1853,-1.195,-1.2678,-1.195,-1.2096,-1.3119,-1.3119,-1.3703,-1.4682,-1.4682,-1.5112,-1.5791,-1.5912,-1.5945,-1.5979,-1.6353,-1.6991,-1.7629,-1.8016,-1.8257,-1.8303,-0.76,-0.7648,-0.7719,-0.7797,-0.7801,-0.7821,-0.7899,-0.7967,-0.8041,-0.813,-0.8269,-0.8364,-0.8364,-0.8435,-0.8482,-0.8482,-0.8482,-0.8509,-0.8577,-0.8445,-0.8364,-0.8364,-0.8221,-0.8069,-0.7916,-0.7913,-0.7838,-0.7692,-0.7604,0.0,-0.7468,0.0,0.0,0.0,0.0,-0.7424,-0.757,-0.7634,-0.776,-0.7919,-0.7955,-0.7086,0.0,-0.5027,-0.3823,-0.2422,-0.1818,-0.1617,-0.1617,-0.1617,-0.1617,-0.1617,-0.1617,-0.1617,-0.1617,-0.1617,-0.1617,-0.1617,-0.1617,-0.1617,-0.1768,-0.2371,-0.2521,-0.2772,-0.3874,-0.4043,-0.4004,-0.3971,-0.4664,-0.5225,-0.5179,-0.5887,-0.6678,-0.7017,-0.7323,-0.7551,-0.7724,-0.7844,-0.7951,-0.8122,-0.825,-0.8292,-0.8292,-0.8502,-0.874,-0.9126,-0.9221,0.0,0.0,-0.9731,-0.9983,-1.0253,-1.0872,-1.1463,-1.2047,-1.1901,-1.2145,-1.2678,-1.2145,-1.2145,-1.2678,-1.2678,-1.327,-1.4298,-1.4298,-1.4873,-1.5784,-1.5784,-1.5784,-1.5811,-1.6159,-1.6784,-1.7481,-1.7736,-1.8029,-1.8217,-0.7658,-0.7756,-0.7848,-0.7868,-0.798,-0.8025,-0.8046,-0.8197,-0.833,-0.8347,-0.8425,-0.8513,-0.8513,-0.853,-0.854,-0.854,-0.854,-0.8598,-0.873,-0.8598,-0.8513,-0.8513,-0.8357,-0.8208,-0.8022,-0.8002,-0.7924,-0.7841,-0.7821,0.0,0.0,0.0,0.0,0.0,0.0,0.0,0.0,-0.7924,-0.7988,-0.7988,-0.7839,-0.6581,-0.4774,-0.4624,-0.3324,-0.1617,-0.1617,-0.1617,-0.1617,-0.1617,-0.1617,-0.1617,-0.1617,-0.1617,-0.1617,-0.1617,-0.1617,-0.1617,-0.1617,-0.1617,-0.1617,-0.1617,-0.1617,-0.1869,-0.2772,-0.2973,-0.301,-0.3009,-0.3726,-0.4357,-0.4161,-0.5044,-0.6088,-0.6941,-0.7279,-0.7459,-0.7507,-0.7693,-0.7858,-0.7944,-0.8154,0.0,-0.8325,-0.8518,-0.8955,-0.9816,-0.9903,-0.9978,0.0,0.0,-1.0137,-0.9363,-1.0431,-1.0979,-1.0979,-1.1853,-1.2296,-1.2296,-1.2436,-1.2484,-1.2484,-1.2635,-1.3216,-1.41,-1.425,-1.4825,-1.5588,-1.5737,-1.5784,-1.5811,-1.6159,-1.6636,-1.7125,-1.7402,-1.7689,-1.7876,-0.7914,-0.7934,-0.8041,-0.8167,-0.8211,-0.8269,-0.8387,-0.833,-0.8364,-0.8428,-0.8577,-0.8669,-0.8669,-0.8781,-0.8804,-0.8804,-0.8804,-0.8814,-0.8841,-0.8757,-0.8669,-0.8669,-0.8414,-0.831,-0.8231,-0.8106,-0.7978,-0.7948,-0.7872,0.0,0.0,0.0,0.0,0.0,0.0,0.0,-0.7821,-0.7924,0.0,-0.7939,-0.7036,-0.5932,-0.4724,-0.3823,-0.2722,-0.1617,-0.1617,-0.1617,-0.1617,-0.1617,-0.1617,-0.1617,-0.1617,-0.1617,-0.1617,-0.1617,-0.1617,-0.1617,-0.1617,-0.1617,-0.1617,-0.1617,-0.1617,-0.1667,-0.1818,-0.1868,-0.1866,-0.1861,-0.2626,-0.3272,-0.3249,-0.462,-0.6088,-0.6941,-0.7143,-0.7234,-0.7462,-0.7526,-0.7724,-0.8114,-0.8198,-0.8289,-0.8519,-0.8592,-0.8955,-0.9816,-0.9903,-0.9917,0.0,0.0,-1.0078,0.0,-0.9647,-0.9867,0.0,0.0,-1.0162,-1.0162,-1.1028,-1.1463,-1.1512,-1.2339,-1.2775,-1.3022,-1.3908,-1.4394,-1.4634,-1.5445,-1.5784,-1.5811,-1.6159,-1.6382,-1.6543,-1.7079,-1.7306,-1.742,-0.8143,-0.816,-0.8208,-0.8353,-0.8381,-0.8431,-0.8577,-0.8543,-0.8523,-0.8591,-0.8733,-0.8828,-0.8828,-0.8841,-0.8885,-0.8885,-0.8885,-0.8885,-0.8885,-0.8814,-0.8794,-0.8713,-0.8574,-0.8428,-0.8327,-0.8197,-0.8119,-0.7988,-0.7917,0.0,0.0,0.0,0.0,0.0,0.0,-0.7865,0.0,0.0,-0.7988,-0.7889,-0.6836,-0.5779,-0.4674,-0.3624,-0.2521,-0.1617,-0.1617,-0.1617,-0.1617,-0.1617,-0.1617,-0.1617,-0.1617,-0.1617,-0.1617,-0.1617,-0.1617,-0.1617,-0.1617,-0.1617,-0.1617,-0.1617,-0.1617,-0.1617,-0.1617,-0.1617,-0.1617,-0.1617,-0.1955,-0.243,-0.2894,-0.4549,-0.5928,-0.6367,-0.6789,-0.7143,-0.7279,-0.7415,-0.7595,-0.7808,-0.794,-0.8116,-0.838,-0.8815,-0.9336,-0.9859,-0.9903,-0.9903,0.0,0.0,-1.006,0.0,0.0,0.0,-0.9579,0.0,-0.9579,-0.9628,-1.0113,-1.035,-1.04,-1.089,-1.1419,-1.195,-1.249,-1.3318,-1.4394,-1.5397,-1.5784,-1.5798,-1.5985,-1.6139,-1.6388,-1.6985,-1.7199,-1.7266,-0.8286,-0.8368,-0.836,-0.8506,-0.853,-0.8581,-0.8733,-0.876,-0.876,-0.876,-0.8807,-0.8885,-0.8885,-0.8885,-0.8885,-0.8885,-0.8885,-0.8885,-0.8885,-0.8885,-0.8828,-0.8764,-0.8726,-0.8601,-0.837,-0.8354,-0.8211,-0.8039,-0.8005,-0.7975,0.0,0.0,0.0,0.0,0.0,0.0,0.0,0.0,-0.7889,-0.7587,-0.6484,-0.5429,-0.4325,-0.3274,-0.2321,-0.1617,-0.1617,-0.1617,-0.1617,-0.1617,-0.1617,-0.1617,-0.1617,-0.1617,-0.1617,-0.1617,-0.1617,-0.1617,-0.1617,-0.1617,-0.1617,-0.1617,-0.1617,-0.1617,-0.1617,-0.1617,-0.1617,-0.1617,-0.1617,-0.1908,-0.285,-0.4389,-0.5588,-0.5772,-0.659,-0.7132,-0.7102,-0.7279,-0.7415,-0.7507,-0.7724,-0.794,-0.8113,-0.8894,-0.9501,-0.9811,-1.0072,-1.0115,-0.9903,0.0,0.0,0.0,0.0,-0.9686,-0.9916,0.0,-0.9579,-0.9579,-0.9579,-0.9579,-0.9579,-0.9579,-1.0064,-1.0881,-1.1126,-1.2247,-1.4052,-1.5064,-1.5493,-1.5493,-1.5737,-1.5972,-1.6253,-1.6891,-1.7105,-1.7152,-0.8435,-0.8462,-0.8509,-0.8662,-0.8689,-0.874,-0.8841,-0.8861,-0.8861,-0.8861,-0.8875,-0.8885,-0.8885,-0.8885,-0.8885,-0.8885,-0.8885,-0.8885,-0.8885,-0.8885,-0.8875,-0.8861,-0.8784,-0.8699,-0.8669,-0.8408,-0.8313,-0.8248,-0.8109,-0.7921,0.0,0.0,0.0,0.0,0.0,0.0,0.0,-0.7988,-0.7437,-0.6437,-0.5377,-0.4325,-0.3224,-0.217,-0.1667,-0.1617,-0.1617,-0.1617,-0.1617,-0.1617,-0.1617,-0.1617,-0.1617,-0.1617,-0.1617,-0.1617,-0.1617,-0.1617,-0.1617,-0.1617,-0.1617,-0.1617,-0.1617,-0.1617,-0.1617,-0.1617,-0.1617,-0.1617,-0.1617,-0.1908,-0.285,-0.3952,-0.4953,-0.566,-0.667,-0.7299,-0.7115,-0.7139,-0.7231,-0.7462,-0.7724,-0.79,-0.794,-0.8384,-0.8951,-0.9584,-1.0582,-1.0809,-0.9946,0.0,0.0,-1.0454,-0.9793,-0.9938,-1.1023,-1.0113,-0.9579,-0.9579,-0.9579,-0.9579,-0.9579,-0.9579,-0.9673,-0.9821,-1.0788,-1.1853,-1.2926,-1.4004,-1.4442,-1.4538,-1.5445,-1.5798,-1.5945,-1.6533,-1.6747,-1.6827,-0.8428,-0.8618,-0.8669,-0.8821,-0.8849,-0.8896,-0.9045,-0.9066,-0.91,-0.9191,-0.9127,-0.9103,-0.9195,-0.9205,-0.9205,-0.9205,-0.912,-0.9066,-0.9066,-0.8988,-0.8885,-0.8885,-0.8824,-0.8804,-0.8713,-0.8594,-0.8448,-0.8323,-0.8208,-0.8099,-0.7901,0.0,0.0,0.0,0.0,-0.7988,-0.7988,-0.7988,-0.7739,-0.7185,-0.5477,-0.4524,-0.3974,-0.227,-0.1617,-0.1617,-0.1617,-0.1617,-0.1617,-0.1617,-0.1617,-0.1617,-0.1617,-0.1617,-0.1617,-0.1617,-0.1617,-0.1617,-0.1617,-0.1617,-0.1617,-0.1617,-0.1617,-0.1617,-0.1617,-0.1617,-0.1617,-0.1617,-0.1617,-0.1713,-0.2099,-0.3504,-0.4722,-0.5031,-0.6366,-0.735,-0.7288,-0.7156,-0.7143,-0.7234,-0.7367,-0.7499,-0.7635,-0.8464,-0.9157,-0.9579,-1.0111,-1.0289,-0.9903,0.0,0.0,-0.9731,0.0,-0.9743,-1.0207,-0.9821,-0.9579,-0.9579,-0.9579,-0.9579,-0.9579,-0.9579,-0.9579,-0.9677,-1.0739,-1.1414,-1.1901,-1.2926,-1.3709,-1.4346,-1.4729,-1.5255,-1.5851,-1.6493,-1.6707,-1.6787,-0.8036,-0.8502,-0.8825,-0.8974,-0.9001,-0.9052,-0.9255,-0.9275,-0.9333,-0.9429,-0.9354,-0.931,-0.9374,-0.9381,-0.9381,-0.9381,-0.934,-0.9258,-0.9214,-0.9059,-0.8984,-0.8885,-0.8885,-0.8834,-0.8781,-0.8733,-0.8608,-0.8401,-0.8364,-0.8191,-0.7988,0.0,0.0,0.0,-0.7988,-0.7988,-0.7988,-0.7988,-0.7839,-0.7388,-0.5527,-0.4624,-0.4124,-0.2321,-0.1617,-0.1617,-0.1617,-0.1617,-0.1617,-0.1617,-0.1617,-0.1617,-0.1617,-0.1617,-0.1617,-0.1617,-0.1617,-0.1617,-0.1617,-0.1617,-0.1617,-0.1617,-0.1617,-0.1617,-0.1617,-0.1617,-0.1617,-0.1617,-0.1617,-0.1617,-0.1617,-0.329,-0.4628,-0.4604,-0.6256,-0.7468,-0.7429,-0.7278,-0.7146,-0.7102,-0.7228,-0.7363,-0.737,-0.8372,-0.9152,-0.9449,-0.9818,-0.9987,0.0,0.0,0.0,0.0,0.0,0.0,-1.006,-0.9772,-0.9579,-0.9579,-0.9579,-0.9579,-0.9579,-0.9579,-0.9579,-0.9628,-1.04,-1.0739,-1.0788,-1.1858,-1.2732,-1.342,-1.3709,-1.4238,-1.4977,-1.5532,-1.5941,-1.6333,-0.7072,-0.81,-0.8981,-0.918,-0.9207,-0.9258,-0.9354,-0.9378,-0.9435,-0.9588,-0.9605,-0.9547,-0.9398,-0.9381,-0.9381,-0.9381,-0.9381,-0.9313,-0.9221,-0.9207,-0.9086,-0.8888,-0.8885,-0.8885,-0.8881,-0.8788,-0.871,-0.8706,-0.8414,-0.8191,-0.7985,-0.7885,-0.7896,-0.7988,-0.7988,-0.7988,-0.7988,-0.7988,-0.7388,-0.6334,-0.5227,-0.4175,-0.3123,-0.2019,-0.1617,-0.1617,-0.1617,-0.1617,-0.1617,-0.1617,-0.1617,-0.1617,-0.1617,-0.1617,-0.1617,-0.1617,-0.1617,-0.1617,-0.1617,-0.1617,-0.1617,-0.1617,-0.1617,-0.1617,-0.1617,-0.1617,-0.1617,-0.1617,-0.1617,-0.1617,-0.1617,-0.3373,-0.4746,-0.4612,-0.6397,-0.7702,-0.7456,-0.7415,-0.7312,-0.7112,-0.7584,-0.7676,-0.7139,-0.8032,-0.8775,-0.9192,-0.9811,-1.0199,0.0,0.0,0.0,-1.0858,-0.9927,0.0,-1.117,-1.0109,-0.9579,-0.9579,-0.9579,-0.9579,-0.9579,-0.9579,-0.9579,-0.9579,-0.9628,-0.9628,-0.9723,-1.0788,-1.1219,-1.1317,-1.2339,-1.2727,-1.2786,-1.327,-1.4214,-1.5314,-0.6963,-0.761,-0.8162,-0.9164,-0.931,-0.9361,-0.9513,-0.9537,-0.9588,-0.9734,-0.9754,-0.9734,-0.9686,-0.968,-0.968,-0.968,-0.9591,-0.9517,-0.9466,-0.9326,-0.919,-0.9086,-0.8991,-0.8885,-0.8885,-0.8838,-0.8815,-0.871,-0.8618,-0.8442,-0.8194,-0.8038,-0.7941,-0.7988,-0.7988,-0.7988,-0.7988,-0.7988,-0.7789,-0.7388,-0.6334,-0.5227,-0.4175,-0.3123,-0.222,-0.1617,-0.1617,-0.1617,-0.1617,-0.1617,-0.1617,-0.1617,-0.1617,-0.1617,-0.1617,-0.1617,-0.1617,-0.1617,-0.1617,-0.1617,-0.1617,-0.1617,-0.1617,-0.1617,-0.1617,-0.1617,-0.1617,-0.1617,-0.1617,-0.1818,-0.2572,-0.3823,-0.5016,-0.5738,-0.6945,-0.7777,-0.7685,-0.7499,-0.7353,-0.7302,-0.7337,-0.7367,-0.737,-0.7916,-0.8597,-0.9419,-1.0038,0.0,0.0,0.0,0.0,0.0,-0.9668,0.0,-1.0109,-0.9772,-0.9579,-0.9579,-0.9579,-0.9579,-0.9579,-0.9579,-0.9579,-0.9579,-0.9579,-0.9579,-0.9628,-0.9965,-1.0547,-1.1219,-1.156,-1.2193,-1.2918,-1.3279,-1.4213,-1.539,-0.6341,-0.7101,-0.7835,-0.9205,-0.9466,-0.9517,-0.9666,-0.969,-0.972,-0.9808,-0.9822,-0.9822,-0.9822,-0.9822,-0.9822,-0.9822,-0.9741,-0.9666,-0.9612,-0.9374,-0.9268,-0.921,-0.9015,-0.8885,-0.8885,-0.8885,-0.8838,-0.8798,-0.8737,-0.8587,-0.8347,-0.8252,-0.8177,-0.8126,-0.8126,-0.8096,-0.7988,-0.7988,-0.7988,-0.7889,-0.6381,-0.5377,-0.4624,-0.3173,-0.217,-0.1617,-0.1617,-0.1617,-0.1617,-0.1617,-0.1617,-0.1617,-0.1617,-0.1617,-0.1617,-0.1617,-0.1617,-0.1617,-0.1617,-0.1617,-0.1617,-0.1617,-0.1617,-0.1617,-0.1617,-0.1617,-0.1617,-0.1617,-0.1617,-0.1919,-0.3022,-0.4074,-0.5127,-0.6234,-0.7214,-0.7875,-0.7821,-0.7651,-0.7516,-0.7461,-0.7415,-0.7448,-0.7545,-0.7995,-0.8554,-0.9061,-0.9708,0.0,0.0,0.0,-1.0327,-0.9502,-0.9567,-0.9579,-0.9579,-0.9579,-0.9579,-0.9579,-0.9579,-0.9579,-0.9579,-0.9579,-0.9579,-0.9579,-0.9579,-0.9579,-0.9579,-0.9579,-1.0015,-1.0596,-1.0596,-1.1109,-1.1867,-1.2138,-1.3329,-1.4873,-0.535,-0.6521,-0.7791,-0.9357,-0.9625,-0.9669,-0.9802,-0.9822,-0.9822,-0.9822,-0.9822,-0.9822,-0.9822,-0.9822,-0.9822,-0.9822,-0.9822,-0.9764,-0.9632,-0.9483,-0.9327,-0.9231,-0.9032,-0.8895,-0.8885,-0.8885,-0.8885,-0.8885,-0.8784,-0.8635,-0.8499,-0.8486,-0.8411,-0.8337,-0.8337,-0.8204,-0.8019,-0.8019,-0.8015,-0.7856,-0.5839,-0.4931,-0.4574,-0.2572,-0.1717,-0.1617,-0.1617,-0.1617,-0.1617,-0.1617,-0.1617,-0.1617,-0.1617,-0.1617,-0.1617,-0.1617,-0.1617,-0.1617,-0.1617,-0.1617,-0.1617,-0.1617,-0.1617,-0.1617,-0.1617,-0.1617,-0.1617,-0.1617,-0.1617,-0.1969,-0.3123,-0.4124,-0.5177,-0.6334,-0.7338,-0.7941,-0.7845,-0.7818,-0.7763,-0.7631,-0.7788,-0.7828,-0.7647,-0.8254,-0.8582,-0.8337,0.0,0.0,0.0,0.0,-1.0307,-0.9624,-0.9579,-0.9579,-0.9579,-0.9579,-0.9579,-0.9579,-0.9579,-0.9579,-0.9579,-0.9579,-0.9579,-0.9579,-0.9579,-0.9579,-0.9579,-0.9579,-0.9579,-0.9579,-0.9579,-0.9742,-0.9975,-1.0199,-1.184,-1.3957,-0.5368,-0.6037,-0.7023,-0.9318,-0.9771,-0.9781,-0.9815,-0.9822,-0.9822,-0.9822,-0.9822,-0.9822,-0.9822,-0.9822,-0.9822,-0.9822,-0.9822,-0.9805,-0.9774,-0.9635,-0.9486,-0.9334,-0.9181,-0.9052,-0.8885,-0.8885,-0.8885,-0.8885,-0.8784,-0.8693,-0.8655,-0.8537,-0.8465,-0.8431,-0.8431,-0.8411,-0.8377,-0.8377,-0.8313,-0.8164,-0.7699,-0.6412,-0.4724,-0.4225,-0.3022,-0.1617,-0.1617,-0.1617,-0.1617,-0.1617,-0.1617,-0.1617,-0.1617,-0.1617,-0.1617,-0.1617,-0.1617,-0.1617,-0.1617,-0.1617,-0.1617,-0.1617,-0.1617,-0.1617,-0.1617,-0.1617,-0.1617,-0.1617,-0.1617,-0.217,-0.4074,-0.4624,-0.5425,-0.7335,-0.7839,-0.7978,-0.7941,-0.7885,-0.7797,-0.7767,-0.7712,-0.7691,-0.7828,-0.8314,-0.8621,0.0,0.0,-0.9502,-0.9412,-0.9676,-0.9776,-0.9624,-0.9579,-0.9579,-0.9579,-0.9579,-0.9579,-0.9579,-0.9579,-0.9579,-0.9579,-0.9579,-0.9579,-0.9579,-0.9579,-0.9579,-0.9579,-0.9579,-0.9579,-0.9579,-0.9579,-0.9819,-1.0255,-1.1169,-1.2608,-1.4169,-0.4611,-0.5466,-0.657,-0.8581,-0.939,-0.9822,-0.9822,-0.9822,-0.9822,-0.9822,-0.9822,-0.9822,-0.9822,-0.9822,-0.9822,-0.9822,-0.9822,-0.9822,-0.9822,-0.969,-0.9571,-0.949,-0.933,-0.9173,-0.9039,-0.8974,-0.8885,-0.8885,-0.8801,-0.8815,-0.8811,-0.873,-0.8655,-0.8584,-0.8584,-0.8547,-0.8482,-0.8482,-0.8122,-0.7531,-0.7009,-0.5721,-0.4073,-0.3582,-0.2655,-0.1636,-0.1622,-0.1617,-0.1617,-0.1617,-0.1617,-0.1617,-0.1617,-0.1617,-0.1617,-0.1617,-0.1617,-0.1617,-0.1617,-0.1617,-0.1617,-0.1617,-0.1617,-0.1617,-0.1617,-0.1617,-0.1617,-0.1617,-0.1617,-0.227,-0.4423,-0.4824,-0.5525,-0.7637,-0.7988,-0.7988,-0.7988,-0.7917,-0.7916,-0.7916,-0.7848,-0.7849,-0.7942,-0.8403,-0.871,-0.8756,-0.9266,0.0,-0.9486,-0.9571,-0.9579,-0.9579,-0.9579,-0.9579,-0.9579,-0.9579,-0.9579,-0.9579,-0.9579,-0.9579,-0.9579,-0.9579,-0.9579,-0.9579,-0.9579,-0.9579,-0.9579,-0.9579,-0.9579,-0.9686,-1.0261,-1.0725,-1.1148,-1.2375,-1.3725,-1.4995,-0.3632,-0.4977,-0.6324,-0.7673,-0.8961,-0.9822,-0.9822,-0.9822,-0.9822,-0.9822,-0.9822,-0.9822,-0.9822,-0.9822,-0.9822,-0.9822,-0.9822,-0.9822,-0.9822,-0.9707,-0.9632,-0.9612,-0.9361,-0.9268,-0.9245,-0.9045,-0.8905,-0.8885,-0.8885,-0.8885,-0.8885,-0.8885,-0.8814,-0.8747,-0.8747,-0.8672,-0.855,-0.855,-0.7843,-0.6656,-0.5755,-0.4526,-0.3187,-0.2305,-0.1825,-0.1717,-0.1639,-0.1627,-0.1624,-0.1624,-0.1621,-0.1617,-0.1617,-0.1617,-0.1617,-0.1617,-0.1617,-0.1617,-0.1617,-0.1617,-0.1617,-0.1617,-0.1617,-0.1617,-0.1617,-0.1617,-0.1617,-0.1617,-0.1717,-0.2471,-0.4425,-0.4924,-0.5677,-0.7686,-0.7988,-0.7988,-0.7988,0.0,-0.7988,-0.7988,-0.7988,-0.7988,-0.7988,-0.8482,-0.8825,-0.8825,-0.9278,-0.9579,-0.9579,-0.9579,-0.9579,-0.9579,-0.9579,-0.9579,-0.9579,-0.9579,-0.9579,-0.9579,-0.9579,-0.9579,-0.9579,-0.9579,-0.9579,-0.9579,-0.9579,-0.9579,-0.9579,-0.9579,-0.9673,-0.9937,-1.112,-1.1827,-1.2287,-1.366,-1.4895,-1.5914,-0.3632,-0.4977,-0.6324,-0.7673,-0.8961,-0.9822,-0.9822,-0.9822,-0.9822,-0.9822,-0.9822,-0.9822,-0.9822,-0.9822,-0.9822,-0.9822,-0.9822,-0.9822,-0.9822,-0.9798,-0.9734,-0.9615,-0.9564,-0.9479,-0.9347,-0.9255,-0.9059,-0.8885,-0.8885,-0.8885,-0.8885,-0.8885,-0.8871,-0.8848,-0.8848,-0.8834,-0.8814,-0.8814,-0.808,-0.6835,-0.667,-0.5272,-0.3298,-0.313,-0.2492,-0.1697,-0.1692,-0.1675,-0.1707,-0.1707,-0.1638,-0.1617,-0.1617,-0.1617,-0.1617,-0.1617,-0.1617,-0.1617,-0.1617,-0.1617,-0.1617,-0.1617,-0.1617,-0.1617,-0.1617,-0.1617,-0.1617,-0.1617,-0.2321,-0.3323,-0.4574,-0.5529,-0.6534,-0.7789,-0.7988,-0.7988,-0.7988,0.0,-0.7988,-0.7988,-0.7988,-0.7988,-0.7988,-0.8482,-0.8825,-0.8825,-0.9278,-0.9579,-0.9579,-0.9579,-0.9579,-0.9579,-0.9579,-0.9579,-0.9579,-0.9579,-0.9579,-0.9579,-0.9579,-0.9579,-0.9579,-0.9579,-0.9579,-0.9579,-0.9579,-0.9579,-0.9579,-0.9579,-1.0109,-1.1002,-1.1416,-1.2228,-1.3316,-1.4804,-1.5585,-1.6021,-0.2774,-0.449,-0.608,-0.6693,-0.8471,-0.9822,-0.9822,-0.9822,-0.9822,-0.9822,-0.9822,-0.9822,-0.9822,-0.9822,-0.9822,-0.9822,-0.9822,-0.9822,-0.9822,-0.9822,-0.9791,-0.9727,-0.9649,-0.9537,-0.9384,-0.9313,-0.9242,-0.9178,-0.9096,-0.9055,-0.9052,-0.8974,-0.8885,-0.8885,-0.8885,-0.8885,-0.8881,-0.8214,-0.7227,-0.6017,-0.5412,-0.4073,-0.2516,-0.2492,-0.216,-0.1727,-0.171,-0.1696,-0.1685,-0.1685,-0.1665,-0.1641,-0.1641,-0.163,-0.1617,-0.1617,-0.1617,-0.1617,-0.1617,-0.1617,-0.1617,-0.1617,-0.1617,-0.1617,-0.1617,-0.1617,-0.1768,-0.2321,-0.2873,-0.3725,-0.5379,-0.6082,-0.6736,-0.7839,-0.7988,-0.7988,-0.7988,-0.7988,-0.7988,-0.7988,-0.7988,-0.7988,-0.7988,-0.8482,-0.8825,-0.8825,-0.9278,-0.9579,-0.9579,-0.9579,-0.9579,-0.9579,-0.9579,-0.9579,-0.9579,-0.9579,-0.9579,-0.9579,-0.9579,-0.9579,-0.9579,-0.9579,-0.9579,-0.9579,-0.9579,-0.9579,-0.9579,-0.9579,-0.9975,-1.0571,-1.1429,-1.2556,-1.3819,-1.5217,-1.6187,-1.6882,-0.1977,-0.3879,-0.5529,-0.5835,-0.7795,-0.9454,-0.9758,-0.9822,-0.9822,-0.9822,-0.9822,-0.9822,-0.9822,-0.9822,-0.9822,-0.9822,-0.9822,-0.9822,-0.9822,-0.9822,-0.9822,-0.9822,-0.9717,-0.9588,-0.9439,-0.9435,-0.9415,-0.9381,-0.932,-0.9262,-0.9262,-0.9093,-0.9022,-0.8988,-0.8988,-0.8971,-0.8826,-0.7934,-0.6702,-0.5306,-0.4414,-0.3135,-0.1793,-0.1824,-0.1815,-0.1812,-0.1733,-0.172,-0.1714,-0.1714,-0.1696,-0.1724,-0.1724,-0.1656,-0.1636,-0.1629,-0.1622,-0.1617,-0.1617,-0.1617,-0.1617,-0.1617,-0.1617,-0.1617,-0.1617,-0.1617,-0.1919,-0.2973,-0.3374,-0.4176,-0.6034,-0.6587,-0.7036,-0.7889,0.0,-0.7988,-0.7988,-0.7988,-0.7988,-0.7988,-0.7988,-0.7988,-0.7988,-0.8482,-0.8825,-0.8825,-0.9278,-0.9579,-0.9579,-0.9579,-0.9579,-0.9579,-0.9579,-0.9579,-0.9579,-0.9579,-0.9579,-0.9579,-0.9579,-0.9579,-0.9579,-0.9579,-0.9579,-0.9579,-0.9579,-0.9579,-0.9579,-0.9669,-0.9916,-1.0361,-1.1517,-1.2752,-1.3983,-1.5069,-1.6234,-1.7206,-0.1977,-0.3081,-0.4427,-0.5712,-0.706,-0.8407,-0.9636,-0.9822,-0.9822,-0.9822,-0.9822,-0.9822,-0.9822,-0.9822,-0.9822,-0.9822,-0.9822,-0.9822,-0.9822,-0.9822,-0.9822,-0.9822,-0.9812,-0.9737,-0.9595,-0.9591,-0.9523,-0.9381,-0.9371,-0.9364,-0.9364,-0.9354,-0.9273,-0.9193,-0.9193,-0.9062,-0.8881,-0.8826,-0.7482,-0.5417,-0.5306,-0.3858,-0.1795,-0.1793,-0.1791,-0.1791,-0.1789,-0.177,-0.1801,-0.1801,-0.1726,-0.1701,-0.1701,-0.1699,-0.1692,-0.1719,-0.1639,-0.1617,-0.1617,-0.1617,-0.1617,-0.1617,-0.1617,-0.1617,-0.1617,-0.1617,-0.1919,-0.2973,-0.3974,-0.5027,-0.6184,-0.7188,-0.7889,-0.7988,0.0,0.0,-0.7988,-0.7988,-0.7988,-0.7988,-0.7988,-0.7988,-0.7988,-0.8482,-0.8825,-0.8825,-0.9278,-0.9579,-0.9579,-0.9579,-0.9579,-0.9579,-0.9579,-0.9579,-0.9579,-0.9579,-0.9579,-0.9579,-0.9579,-0.9579,-0.9579,-0.9579,-0.9579,-0.9579,-0.9579,-0.9579,-0.9591,-0.9799,-1.0424,-1.1327,-1.194,-1.2783,-1.3762,-1.4104,-1.4995,-1.6021,-0.1977,-0.302,-0.4304,-0.5651,-0.6999,-0.8346,-0.9576,-0.9822,-0.9822,-0.9822,-0.9822,-0.9822,-0.9822,-0.9822,-0.9822,-0.9822,-0.9822,-0.9822,-0.9822,-0.9822,-0.9822,-0.9822,-0.9822,-0.9795,-0.9741,-0.9741,-0.971,-0.9652,-0.9564,-0.9523,-0.952,-0.9425,-0.9351,-0.9354,-0.9354,-0.9211,-0.9016,-0.8276,-0.6987,-0.5361,-0.4582,-0.3301,-0.1795,-0.1795,-0.1795,-0.1795,-0.1795,-0.1788,-0.1778,-0.1778,-0.1758,-0.1787,-0.1787,-0.172,-0.1702,-0.1691,-0.1668,-0.1645,-0.1645,-0.1631,-0.1617,-0.1617,-0.1617,-0.1617,-0.1617,-0.212,-0.2873,-0.3974,-0.5027,-0.6132,-0.7188,-0.7736,-0.7988,-0.7988,0.0,-0.7988,-0.7988,-0.7988,-0.7988,-0.7988,-0.7988,-0.7988,-0.7988,-0.8333,-0.8627,-0.8775,-0.913,-0.943,-0.9579,-0.9579,-0.9579,-0.9579,-0.9579,-0.9579,-0.9579,-0.9579,-0.9579,-0.9579,-0.9579,-0.9579,-0.9579,-0.9579,-0.9579,-0.9579,-0.9579,-0.9689,-0.9791,-0.9855,-1.0275,-1.081,-1.1009,-1.1821,-1.2895,-1.3028,-1.376,-1.4781,-0.1977,-0.2714,-0.3877,-0.559,-0.663,-0.7856,-0.9515,-0.9822,-0.9822,-0.9822,-0.9822,-0.9822,-0.9822,-0.9822,-0.9822,-0.9822,-0.9822,-0.9822,-0.9822,-0.9822,-0.9822,-0.9822,-0.9822,-0.9822,-0.9822,-0.9822,-0.9822,-0.9822,-0.9724,-0.9676,-0.9673,-0.9568,-0.9496,-0.9452,-0.9452,-0.9367,-0.9222,-0.8359,-0.7253,-0.5909,-0.4731,-0.3486,-0.2297,-0.1963,-0.1795,-0.1795,-0.1795,-0.1795,-0.1795,-0.1795,-0.1781,-0.1819,-0.1819,-0.1743,-0.1718,-0.1718,-0.1698,-0.1675,-0.1675,-0.1654,-0.1628,-0.162,-0.1869,-0.212,-0.212,-0.2923,-0.4026,-0.5077,-0.5882,-0.6736,-0.7789,-0.7988,-0.7988,-0.7988,-0.7988,-0.7988,-0.7988,-0.7988,-0.7988,-0.7988,-0.7988,-0.7988,-0.7988,-0.8237,-0.8482,-0.8676,-0.8981,-0.9331,-0.9579,-0.9579,-0.9579,-0.9579,-0.9579,-0.9579,-0.9579,-0.9579,-0.9579,-0.9579,-0.9579,-0.9579,-0.9579,-0.9579,-0.9579,-0.9579,-0.9685,-0.9774,-0.9892,-1.001,-1.0205,-1.0387,-1.0493,-1.1066,-1.1878,-1.1878,-1.2575,-1.3545,-0.1977,-0.1977,-0.2837,-0.5408,-0.5896,-0.6754,-0.939,-0.9822,-0.9822,-0.9822,-0.9822,-0.9822,-0.9822,-0.9822,-0.9822,-0.9822,-0.9822,-0.9822,-0.9822,-0.9822,-0.9822,-0.9822,-0.9822,-0.9822,-0.9822,-0.9822,-0.9822,-0.9822,-0.9822,-0.9822,-0.9822,-0.9822,-0.9744,-0.9612,-0.9612,-0.9527,-0.9384,-0.9384,-0.8654,-0.7326,-0.607,-0.4823,-0.3469,-0.2242,-0.1795,-0.1795,-0.1795,-0.1795,-0.1795,-0.1795,-0.1795,-0.1795,-0.1795,-0.1774,-0.1804,-0.1804,-0.1728,-0.1705,-0.1705,-0.1736,-0.1707,-0.1625,-0.2422,-0.3224,-0.3224,-0.4024,-0.5127,-0.6184,-0.6387,-0.6736,-0.7789,-0.7988,-0.7988,-0.7988,-0.7988,-0.7988,-0.7988,-0.7988,-0.7988,-0.7988,-0.7988,-0.7988,-0.7988,-0.8237,-0.8382,-0.8382,-0.8886,-0.9331,-0.9579,-0.9579,-0.9579,-0.9579,-0.9579,-0.9579,-0.9579,-0.9579,-0.9579,-0.9579,-0.9579,-0.9579,-0.9579,-0.9579,-0.9579,-0.964,-0.9811,-0.9888,-0.9916,-1.0286,-1.0383,-1.0399,-1.0627,-1.0692,-1.0692,-1.0692,-1.1391,-1.2413,-0.1977,-0.1977,-0.253,-0.4183,-0.5284,-0.6508,-0.8224,-0.9207,-0.9822,-0.9822,-0.9822,-0.9822,-0.9822,-0.9822,-0.9822,-0.9822,-0.9822,-0.9822,-0.9822,-0.9822,-0.9822,-0.9822,-0.9822,-0.9822,-0.9822,-0.9822,-0.9822,-0.9822,-0.9822,-0.9822,-0.9822,-0.9822,-0.9798,-0.9758,-0.9758,-0.9676,-0.954,-0.954,-0.8743,-0.7451,-0.6116,-0.4849,-0.3588,-0.2281,-0.1813,-0.1795,-0.1795,-0.1795,-0.1795,-0.1795,-0.1795,-0.1795,-0.1795,-0.1789,-0.1781,-0.1781,-0.176,-0.1952,-0.2762,-0.2942,-0.2945,-0.2841,-0.3002,-0.3374,-0.4175,-0.5177,-0.6032,-0.6334,-0.6989,-0.764,-0.7939,-0.7988,-0.7988,-0.7988,-0.7988,-0.7988,-0.7988,-0.7988,-0.7988,-0.7988,-0.7988,-0.7988,-0.7988,-0.8088,-0.8187,-0.8382,-0.8886,-0.9331,-0.9579,-0.9579,-0.9579,-0.9579,-0.9579,-0.9579,-0.9579,-0.9579,-0.9579,-0.9579,-0.9579,-0.9579,-0.9583,-0.975,-0.9807,-0.9819,-0.9998,-1.0152,-1.0278,-1.0338,-1.0505,-1.0623,-1.0672,-1.0692,-1.0802,-1.161,-1.1605,-1.1446,-0.1977,-0.1977,-0.2591,-0.4367,-0.5345,-0.651,-0.8346,-0.9329,-0.9822,-0.9822,-0.9822,-0.9822,-0.9822,-0.9822,-0.9822,-0.9822,-0.9822,-0.9822,-0.9822,-0.9822,-0.9822,-0.9822,-0.9822,-0.9822,-0.9822,-0.9822,-0.9822,-0.9822,-0.9822,-0.9822,-0.9822,-0.9822,-0.9822,-0.9822,-0.9822,-0.9774,-0.9693,-0.9693,-0.8885,-0.752,-0.6219,-0.4931,-0.3591,-0.2321,-0.1847,-0.1829,-0.1817,-0.1812,-0.1811,-0.1799,-0.1795,-0.1795,-0.1795,-0.1795,-0.1907,-0.2353,-0.2503,-0.2758,-0.3909,-0.4242,-0.4286,-0.4661,-0.4665,-0.4778,-0.5383,-0.6313,-0.7036,-0.7036,-0.754,-0.7988,-0.7988,-0.7988,-0.7988,-0.7988,-0.7988,-0.7988,-0.7988,-0.7988,-0.7988,-0.7988,-0.7988,-0.7988,-0.7988,-0.7988,-0.8088,-0.8382,-0.8783,-0.9179,-0.943,-0.9529,-0.9579,-0.9579,-0.9579,-0.9661,-0.973,-0.973,-0.973,-0.973,-0.973,-0.977,-0.9843,-0.9945,-1.0045,-1.0057,-1.0188,-1.0331,-1.0387,-1.0509,-1.0599,-1.0692,-1.0692,-1.0692,-1.0802,-1.1446,-1.1286,-1.0962,-0.1977,-0.1977,-0.2775,-0.5163,-0.5774,-0.6693,-0.9083,-0.9636,-0.9822,-0.9822,-0.9822,-0.9822,-0.9822,-0.9822,-0.9822,-0.9822,-0.9822,-0.9822,-0.9822,-0.9822,-0.9822,-0.9822,-0.9822,-0.9822,-0.9822,-0.9822,-0.9822,-0.9822,-0.9822,-0.9822,-0.9822,-0.9822,-0.9822,-0.9822,-0.9822,-0.9822,-0.9822,-0.9822,-0.9013,-0.7701,-0.6384,-0.5074,-0.377,-0.242,-0.1888,-0.1882,-0.1854,-0.1787,-0.1782,-0.1809,-0.1797,-0.1795,-0.1795,-0.1795,-0.2018,-0.3246,-0.358,-0.3858,-0.5194,-0.5526,-0.5737,-0.6823,-0.697,-0.6895,-0.6884,-0.7449,-0.8012,-0.8012,-0.7998,-0.7988,-0.7988,-0.7988,-0.7988,-0.7988,-0.7988,-0.7988,-0.7988,-0.7988,-0.7988,-0.7988,-0.7988,-0.7988,-0.7988,-0.7988,-0.8088,-0.8382,-0.8627,-0.8928,-0.9187,-0.943,-0.9583,-0.9648,-0.9652,-0.9734,-0.9908,-0.9908,-0.9908,-0.9908,-0.9908,-0.9998,-1.0212,-1.0233,-1.0241,-1.0249,-1.0379,-1.0407,-1.0415,-1.0627,-1.0692,-1.0692,-1.0692,-1.0692,-1.0692,-1.0802,-1.0857,-1.1017,-0.1977,-0.1977,-0.2161,-0.2775,-0.4551,-0.608,-0.663,-0.8468,-0.9822,-0.9822,-0.9822,-0.9822,-0.9822,-0.9822,-0.9822,-0.9822,-0.9822,-0.9822,-0.9822,-0.9822,-0.9822,-0.9822,-0.9822,-0.9822,-0.9822,-0.9822,-0.9822,-0.9822,-0.9822,-0.9822,-0.9822,-0.9822,-0.9822,-0.9822,-0.9822,-0.9822,-0.9822,-0.9822,-0.962,-0.9102,-0.6843,-0.5698,-0.5147,-0.2819,-0.1907,-0.1885,-0.1879,-0.1876,-0.1871,-0.184,-0.1814,-0.1795,-0.1795,-0.1795,-0.2018,-0.3246,-0.358,-0.4083,-0.6146,-0.6742,-0.7003,-0.8167,-0.8365,-0.8259,-0.8144,-0.8168,-0.8221,-0.8221,-0.8126,-0.7988,-0.7988,-0.7988,-0.7988,-0.7988,-0.7988,-0.7988,-0.7988,-0.7988,-0.7988,-0.7988,-0.7988,-0.7988,-0.7988,-0.7988,-0.8088,-0.8382,-0.8627,-0.8928,-0.9187,-0.943,-0.9689,-0.9823,-0.9827,-0.9916,-1.0151,-1.0155,-1.0155,-1.0155,-1.0155,-1.0175,-1.0216,-1.031,-1.0375,-1.0383,-1.0558,-1.0635,-1.0639,-1.0676,-1.0692,-1.0692,-1.0692,-1.0692,-1.0802,-1.1719,-1.2041,-1.2309,-0.1977,-0.1977,-0.2223,-0.2774,-0.4551,-0.6141,-0.6752,-0.8532,-0.9822,-0.9822,-0.9822,-0.9822,-0.9822,-0.9822,-0.9822,-0.9822,-0.9822,-0.9822,-0.9822,-0.9822,-0.9822,-0.9822,-0.9822,-0.9822,-0.9822,-0.9822,-0.9822,-0.9822,-0.9822,-0.9822,-0.9822,-0.9822,-0.9822,-0.9822,-0.9822,-0.9822,-0.9822,-0.9822,-0.9083,-0.7795,-0.6446,-0.514,-0.3897,-0.25,-0.1943,-0.1927,-0.1913,-0.1898,-0.1883,-0.1867,-0.1842,-0.1817,-0.1817,-0.22,-0.2912,-0.4081,-0.4862,-0.5644,-0.7485,-0.7934,-0.81,-0.8716,-0.8824,-0.8777,-0.8625,-0.8476,-0.837,-0.837,-0.8306,-0.8231,-0.8163,-0.815,-0.8126,-0.8002,-0.7988,-0.7988,-0.7988,-0.7988,-0.7988,-0.7988,-0.7988,-0.7988,-0.7988,-0.7988,-0.8038,-0.8187,-0.8653,-0.8998,-0.9152,-0.9633,-0.9925,-1.0014,-1.0018,-1.0107,-1.029,-1.0294,-1.0335,-1.0416,-1.0331,-1.0335,-1.042,-1.0513,-1.0558,-1.0562,-1.0651,-1.0692,-1.0692,-1.0692,-1.0692,-1.0692,-1.0692,-1.0692,-1.0852,-1.1982,-1.3117,-1.4245,-0.1977,-0.1977,-0.2346,-0.3387,-0.4673,-0.6018,-0.7365,-0.8653,-0.9576,-0.9758,-0.9822,-0.9822,-0.9822,-0.9822,-0.9822,-0.9822,-0.9822,-0.9822,-0.9822,-0.9822,-0.9822,-0.9822,-0.9822,-0.9822,-0.9822,-0.9822,-0.9822,-0.9822,-0.9822,-0.9822,-0.9822,-0.9822,-0.9822,-0.9822,-0.9822,-0.9822,-0.9761,-0.9576,-0.8346,-0.651,-0.5835,-0.4369,-0.2591,-0.2161,-0.1977,-0.1973,-0.1948,-0.1919,-0.1894,-0.1894,-0.1873,-0.179,-0.179,-0.2623,-0.382,-0.5048,-0.6214,-0.7376,-0.8549,-0.8885,-0.8885,-0.8885,-0.8885,-0.8851,-0.8777,-0.8632,-0.852,-0.852,-0.8499,-0.8445,-0.8381,-0.8357,-0.8265,-0.8136,-0.8046,-0.8029,-0.8029,-0.8005,-0.7988,-0.7988,-0.8012,-0.8039,-0.8062,-0.8066,-0.8066,-0.8066,-0.8736,-0.9119,-0.9119,-0.982,-1.0228,-1.0209,-1.0209,-1.0298,-1.0423,-1.0427,-1.055,-1.0688,-1.0546,-1.0554,-1.0692,-1.0692,-1.0692,-1.0692,-1.0692,-1.0692,-1.0692,-1.0692,-1.0692,-1.0692,-1.0692,-1.0798,-1.1122,-1.2521,-1.4245,-1.5914,-0.1977,-0.1977,-0.2038,-0.2222,-0.3326,-0.4611,-0.5957,-0.7304,-0.8532,-0.9636,-0.9822,-0.9822,-0.9822,-0.9822,-0.9822,-0.9822,-0.9822,-0.9822,-0.9822,-0.9822,-0.9822,-0.9822,-0.9822,-0.9822,-0.9822,-0.9822,-0.9822,-0.9822,-0.9822,-0.9822,-0.9822,-0.9822,-0.9822,-0.9822,-0.9822,-0.9822,-0.97,-0.8653,-0.8593,-0.8961,-0.5529,-0.4673,-0.5102,-0.2837,-0.1977,-0.1976,-0.1972,-0.1951,-0.1925,-0.1925,-0.1904,-0.1879,-0.1879,-0.2669,-0.3829,-0.5023,-0.6214,-0.7376,-0.8549,-0.8885,-0.8885,-0.8885,-0.8885,-0.8878,-0.8858,-0.8791,-0.8679,-0.8679,-0.8574,-0.8476,-0.8459,-0.8455,-0.8445,-0.8425,-0.8319,-0.8238,-0.8238,-0.8126,-0.7988,-0.7988,-0.816,-0.8289,-0.8411,-0.8421,-0.8421,-0.8421,-0.8967,-0.9294,-0.9294,-0.9835,-1.0237,-1.0391,-1.0342,-1.0481,-1.0655,-1.066,-1.0668,-1.0692,-1.0668,-1.0668,-1.0692,-1.0692,-1.0692,-1.0692,-1.0692,-1.0692,-1.0692,-1.0692,-1.0692,-1.0692,-1.0692,-1.1286,-1.2413,-1.462,-1.5642,-1.6021,-0.2025,-0.2025,-0.202,-0.2003,-0.3056,-0.4162,-0.4679,-0.6569,-0.8102,-0.8653,-0.9329,-0.9822,-0.9822,-0.9822,-0.9822,-0.9822,-0.9822,-0.9822,-0.9822,-0.9822,-0.9822,-0.9822,-0.9822,-0.9822,-0.9822,-0.9822,-0.9863,-0.9886,-0.9863,-0.9822,-0.9822,-0.9822,-0.9822,-0.9822,-0.9822,-0.9822,-0.9758,-0.9207,-0.8471,-0.749,-0.5712,-0.449,-0.3574,-0.2469,-0.1977,-0.1977,-0.1977,-0.1968,-0.1956,-0.1956,-0.1937,-0.203,-0.2804,-0.3771,-0.4995,-0.6267,-0.7396,-0.8379,-0.8947,-0.8998,-0.8885,-0.8885,-0.8885,-0.8885,-0.8885,-0.8831,-0.8838,-0.8838,-0.8784,-0.871,-0.8625,-0.8611,-0.8581,-0.8496,-0.8428,-0.8387,-0.8387,-0.833,-0.8286,-0.8286,-0.8347,-0.8414,-0.8476,-0.8482,-0.8482,-0.8482,-0.8987,-0.9303,-0.9462,-0.9976,-1.0335,-1.0574,-1.0578,-1.0615,-1.0692,-1.0692,-1.0692,-1.0692,-1.0692,-1.0692,-1.0692,-1.0692,-1.0692,-1.0692,-1.0692,-1.0692,-1.0692,-1.0692,-1.0692,-1.0747,-1.1391,-1.2738,-1.446,-1.5535,-1.6287,-1.6935]}]]